[[{"header":{"parameterUnit":"m.s-1","parameterCategory":1,"la1":30.6,"la2":29.2853,"lo1":-89.7004,"lo2":-87.6739,"dy":0.0162,"dx":0.0183,"nx":112,"ny":82,"refTime":"2025-05-16T12:00:00:Z","depth":0,"parameterNumber":2,"parameterNumberName":"U-component_of_WINDS"},"data":[0.0,0.0,0.0,0.0,0.0,0.0,0.0,0.0,0.0,0.0,0.0,0.0,0.0,0.0,0.0,0.0,0.0,0.0,0.0,0.0,0.0,0.0,0.0,0.0,0.0,0.0,0.0,0.0,0.0,0.0,0.0,0.0,0.0,0.0,0.0,0.0,0.0,0.0,0.0,0.0,0.0,0.0,0.0,0.0,0.0,0.0,0.0,0.0,0.0,0.0,0.0,0.0,0.0,0.0,0.0,0.0,0.0,0.0,0.0,0.0,0.0,0.0,0.0,0.0,0.0,0.0,0.0,0.0,0.0,0.0,0.0,0.0,0.0,0.0,0.0,0.0,0.0,0.0,0.0,0.0,0.0,0.0,0.0,0.0,0.0,0.0,0.0,0.0,0.0,0.0,0.0,-3.8867,-4.3516,-4.5586,-4.3867,-4.2773,-3.9687,-3.3789,0.0,0.0,0.0,0.0,0.0,0.0,0.0,0.0,0.0,0.0,0.0,0.0,0.0,0.0,0.0,0.0,0.0,0.0,0.0,0.0,0.0,0.0,0.0,0.0,0.0,0.0,0.0,0.0,0.0,0.0,0.0,0.0,0.0,0.0,0.0,0.0,0.0,0.0,0.0,0.0,0.0,0.0,0.0,0.0,0.0,0.0,0.0,0.0,0.0,0.0,0.0,0.0,0.0,0.0,0.0,0.0,0.0,0.0,0.0,0.0,0.0,0.0,0.0,0.0,0.0,0.0,0.0,0.0,0.0,0.0,0.0,0.0,0.0,0.0,0.0,0.0,0.0,0.0,0.0,0.0,0.0,0.0,0.0,0.0,0.0,0.0,0.0,0.0,0.0,0.0,0.0,0.0,0.0,0.0,0.0,0.0,0.0,0.0,0.0,0.0,0.0,0.0,0.0,0.0,-3.4961,-4.2148,-4.4961,-4.5586,-4.3867,-4.2266,-3.9101,-3.375,0.0,0.0,0.0,0.0,0.0,0.0,0.0,0.0,0.0,0.0,0.0,0.0,0.0,0.0,0.0,0.0,0.0,0.0,0.0,0.0,0.0,0.0,0.0,0.0,0.0,0.0,0.0,0.0,0.0,0.0,0.0,0.0,0.0,0.0,0.0,0.0,0.0,0.0,0.0,0.0,0.0,0.0,0.0,0.0,0.0,0.0,0.0,0.0,0.0,0.0,0.0,0.0,0.0,0.0,0.0,0.0,0.0,0.0,0.0,0.0,0.0,0.0,0.0,0.0,0.0,0.0,0.0,0.0,0.0,0.0,0.0,0.0,0.0,0.0,0.0,0.0,0.0,0.0,0.0,0.0,0.0,0.0,0.0,0.0,0.0,0.0,0.0,0.0,0.0,0.0,0.0,0.0,0.0,0.0,0.0,0.0,0.0,0.0,0.0,0.0,0.0,0.0,0.0,-3.4141,-3.7891,-4.3789,-4.5547,-4.5586,-4.3867,-4.2148,-3.8984,-3.3711,-3.0586,0.0,0.0,0.0,0.0,0.0,0.0,0.0,0.0,0.0,0.0,0.0,0.0,0.0,0.0,0.0,0.0,0.0,0.0,0.0,0.0,0.0,0.0,0.0,0.0,0.0,0.0,0.0,0.0,0.0,0.0,0.0,0.0,0.0,0.0,0.0,0.0,0.0,0.0,0.0,0.0,0.0,0.0,0.0,0.0,0.0,0.0,0.0,0.0,0.0,0.0,0.0,0.0,0.0,0.0,0.0,0.0,0.0,0.0,0.0,0.0,0.0,0.0,0.0,0.0,0.0,0.0,0.0,0.0,0.0,0.0,0.0,0.0,0.0,0.0,0.0,0.0,0.0,0.0,0.0,0.0,0.0,0.0,0.0,0.0,0.0,0.0,0.0,0.0,0.0,0.0,0.0,0.0,0.0,0.0,0.0,0.0,0.0,0.0,0.0,0.0,0.0,0.0,-3.8476,-4.0976,-4.4883,-4.5898,-4.5586,-4.3867,-4.1797,-3.8516,-3.3711,-2.9805,0.0,0.0,0.0,0.0,0.0,0.0,0.0,0.0,0.0,0.0,0.0,0.0,0.0,0.0,0.0,0.0,0.0,0.0,0.0,0.0,0.0,0.0,0.0,0.0,0.0,0.0,0.0,0.0,0.0,0.0,0.0,0.0,0.0,0.0,0.0,0.0,0.0,0.0,0.0,0.0,0.0,0.0,0.0,0.0,0.0,0.0,0.0,0.0,0.0,0.0,0.0,0.0,0.0,0.0,0.0,0.0,0.0,0.0,0.0,0.0,0.0,0.0,0.0,0.0,0.0,0.0,0.0,0.0,0.0,0.0,0.0,0.0,0.0,0.0,0.0,0.0,0.0,0.0,0.0,0.0,0.0,0.0,0.0,0.0,0.0,0.0,0.0,0.0,0.0,0.0,0.0,0.0,0.0,0.0,0.0,0.0,0.0,0.0,0.0,0.0,0.0,0.0,-3.9648,-4.3164,-4.5937,-4.625,-4.5586,-4.3867,-4.0664,-3.7226,-3.3633,-2.8672,0.0,0.0,0.0,0.0,0.0,0.0,0.0,0.0,0.0,0.0,0.0,0.0,0.0,0.0,0.0,0.0,0.0,0.0,0.0,0.0,0.0,0.0,0.0,0.0,0.0,0.0,0.0,0.0,0.0,0.0,0.0,0.0,0.0,0.0,0.0,0.0,0.0,0.0,0.0,0.0,0.0,0.0,0.0,0.0,0.0,0.0,0.0,0.0,0.0,0.0,0.0,0.0,0.0,0.0,0.0,0.0,0.0,0.0,0.0,0.0,0.0,0.0,0.0,0.0,0.0,0.0,0.0,0.0,0.0,0.0,0.0,0.0,0.0,0.0,0.0,0.0,0.0,0.0,0.0,0.0,0.0,0.0,0.0,0.0,0.0,0.0,0.0,0.0,0.0,0.0,0.0,0.0,0.0,0.0,0.0,0.0,0.0,0.0,0.0,0.0,0.0,0.0,-3.8828,-4.2226,0.0,-4.6289,-4.5586,-4.3867,-4.1562,-3.8281,-3.3672,0.0,0.0,0.0,0.0,0.0,0.0,0.0,0.0,0.0,0.0,0.0,0.0,0.0,0.0,0.0,0.0,0.0,0.0,0.0,0.0,0.0,0.0,0.0,0.0,0.0,0.0,0.0,0.0,0.0,0.0,0.0,0.0,0.0,0.0,0.0,0.0,0.0,0.0,0.0,0.0,0.0,0.0,0.0,0.0,0.0,0.0,0.0,0.0,0.0,0.0,0.0,0.0,0.0,0.0,0.0,0.0,0.0,0.0,0.0,0.0,0.0,0.0,0.0,0.0,0.0,0.0,0.0,0.0,0.0,0.0,0.0,0.0,0.0,0.0,0.0,0.0,0.0,0.0,0.0,0.0,0.0,0.0,0.0,0.0,0.0,0.0,0.0,0.0,0.0,0.0,0.0,0.0,0.0,0.0,0.0,0.0,0.0,0.0,0.0,0.0,0.0,0.0,-3.5312,-3.8984,-4.2422,0.0,-4.6289,-4.5586,-4.3867,-4.1641,-3.8398,-3.3711,0.0,0.0,0.0,0.0,0.0,0.0,0.0,0.0,0.0,0.0,0.0,0.0,0.0,0.0,0.0,0.0,0.0,0.0,0.0,0.0,0.0,0.0,0.0,0.0,0.0,0.0,0.0,0.0,0.0,0.0,0.0,0.0,0.0,0.0,0.0,0.0,0.0,0.0,0.0,0.0,0.0,0.0,0.0,0.0,0.0,0.0,0.0,0.0,0.0,0.0,0.0,0.0,0.0,0.0,0.0,0.0,0.0,0.0,0.0,0.0,0.0,0.0,0.0,0.0,0.0,0.0,0.0,0.0,0.0,0.0,0.0,0.0,0.0,0.0,0.0,0.0,0.0,0.0,0.0,0.0,0.0,0.0,0.0,0.0,0.0,0.0,0.0,0.0,0.0,0.0,0.0,0.0,0.0,0.0,0.0,0.0,0.0,0.0,0.0,0.0,0.0,0.0,-3.5547,-4.0508,-4.4375,-4.6094,-4.6289,-4.5586,-4.3867,-4.0586,-3.7148,0.0,0.0,0.0,0.0,0.0,0.0,0.0,0.0,0.0,0.0,0.0,0.0,0.0,0.0,0.0,0.0,0.0,0.0,0.0,0.0,0.0,0.0,0.0,0.0,0.0,0.0,0.0,0.0,0.0,0.0,0.0,0.0,0.0,0.0,0.0,0.0,0.0,0.0,0.0,0.0,0.0,0.0,0.0,0.0,0.0,0.0,0.0,0.0,0.0,0.0,0.0,0.0,0.0,0.0,0.0,0.0,0.0,0.0,0.0,0.0,0.0,0.0,0.0,0.0,0.0,0.0,0.0,0.0,0.0,0.0,0.0,0.0,0.0,0.0,0.0,0.0,0.0,0.0,0.0,0.0,0.0,0.0,0.0,0.0,0.0,0.0,0.0,0.0,0.0,0.0,0.0,0.0,0.0,0.0,0.0,0.0,0.0,0.0,0.0,0.0,0.0,0.0,0.0,-3.5547,-4.0508,-4.4375,-4.6094,-4.6289,-4.5586,-4.3867,-4.168,-3.8437,-3.3711,0.0,0.0,0.0,0.0,0.0,0.0,0.0,0.0,0.0,0.0,0.0,0.0,0.0,0.0,0.0,0.0,0.0,0.0,0.0,0.0,0.0,0.0,0.0,0.0,0.0,0.0,0.0,0.0,0.0,0.0,0.0,0.0,0.0,0.0,0.0,0.0,0.0,0.0,0.0,0.0,0.0,0.0,0.0,0.0,0.0,0.0,0.0,0.0,0.0,0.0,0.0,0.0,0.0,0.0,0.0,0.0,0.0,0.0,0.0,0.0,0.0,0.0,0.0,0.0,0.0,0.0,0.0,0.0,0.0,0.0,0.0,0.0,0.0,0.0,0.0,0.0,0.0,0.0,0.0,0.0,0.0,0.0,0.0,0.0,0.0,0.0,0.0,0.0,0.0,0.0,0.0,0.0,0.0,0.0,0.0,0.0,0.0,0.0,0.0,0.0,0.0,0.0,-3.5547,-4.0508,-4.4375,-4.6094,-4.6289,-4.5586,-4.3867,-4.2148,-3.8984,-3.3711,0.0,0.0,0.0,0.0,0.0,0.0,0.0,0.0,0.0,0.0,0.0,0.0,0.0,0.0,0.0,0.0,0.0,0.0,0.0,0.0,0.0,0.0,0.0,0.0,0.0,0.0,0.0,0.0,0.0,0.0,0.0,0.0,0.0,0.0,0.0,0.0,0.0,0.0,0.0,0.0,0.0,0.0,0.0,0.0,0.0,0.0,0.0,0.0,0.0,0.0,0.0,0.0,0.0,0.0,0.0,0.0,0.0,0.0,0.0,0.0,0.0,0.0,0.0,0.0,0.0,0.0,0.0,0.0,0.0,0.0,0.0,0.0,0.0,0.0,0.0,0.0,0.0,0.0,0.0,0.0,0.0,0.0,0.0,0.0,0.0,0.0,0.0,0.0,0.0,0.0,0.0,0.0,0.0,0.0,0.0,0.0,0.0,0.0,0.0,0.0,0.0,0.0,-3.5547,-4.0508,-4.4375,-4.6094,-4.6289,-4.5625,-4.3945,-4.2266,-3.9141,-3.4062,0.0,0.0,0.0,0.0,0.0,0.0,0.0,0.0,0.0,0.0,0.0,0.0,0.0,0.0,0.0,0.0,0.0,0.0,0.0,0.0,0.0,0.0,0.0,0.0,0.0,0.0,0.0,0.0,0.0,0.0,0.0,0.0,0.0,0.0,0.0,0.0,0.0,0.0,0.0,0.0,0.0,0.0,0.0,0.0,0.0,0.0,0.0,0.0,0.0,0.0,0.0,0.0,0.0,0.0,0.0,0.0,0.0,0.0,0.0,0.0,-3.3984,0.0,0.0,0.0,0.0,0.0,0.0,0.0,0.0,0.0,0.0,0.0,0.0,0.0,0.0,0.0,0.0,0.0,0.0,0.0,0.0,0.0,0.0,0.0,0.0,0.0,0.0,0.0,0.0,0.0,0.0,0.0,0.0,0.0,0.0,0.0,0.0,0.0,0.0,0.0,0.0,0.0,-3.5547,-4.0508,-4.4375,-4.6094,-4.6289,-4.5859,-4.4805,-4.3125,-4.0508,-3.6719,-3.1953,0.0,0.0,0.0,0.0,0.0,0.0,0.0,0.0,0.0,0.0,0.0,0.0,0.0,0.0,0.0,0.0,0.0,0.0,0.0,0.0,0.0,0.0,0.0,0.0,0.0,0.0,0.0,0.0,0.0,0.0,0.0,0.0,0.0,0.0,0.0,0.0,0.0,0.0,0.0,0.0,0.0,0.0,0.0,0.0,0.0,0.0,0.0,0.0,0.0,0.0,0.0,0.0,0.0,0.0,0.0,0.0,0.0,0.0,0.0,0.0,-3.6367,0.0,0.0,0.0,0.0,0.0,0.0,0.0,0.0,0.0,0.0,0.0,0.0,0.0,0.0,0.0,0.0,0.0,0.0,0.0,0.0,0.0,0.0,0.0,0.0,0.0,0.0,0.0,0.0,0.0,0.0,0.0,0.0,0.0,0.0,0.0,0.0,0.0,0.0,0.0,0.0,-3.6172,-4.0781,-4.4375,-4.6094,-4.6289,-4.5937,-4.5078,-4.3398,-4.1133,-3.8125,-3.3828,0.0,0.0,0.0,0.0,0.0,0.0,0.0,0.0,0.0,0.0,0.0,0.0,0.0,0.0,0.0,0.0,0.0,0.0,0.0,0.0,0.0,0.0,0.0,0.0,0.0,0.0,0.0,0.0,0.0,0.0,0.0,0.0,0.0,0.0,0.0,0.0,0.0,0.0,0.0,0.0,0.0,0.0,0.0,0.0,0.0,0.0,0.0,0.0,0.0,0.0,0.0,0.0,0.0,-4.4648,-4.5781,-4.7187,-4.7187,-4.7656,-4.8203,-4.3203,-4.1836,-4.2773,0.0,0.0,0.0,0.0,0.0,0.0,0.0,0.0,0.0,0.0,0.0,0.0,0.0,0.0,0.0,0.0,0.0,0.0,0.0,0.0,0.0,0.0,0.0,0.0,0.0,-3.8867,-3.8476,0.0,0.0,0.0,0.0,0.0,0.0,0.0,0.0,0.0,0.0,0.0,0.0,-3.7109,-4.1289,-4.4531,-4.6133,-4.6289,-4.6016,-4.5273,-4.3633,-4.1641,-3.9414,-3.5859,-3.2539,0.0,0.0,0.0,0.0,0.0,0.0,0.0,0.0,0.0,0.0,0.0,0.0,0.0,0.0,0.0,0.0,0.0,0.0,0.0,0.0,0.0,0.0,0.0,0.0,0.0,0.0,0.0,0.0,0.0,0.0,0.0,0.0,-3.1416,-3.2459,0.0,0.0,0.0,0.0,0.0,0.0,0.0,0.0,0.0,0.0,0.0,0.0,0.0,-4.3424,-4.5018,-4.6698,-4.8077,-4.918,-5.0,-5.0508,-5.0742,-5.0742,-5.1211,-5.1992,-5.1172,0.0,-4.5664,-4.4375,0.0,0.0,0.0,0.0,0.0,0.0,0.0,0.0,0.0,0.0,0.0,0.0,0.0,0.0,0.0,0.0,0.0,0.0,0.0,0.0,0.0,0.0,-4.3476,-4.207,-4.2383,-4.2656,0.0,-3.7617,-3.3945,-3.1914,-3.1016,0.0,0.0,0.0,0.0,0.0,0.0,0.0,-3.8086,-4.2187,-4.5195,-4.6172,-4.6289,-4.625,-4.6133,-4.4531,-4.3047,-4.1953,-3.7969,-3.5117,-3.3906,-3.0156,0.0,0.0,0.0,0.0,0.0,0.0,0.0,0.0,0.0,0.0,0.0,0.0,0.0,0.0,0.0,0.0,0.0,0.0,0.0,0.0,0.0,0.0,0.0,0.0,0.0,0.0,0.0,0.0,0.0,-3.1275,-3.3615,-3.4973,-3.4751,-3.4193,0.0,0.0,0.0,0.0,0.0,0.0,0.0,0.0,0.0,-4.4474,-4.6693,-4.8452,-4.972,-5.151,-5.2888,-5.3828,-5.4648,-5.5312,-5.5781,-5.5781,-5.5976,-5.6367,-5.6367,-5.4726,-5.1836,-4.8555,-4.5508,-4.2695,0.0,0.0,0.0,0.0,-3.9453,-3.9375,-4.1719,-4.2187,0.0,-4.0508,0.0,0.0,0.0,0.0,0.0,0.0,0.0,0.0,0.0,0.0,0.0,-4.4531,-4.4883,-4.5078,-4.4687,-4.2422,-3.957,0.0,-3.5898,-3.4687,-3.0625,0.0,0.0,0.0,0.0,0.0,-4.0391,-4.3242,-4.5312,-4.6211,-4.6289,-4.6094,-4.5625,-4.4414,-4.332,-4.2461,-3.9766,-3.7578,-3.6211,-3.3437,-3.0625,0.0,0.0,0.0,0.0,0.0,0.0,0.0,0.0,0.0,0.0,0.0,0.0,0.0,0.0,0.0,0.0,0.0,0.0,0.0,0.0,0.0,0.0,0.0,0.0,0.0,0.0,0.0,0.0,-3.393,-3.6374,-3.7885,-3.8383,-3.8176,0.0,0.0,0.0,0.0,0.0,0.0,-4.4098,-4.5931,-4.7877,-4.9982,-5.1849,-5.3104,-5.377,-5.5355,-5.6507,-5.7132,-5.7796,-5.8465,-5.9136,-5.9136,-5.9139,-5.9219,-5.9219,-5.8476,-5.6914,-5.2383,-4.9375,-4.7383,-4.5234,-4.3906,-4.3359,-4.4805,-4.4961,-4.4766,-4.7383,-4.7851,-4.6992,-4.5039,0.0,-4.2734,-3.9062,0.0,0.0,0.0,0.0,-4.0781,-4.3125,-4.4375,-4.5312,-4.6367,-4.6641,-4.6562,-4.6367,-4.5781,-4.4258,0.0,-4.0234,-3.918,-3.4922,0.0,0.0,0.0,0.0,-4.0351,-4.2461,-4.4258,-4.5586,-4.6211,-4.6289,-4.5937,-4.5078,-4.4219,-4.332,-4.2461,-4.082,-3.9219,-3.7695,-3.5976,-3.3516,-3.0312,0.0,0.0,0.0,0.0,0.0,0.0,0.0,0.0,0.0,0.0,0.0,0.0,0.0,0.0,0.0,0.0,0.0,0.0,0.0,0.0,0.0,0.0,0.0,0.0,0.0,0.0,0.0,0.0,0.0,-4.1596,-4.3049,0.0,0.0,0.0,0.0,-4.3924,-4.572,-4.7839,-5.0403,-5.2214,-5.358,-5.4463,-5.6197,-5.7103,-5.7142,-5.8054,-5.8565,-5.8604,-5.8643,-5.8754,-5.8928,-5.8928,-5.9001,-5.9219,-5.9219,-5.914,-5.8867,-5.6094,-5.3476,-5.1055,-5.0156,-4.9297,-4.8633,-4.9531,-4.9844,-4.9844,-5.0,-5.0039,-4.9961,-4.9844,-4.8125,-4.5742,-4.3867,-4.2187,0.0,0.0,-4.3359,-4.5078,-4.6875,-4.8008,-4.8437,-4.7695,-4.7539,-4.7305,-4.6484,-4.6289,-4.5664,0.0,-4.2812,-4.168,-3.9844,0.0,-3.957,-3.957,-4.1094,-4.2539,-4.3516,-4.5156,-4.625,-4.6289,-4.6289,-4.5937,-4.5078,-4.4219,-4.332,-4.2461,-4.082,-3.9492,-3.8555,-3.6875,-3.4726,-3.2109,-2.9492,0.0,0.0,0.0,0.0,0.0,0.0,0.0,0.0,0.0,0.0,0.0,0.0,0.0,0.0,0.0,0.0,0.0,0.0,0.0,0.0,0.0,0.0,0.0,0.0,0.0,0.0,0.0,0.0,-4.4145,-4.6245,0.0,-4.5602,-4.6219,-4.7221,-4.8386,-5.0104,-5.1915,-5.3923,-5.5139,-5.6182,-5.7023,-5.8272,-5.899,-5.9065,-6.001,-6.0545,-6.0634,-6.0634,-6.0643,-6.0695,-6.0695,-6.0739,-6.082,-6.082,-6.0508,-5.9883,-5.8984,-5.707,-5.4609,-5.3203,-5.2461,-5.2226,-5.2539,-5.2656,-5.2656,-5.2656,-5.2656,-5.2461,-5.1328,-4.9609,-4.7851,-4.7226,-4.6641,-4.6211,-4.6484,-4.7031,-4.7656,-4.8281,-4.8672,-4.8828,-4.8516,-4.8437,-4.8203,-4.7305,-4.7148,-4.6797,-4.5586,-4.4687,-4.3516,-4.1797,-4.1953,-4.2148,-4.1601,-4.2969,-4.4375,-4.5273,-4.5937,-4.6289,-4.6289,-4.6289,-4.5703,-4.4297,-4.3867,-4.2851,-4.0898,-4.0234,-3.9258,-3.7812,-3.7187,-3.5625,-3.3008,-3.1562,-2.8828,0.0,0.0,0.0,0.0,0.0,0.0,0.0,0.0,0.0,0.0,0.0,0.0,0.0,0.0,0.0,0.0,0.0,0.0,0.0,0.0,0.0,0.0,0.0,0.0,0.0,0.0,-4.5124,-4.7095,-4.9548,-5.0779,-4.9894,-5.0856,-5.1895,-5.2751,-5.3857,-5.5203,-5.6896,-5.7511,-5.8242,-5.9127,-5.9783,-6.0187,-6.0259,-6.0978,-6.1361,-6.1465,-6.1527,-6.1584,-6.1633,-6.1633,-6.1677,-6.1719,-6.1719,-6.1367,-6.082,-6.0508,-5.9414,-5.7695,-5.5976,-5.5312,-5.5273,-5.5,-5.4883,-5.4844,-5.4531,-5.4258,-5.3828,-5.2656,-5.1328,-5.0117,-4.9844,-4.9531,-4.9336,-4.9336,-4.9336,-4.9414,-4.9687,-4.9726,-4.9687,-4.9414,-4.9336,-4.9101,-4.8242,-4.7812,-4.7422,-4.6836,-4.6016,-4.5078,-4.3906,-4.418,-4.4375,-4.3789,-4.4687,-4.5664,-4.6211,-4.6289,-4.6289,-4.6289,-4.6289,-4.5586,-4.3867,-4.3437,-4.2422,-4.0469,-3.9805,-3.8945,-3.7773,-3.7187,-3.5781,-3.3437,-3.2031,-2.9766,-2.6562,0.0,0.0,0.0,0.0,0.0,0.0,0.0,0.0,0.0,0.0,0.0,0.0,0.0,0.0,0.0,0.0,0.0,0.0,0.0,0.0,0.0,0.0,0.0,-4.3085,-4.547,-4.8009,-5.0519,-5.3049,-5.428,-5.3433,-5.4818,-5.6126,-5.7022,-5.7088,-5.7808,-5.9435,-5.955,-5.9935,-6.0781,-6.0781,-6.0793,-6.0793,-6.0954,-6.1006,-6.1014,-6.1207,-6.1359,-6.1501,-6.1501,-6.1575,-6.168,-6.168,-6.1719,-6.164,-6.0781,-6.043,-6.0273,-5.8594,-5.793,-5.7812,-5.6953,-5.6601,-5.6484,-5.5625,-5.4765,-5.4023,-5.4023,-5.3437,-5.2578,-5.1758,-5.0937,-5.0273,-5.0273,-5.0273,-5.043,-5.1211,-5.1406,-5.1211,-5.043,-5.0234,-5.0,-4.9141,-4.8281,-4.7656,-4.7617,-4.6914,-4.6328,-4.6289,-4.6289,-4.6289,-4.6289,-4.6289,0.0,-4.6289,-4.6289,-4.6289,-4.6289,-4.6289,-4.5625,-4.3906,-4.293,-4.207,-4.1211,-3.9531,-3.8594,-3.8555,-3.6953,-3.5234,-3.3516,-3.0976,-2.9258,-2.8398,0.0,0.0,0.0,0.0,0.0,0.0,0.0,0.0,0.0,0.0,0.0,0.0,0.0,0.0,0.0,0.0,0.0,0.0,0.0,0.0,0.0,0.0,-4.4855,-4.574,-4.9086,-5.1972,-5.328,-5.5703,-5.7165,-5.6934,-5.7319,-5.7934,-5.8742,-5.8819,-5.9281,-6.0396,-6.0435,-6.055,-6.0781,-6.0781,-6.0856,-6.0935,-6.097,-6.1081,-6.122,-6.1265,-6.1306,-6.1349,-6.1349,-6.1413,-6.1532,-6.1532,-6.1629,-6.168,-6.1445,-6.1328,-6.1172,-5.9492,-5.8828,-5.875,-5.7851,-5.7148,-5.6562,-5.6328,-5.5664,-5.4922,-5.4922,-5.4336,-5.3594,-5.3359,-5.2695,-5.1992,-5.1992,-5.1562,-5.1133,-5.1328,-5.1406,-5.1328,-5.1133,-5.1055,-5.0859,-5.0039,-4.9648,-4.9101,-4.7851,-4.7422,-4.7031,-4.6406,-4.6289,-4.6289,-4.6289,-4.6289,0.0,-4.6289,-4.6289,-4.6289,-4.6289,-4.6289,-4.5859,-4.4726,-4.3828,-4.2461,-4.0391,-3.9219,-3.832,-3.7695,-3.7187,-3.6406,-3.5312,-3.2773,-3.1055,0.0,0.0,0.0,0.0,0.0,0.0,0.0,0.0,0.0,0.0,0.0,0.0,0.0,0.0,0.0,0.0,0.0,0.0,0.0,0.0,0.0,0.0,-4.6663,-4.9202,-5.0433,-5.2395,-5.4434,-5.6357,-5.7896,-5.8934,-5.9319,-5.9358,-5.955,-6.0012,-6.005,-6.0281,-6.0781,-6.0781,-6.0781,-6.0781,-6.0781,-6.0834,-6.0915,-6.0991,-6.1065,-6.1179,-6.1253,-6.1283,-6.1283,-6.1283,-6.1334,0.0,-6.1404,-6.1478,-6.152,-6.152,-6.152,0.0,0.0,0.0,0.0,0.0,-5.7578,-5.7109,-5.6719,-5.6289,-5.5859,-5.5859,-5.5234,-5.4531,-5.4531,-5.3945,-5.3164,-5.2812,-5.2344,-5.1875,-5.1484,-5.1406,-5.1406,-5.1406,-5.1406,-5.1289,-5.0781,-5.043,-4.9805,-4.8398,-4.7851,0.0,-4.6445,-4.6289,-4.6289,-4.6289,-4.6289,-4.6289,-4.6289,-4.6289,-4.6289,-4.6289,-4.6289,-4.5937,-4.5078,-4.4219,0.0,0.0,0.0,-3.8594,-3.7344,-3.6953,0.0,0.0,0.0,0.0,0.0,0.0,0.0,0.0,-3.0508,-3.0625,0.0,0.0,0.0,0.0,0.0,0.0,0.0,0.0,0.0,0.0,0.0,0.0,0.0,0.0,0.0,0.0,-5.0856,-5.401,-5.5857,-5.5511,-5.6165,-5.9165,-5.9588,-5.9935,-6.0704,-6.0781,-6.0781,-6.0781,-6.0781,-6.0781,-6.0781,0.0,0.0,0.0,0.0,-6.0781,-6.0781,-6.0925,-6.0961,-6.0961,-6.115,-6.1227,-6.1227,-6.1227,-6.124,-6.1259,-6.1259,-6.1271,-6.1283,-6.1283,-6.1283,-6.1234,-6.0719,-6.0468,-6.0234,-5.8711,-5.8047,-5.7773,-5.6992,0.0,0.0,-5.6601,-5.6094,-5.5469,-5.5469,-5.4844,-5.3984,-5.3203,-5.2851,-5.2539,-5.1758,-5.1484,-5.1406,-5.1406,-5.1406,-5.1406,-5.1406,-5.0859,-5.0078,-4.9219,-4.8359,-4.7461,-4.6601,-4.6367,-4.6289,-4.6289,-4.6289,-4.6289,-4.6289,-4.6289,-4.6289,-4.6289,0.0,0.0,-4.5195,-4.4336,-4.3476,-4.2617,-4.1055,-3.9492,-3.793,-3.7031,-3.6992,-3.7851,-3.6914,-3.7266,-3.8906,-3.8906,-3.8555,-3.7773,-3.3672,-3.3398,0.0,0.0,0.0,0.0,0.0,0.0,0.0,0.0,0.0,0.0,0.0,0.0,0.0,0.0,0.0,-5.1164,-5.328,-5.5318,-5.8357,-5.8627,-5.8781,-5.9435,-6.0127,-6.0589,-6.0781,-6.0781,-6.0781,-6.0781,-6.0781,-6.0781,-6.0781,-6.0781,0.0,-6.0781,-6.0781,-6.0781,-6.0781,-6.085,-6.0834,-6.0834,0.0,0.0,-6.092,-6.092,-6.0954,-6.1065,-6.1065,-6.1158,-6.1283,-6.1283,-6.1283,-6.1306,-6.1293,-6.0924,-6.0351,-6.0039,-5.9062,-5.789,-5.7695,-5.7187,-5.6601,-5.6601,-5.6484,-5.6367,-5.6367,-5.5742,0.0,-5.4844,-5.3789,-5.2656,-5.25,-5.1914,-5.1406,-5.1406,-5.1406,-5.1406,-5.1406,-5.1289,-5.0937,-5.0117,-4.9258,-4.8359,-4.75,-4.6758,-4.6289,-4.6289,-4.6289,-4.6289,-4.6289,-4.6289,-4.6289,-4.6289,-4.6289,-4.6211,-4.6055,-4.5234,-4.4375,-4.3516,-4.2461,-4.1758,-4.1445,-4.0625,-4.0586,-4.1406,-3.9922,-3.9648,-4.0703,-4.0703,-4.0937,-4.1328,-3.8437,-3.7461,0.0,0.0,0.0,0.0,0.0,0.0,0.0,0.0,0.0,0.0,0.0,-4.2316,-4.6201,0.0,-5.0164,-5.4423,-5.5818,-5.7126,-5.9204,-5.9896,-6.0165,-6.0165,-6.0512,-6.0781,-6.0781,-6.0781,-6.0781,-6.0781,-6.0781,-6.0781,-6.0781,-6.0781,-6.0781,-6.0781,-6.0781,-6.0781,-6.0781,-6.0781,-6.0781,-6.0781,-6.0781,-6.0781,-6.0781,-6.0781,-6.0834,-6.0884,-6.0884,-6.0964,-6.1036,-6.1036,-6.1103,-6.1165,-6.122,-6.1136,-6.0924,-6.0546,-5.9883,-5.9023,-5.8203,-5.7617,-5.7187,-5.6758,-5.6601,-5.6601,-5.6601,-5.6289,-5.5859,-5.543,-5.4687,-5.3789,-5.293,-5.2383,-5.1953,-5.1484,-5.1406,-5.1406,-5.1406,-5.1406,-5.1172,-5.0351,-4.9844,-4.9141,-4.7812,-4.7226,-4.6797,-4.6367,-4.6289,-4.6289,-4.6289,-4.6289,-4.6289,-4.6289,-4.6289,-4.6289,-4.6289,-4.5508,-4.4805,-4.4375,-4.3516,-4.3047,-4.3047,-4.2266,-4.2187,-4.3047,-4.1797,-4.1562,-4.2461,-4.2461,-4.2656,-4.3008,-4.1758,-4.1133,0.0,0.0,0.0,0.0,0.0,0.0,0.0,0.0,-4.0469,-4.3008,-4.4855,-4.7124,-5.0789,-5.2241,-5.3885,-5.6962,-5.8088,-5.8819,-5.9627,-6.0358,-6.0781,-6.0781,-6.0781,-6.0781,-6.0781,-6.0781,-6.0781,-6.0781,-6.0781,-6.0781,-6.0781,-6.0781,-6.0781,-6.0781,-6.0781,-6.0781,-6.0781,-6.0781,-6.0781,-6.0781,-6.0781,-6.0781,-6.0781,-6.0781,-6.0781,-6.0781,-6.0781,-6.0781,-6.0781,-6.0781,-6.085,-6.0973,-6.0979,-6.1168,-6.1346,-6.0796,-6.0459,-6.0147,-5.878,-5.8077,-5.7687,-5.7028,-5.6677,-5.6561,-5.6601,-5.6601,-5.6445,-5.5742,-5.543,-5.4922,-5.3359,-5.2812,-5.2461,-5.1601,-5.1406,-5.1406,-5.1406,-5.1406,-5.1211,-5.0547,-5.0312,-4.9766,-4.8359,-4.7812,-4.7305,-4.6445,-4.6289,-4.6248,-4.6248,-4.6246,-4.6245,-4.6248,-4.6248,-4.6248,-4.6248,-4.5625,-4.5234,-4.5233,-4.457,-4.4219,-4.4219,-4.3359,-4.332,-4.418,-4.3359,-4.332,-4.4219,-4.4219,-4.4219,-4.4219,-4.4219,-4.4101,-3.6661,-3.6346,-3.7084,-3.9246,-3.9861,-4.1324,0.0,0.0,-4.6624,-4.9163,-5.1048,-5.2587,-5.3857,-5.5357,-5.7049,-5.8934,-5.9319,-5.9665,-6.0512,-6.0742,-6.0781,-6.0781,-6.0781,-6.0781,-6.0781,-6.0781,-6.0781,-6.0781,-6.0781,-6.0781,-6.0781,-6.0781,-6.0781,-6.0781,-6.0781,-6.0781,-6.0781,-6.0781,-6.0781,-6.0781,-6.0781,-6.0781,-6.0781,-6.0781,-6.0781,-6.0781,-6.0781,-6.0781,-6.0781,-6.0781,-6.0804,-6.0823,-6.0954,-6.1031,-6.1058,-6.1167,-6.0711,-6.0004,-5.9849,-5.8758,-5.7459,-5.7467,-5.6985,-5.645,-5.6561,-5.6601,-5.6562,-5.6484,-5.5898,-5.5078,-5.4101,-5.3281,-5.2461,-5.1601,-5.1406,-5.1406,-5.1406,-5.1406,-5.1367,-5.1289,-5.0703,-5.0156,-4.9922,-4.8633,-4.7305,-4.6445,-4.62,-4.6138,-4.6138,-4.6008,-4.5988,-4.6093,-4.6138,-4.6138,-4.6138,-4.6127,-4.6091,-4.5984,-4.6011,-4.6016,-4.6016,-4.5156,-4.5117,-4.5976,-4.5156,-4.5156,-4.6016,-4.6016,-4.6016,-4.6016,-4.6016,-4.5586,-4.1931,-4.1893,-4.2239,0.0,-4.497,-4.6317,-4.8817,-5.001,-5.101,-5.2587,-5.4241,-5.5818,-5.7165,-5.7973,-5.8858,0.0,-6.0242,-6.0396,-6.0742,-6.0781,-6.0589,-6.0089,-6.0473,-6.0781,-6.0781,-6.0781,-6.0781,-6.0781,-6.0781,-6.0781,-6.0781,-6.0781,-6.0781,-6.0781,-6.0781,-6.0781,-6.0781,-6.0781,-6.0781,-6.0781,-6.0781,-6.0781,-6.0781,-6.0781,-6.0781,-6.0781,-6.0781,-6.0781,-6.0781,-6.0781,-6.0781,-6.0793,-6.085,-6.0892,-6.0905,-6.1186,-6.105,-6.07,-6.0188,-5.9527,-5.876,-5.7804,-5.7277,-5.6901,-5.6478,-5.6374,-5.6374,-5.6374,-5.6098,-5.5642,-5.4857,-5.4003,-5.315,-5.2343,-5.1714,-5.1317,-5.1367,-5.1324,-5.1273,-5.1273,-5.0999,-5.0601,-5.0057,-4.8959,-4.7828,-4.6967,-4.6394,-4.6077,-4.5992,-4.5948,-4.5939,-4.5981,-4.5985,-4.5985,-4.5985,-4.6017,-4.6022,-4.5988,-4.6093,-4.6196,-4.6196,-4.5897,-4.5937,-4.6289,-4.5937,-4.5937,-4.6289,-4.6289,-4.6289,-4.6289,-4.6289,-4.6094,-4.5441,-4.5941,0.0,-4.7971,-4.9356,-5.0625,-5.1318,-5.2933,-5.4434,-5.5049,-5.6357,-5.7665,-5.8627,-5.9204,-5.9704,-6.0319,-6.0627,-6.0781,-6.0781,-6.0781,-6.055,-5.9935,-6.0435,-6.0781,-6.0781,-6.0781,-6.0781,-6.0781,-6.0781,-6.0781,-6.0781,-6.0781,-6.0781,-6.0781,-6.0781,-6.0781,-6.0781,-6.0781,-6.0781,-6.0781,-6.0781,-6.0781,-6.0781,-6.0781,-6.0781,-6.0781,-6.0781,-6.0781,-6.0781,-6.0781,-6.0781,-6.0781,-6.0781,-6.0781,-6.0839,-6.1062,-6.1182,-6.1058,-6.0429,-6.0041,-5.966,-5.8435,-5.7709,-5.7256,-5.6681,-5.6386,-5.6191,-5.6191,-5.6191,-5.6018,-5.5244,-5.4596,-5.3832,-5.2827,-5.2028,-5.1458,-5.1346,-5.1247,-5.1171,-5.1171,-5.1171,-5.0956,-5.0286,-4.9455,-4.8628,-4.7966,-4.6986,-4.6232,-4.592,-4.5867,-4.5867,-4.5867,-4.59,-4.5905,-4.5872,-4.59,-4.5905,-4.5872,-4.5974,-4.6022,-4.6022,-4.6155,-4.6247,-4.6247,-4.6289,-4.6289,-4.6289,-4.6289,-4.6289,-4.6289,-4.6289,-4.6289,-4.5594,0.0,-4.8625,-5.1115,-5.2423,-5.3741,-5.6214,-5.683,-5.6907,-5.6907,-5.7627,-5.8011,-5.7214,-5.8396,-5.9511,-5.955,-6.0242,-6.0781,-6.0781,-6.0781,-6.0781,-6.0742,-6.0781,-6.0781,0.0,-6.0781,-6.0781,-6.0781,-6.0781,-6.0781,-6.0781,-6.0781,-6.0781,-6.0781,-6.0781,-6.0781,-6.0781,-6.0781,-6.0781,-6.0781,-6.0781,-6.0781,-6.0781,-6.0781,-6.0781,-6.0781,-6.0781,-6.0781,-6.0781,-6.0781,-6.0781,-6.0781,-6.0781,-6.0781,-6.0781,-6.0804,-6.0816,-6.0816,-6.0777,-6.0227,-5.954,-5.96,-5.8518,-5.7242,-5.7346,-5.6809,-5.6191,-5.6191,-5.6191,-5.5997,-5.5141,-5.4907,-5.444,-5.2728,-5.23,-5.2067,-5.1298,-5.1099,-5.1099,-5.1099,-5.1099,-5.1094,-5.1055,-5.0345,-4.9715,-4.9529,-4.8069,-4.6674,-4.5906,-4.579,-4.579,-4.579,-4.5846,-4.5872,-4.5803,-4.5846,-4.5867,-4.5796,-4.5857,-4.5927,-4.5927,-4.6017,-4.6091,-4.6091,-4.6245,-4.6289,-4.6289,-4.6289,-4.6289,-4.6289,-4.6289,-4.6289,-4.7817,0.0,-5.1972,-5.3933,-5.5088,-5.6088,-5.755,-5.828,-5.8511,-5.7973,-5.8088,-5.805,-5.7176,-5.7445,-5.8011,-5.8627,-5.9396,-6.0127,-6.0704,-6.0781,-6.0589,-6.0012,-6.0435,0.0,0.0,0.0,0.0,-6.0781,-6.0781,-6.0781,-6.0781,-6.0781,-6.0781,-6.0781,-6.0781,-6.0781,-6.0781,-6.0781,-6.0781,-6.0781,-6.0781,-6.0781,-6.0781,-6.0781,-6.0781,-6.0781,-6.0781,-6.0781,-6.0781,-6.0781,-6.0781,-6.0781,-6.0781,-6.0781,-6.0781,-6.0781,-6.0781,-6.0781,-6.0781,-6.0589,-6.0254,-5.9738,-5.8806,-5.7814,-5.7293,-5.6548,-5.5852,-5.5852,-5.5852,-5.581,-5.5637,-5.5162,-5.464,-5.4136,-5.3073,-5.213,-5.1924,-5.1402,-5.0979,-5.0979,-5.0979,-5.0945,-5.0851,-5.0132,-4.9327,-4.8681,-4.7662,-4.6621,-4.578,-4.5665,-4.5665,-4.5665,-4.5688,-4.5703,-4.5673,-4.5688,-4.5703,-4.5673,-4.577,-4.5825,-4.5825,-4.6024,-4.6089,-4.6089,-4.6245,-4.6289,-4.6289,-4.6289,-4.6289,-4.6289,-4.6289,-4.6289,-5.0587,-5.2626,-5.4587,-5.6549,-5.7473,-5.8127,-5.8973,-5.9358,-5.9165,-5.8088,-5.7357,-5.6588,-5.5395,-5.5164,-5.5665,-5.7126,-5.805,-5.9127,-6.0589,-6.0781,-6.0589,-6.0012,-6.0473,-6.0589,0.0,0.0,0.0,-6.0781,-6.0781,-6.0935,-6.1243,-6.1243,-6.1396,-6.1666,-6.1396,-6.1243,-6.1243,-6.0973,-6.0781,-6.0781,-6.0781,-6.0781,-6.0781,-6.0781,-6.0781,-6.0781,-6.0781,-6.0781,-6.0781,-6.0781,-6.0781,-6.0781,-6.0781,-6.0781,-6.0781,-6.0781,-6.0781,-6.0781,-6.0781,-6.0781,-6.0704,-6.0165,-5.9396,-5.8588,-5.7703,-5.6857,-5.6088,-5.578,-5.5703,-5.5707,-5.5798,-5.5439,-5.5011,-5.4808,-5.3847,-5.2815,-5.2288,-5.168,-5.1159,-5.0897,-5.0819,-5.0816,-5.0702,-5.025,-4.9586,-4.8702,-4.8125,-4.7355,-4.6201,-4.5787,-4.5594,-4.5594,-4.5594,-4.5594,-4.5594,-4.5594,-4.5594,-4.5594,-4.5688,-4.5718,-4.5718,-4.5901,-4.6006,-4.6006,-4.6142,-4.6245,-4.6245,-4.6288,-4.6289,-4.6289,-4.6289,-4.6289,-5.3703,-5.5241,-5.6472,-5.8934,-5.9588,-5.9781,-6.055,-6.005,-5.8934,-5.7253,-5.5549,-5.3818,0.0,0.0,-5.2692,-5.5164,-5.6406,-5.7945,-6.0435,-6.0781,-6.0781,0.0,0.0,0.0,0.0,0.0,0.0,-6.0858,0.0,-6.1243,-6.2062,-6.2139,-6.2512,-6.3281,-6.2551,-6.2139,-6.2101,-6.1243,-6.0781,-6.0781,-6.0781,-6.0781,-6.0781,-6.0781,-6.0781,-6.0781,-6.0781,-6.0781,-6.0781,-6.0781,-6.0781,-6.0781,-6.0781,-6.0781,-6.0781,-6.0781,-6.0781,-6.0781,-6.0781,-6.0781,-6.0781,-6.0781,-6.0204,-5.9358,-5.855,-5.7703,-5.683,-5.5934,-5.5703,-5.5703,-5.5703,-5.5703,-5.5511,-5.4741,-5.4511,-5.4049,-5.2385,-5.1962,-5.1654,-5.0894,-5.075,-5.0712,-5.0712,-5.0712,-5.0442,-4.9586,-4.9433,-4.8817,-4.7154,-4.6201,-4.5671,-4.5671,-4.5633,-4.5594,-4.5594,-4.5594,-4.5594,-4.5594,-4.5594,-4.5594,-4.5594,-4.5718,-4.5783,-4.5783,-4.6006,-4.6087,-4.6089,-4.6245,-4.6289,-4.6289,-4.6289,-4.6289,-5.5588,-5.7434,-5.8858,-6.0127,-6.0473,-6.0358,-5.9935,-5.9204,-5.7934,-5.5626,-5.378,-5.1846,0.0,0.0,0.0,-5.3626,-5.6165,0.0,-6.0512,-6.0781,0.0,-6.0781,0.0,-6.1524,-6.0858,-6.1408,0.0,0.0,-6.1793,-6.187,-6.2101,-6.2666,-6.3089,-6.3269,-6.3089,-6.2704,-6.2101,-6.1243,-6.0781,-6.0781,-6.0781,-6.0781,-6.0781,-6.0781,-6.0781,-6.0781,-6.0781,-6.0781,-6.0781,-6.0781,-6.0781,-6.0781,-6.0781,-6.0781,-6.0781,-6.0781,-6.0781,-6.0781,-6.0781,-6.0781,-6.0781,-6.0781,-6.0204,-5.9358,-5.855,-5.7703,-5.683,-5.5934,-5.5703,-5.5703,-5.5703,-5.5703,-5.5665,-5.5434,-5.4934,-5.4395,-5.3933,-5.2818,-5.1846,-5.1615,-5.1125,-5.0712,-5.0712,-5.0712,-5.0635,-5.0404,-4.9817,-4.9009,-4.7932,-4.7086,-4.6586,-4.6586,-4.597,-4.5594,-4.5594,-4.5594,-4.5594,-4.5594,-4.5594,-4.5594,-4.5594,-4.5718,-4.5783,-4.5783,-4.5886,-4.5995,-4.6089,-4.6142,-4.6201,-4.6289,-4.6289,-4.6289,-5.7511,-5.905,-6.0204,-6.0666,-6.0512,-5.9896,-5.8665,-5.7473,-5.5818,-5.2856,-5.0894,0.0,-4.6394,-4.7663,0.0,0.0,0.0,0.0,-6.0396,-6.0781,-6.0935,0.0,-6.1793,0.0,-6.1897,-6.2358,-6.2627,0.0,-6.2293,-6.2409,-6.3166,-6.3628,-6.4051,-6.4436,-6.4089,-6.3281,-6.2101,-6.1589,-6.1166,-6.0781,-6.0781,-6.0781,-6.0781,-6.0781,-6.0781,-6.0781,0.0,-6.0781,-6.0781,-6.0781,-6.0781,-6.0781,-6.0781,-6.0781,-6.0781,-6.0781,-6.0781,-6.0781,-6.0781,-6.0781,-6.0781,-6.0781,-6.0473,-5.9896,-5.9088,-5.8242,-5.7396,-5.6522,-5.6011,-5.5703,-5.5703,-5.5703,-5.5703,-5.5703,-5.5357,-5.4934,-5.4587,-5.3741,-5.2818,-5.2038,-5.1241,-5.0712,-5.0712,-5.0712,-5.0712,-5.0712,-5.0289,-4.9779,-4.9317,-4.8163,-4.7432,-4.7432,-4.7009,-4.6547,-4.6201,-4.6163,-4.6009,-4.5633,-4.5594,-4.5594,-4.5594,-4.5673,-4.5696,-4.5696,-4.5795,-4.5872,-4.5978,-4.5985,-4.6277,-4.6789,-4.6789,-4.7028,-5.9242,-6.0204,-6.0781,-6.0781,-6.005,-5.8896,-5.7214,-5.5357,-5.301,-4.9586,0.0,-4.5778,-4.3201,-4.4393,-4.6864,-5.0173,0.0,-5.6088,-6.0204,-6.0781,-6.1127,-6.1985,-6.2178,-6.2512,-6.3243,-6.3385,-6.3462,-6.3462,-6.282,-6.3051,-6.4512,-6.4705,-6.5128,-6.5859,-6.5051,-6.3858,-6.2293,-6.2139,-6.1678,-6.0781,-6.0781,-6.0781,-6.0781,-6.0781,-6.0781,-6.0781,0.0,0.0,-6.0781,-6.0781,-6.0781,-6.0781,-6.0781,-6.0781,-6.0781,-6.0781,-6.0781,-6.0781,-6.0781,-6.0781,-6.0781,-6.0781,-6.0781,-6.0627,-5.9742,-5.8934,-5.8127,-5.7253,-5.6368,-5.5703,-5.5703,-5.5703,-5.5703,-5.5703,-5.5703,-5.5511,-5.4818,-5.4587,-5.401,-5.2385,-5.1433,-5.0856,-5.0856,-5.0789,-5.0712,-5.0712,-5.0712,-5.0712,-5.0712,-4.9279,-4.8279,-4.8279,-4.8163,-4.7817,-4.7115,-4.7038,-4.674,-4.5979,-4.5941,-4.5941,-4.5941,-4.5941,-4.5941,-4.5941,-4.6043,-4.6105,-4.6125,-4.6185,-4.6695,-4.756,-4.7569,-4.8026,-6.0281,-6.0666,-6.0781,-6.0781,-5.9627,-5.805,-5.6319,-5.3559,0.0,0.0,-4.5432,-4.397,-4.1439,-4.4085,-4.7548,-5.025,-5.3395,-5.6742,0.0,0.0,-6.1127,0.0,0.0,0.0,0.0,0.0,0.0,0.0,0.0,-6.4282,-6.4589,-6.5282,-6.5743,-6.5897,-6.5051,-6.4128,-6.3089,-6.2435,-6.1678,-6.0781,-6.0781,-6.0781,-6.0781,-6.0781,-6.0781,-6.0781,-6.0781,0.0,-6.0781,-6.0781,-6.0781,-6.0781,-6.0781,-6.0781,-6.0781,-6.0781,-6.0781,-6.0781,-6.0781,-6.0781,-6.0781,-6.0781,-6.0781,-6.0627,-5.9742,-5.8934,-5.8127,-5.7253,-5.6368,-5.5703,-5.5703,-5.5703,-5.5703,-5.5703,-5.5703,-5.5665,-5.5511,-5.4972,-5.4203,-5.3164,-5.2269,-5.1692,-5.1692,-5.1125,-5.0712,-5.0712,-5.0712,-5.0712,-5.0712,-4.9817,-4.9163,-4.9163,-4.8548,-4.8048,-4.7894,-4.7894,-4.7817,-4.7663,-4.7663,-4.7663,-4.7663,-4.7663,-4.7663,-4.7663,-4.7699,-4.7772,-4.7854,-4.7882,-4.8021,-4.831,-4.8437,-4.855,-6.055,-6.0781,-6.0781,-6.0781,-5.9204,-5.6934,-5.4318,0.0,0.0,0.0,-4.2285,-4.12,-3.9508,-4.197,0.0,-4.7634,-5.051,0.0,0.0,0.0,0.0,0.0,0.0,0.0,0.0,0.0,0.0,0.0,0.0,-6.5282,-6.5282,-6.5667,-6.5897,-6.5897,-6.5474,-6.4628,-6.3308,-6.2935,-6.2089,-6.0781,-6.0781,-6.0781,-6.0781,-6.0781,-6.0781,-6.0781,-6.0781,0.0,-6.0781,-6.0781,-6.0781,-6.0781,-6.0781,-6.0781,-6.0781,-6.0781,-6.0781,-6.0781,-6.0781,-6.0781,-6.0781,-6.0781,-6.0781,-6.0704,-6.0281,-5.9588,-5.8742,-5.7896,-5.7049,-5.6291,-5.5818,-5.5703,-5.5703,-5.5703,-5.5703,-5.5703,-5.5703,-5.5049,-5.4395,-5.3972,-5.3164,-5.2423,-5.1962,-5.1587,-5.1164,-5.075,-5.0712,-5.0712,-5.0712,-5.0327,-5.0087,-5.0087,-4.9702,-4.9279,-4.8817,-4.8779,-4.8586,-4.8125,-4.8086,-4.8086,-4.8086,-4.8086,-4.8086,-4.8086,-4.8086,-4.8141,-4.8205,-4.8205,-4.85,-4.9064,-4.9142,-4.9477,-6.055,-6.0781,-6.0781,-6.0781,-5.8742,-5.5857,-5.2654,-4.9,0.0,0.0,-3.9592,-3.8815,-3.8123,0.0,-4.247,0.0,-4.7855,-5.1164,0.0,0.0,0.0,0.0,0.0,0.0,0.0,0.0,0.0,0.0,0.0,0.0,-6.5897,-6.5897,-6.5897,-6.5897,-6.5897,-6.5051,-6.332,-6.3308,-6.2474,-6.0781,-6.0781,-6.0781,-6.0781,-6.0781,-6.0781,-6.0781,-6.0781,0.0,0.0,-6.0781,-6.0781,-6.0781,-6.0781,-6.0781,-6.0781,-6.0781,-6.0781,-6.0781,-6.0781,-6.0781,-6.0781,-6.0781,-6.0781,-6.0781,-6.0781,-6.0204,-5.9358,-5.8742,-5.7819,-5.683,-5.6175,-5.5818,-5.5703,-5.5703,-5.5703,-5.5703,-5.5703,-5.5203,-5.4741,-5.4741,-5.4049,-5.328,-5.2577,-5.2308,-5.1895,-5.1087,-5.0971,-5.0894,-5.0712,-5.0712,-5.0712,-5.0712,-5.0712,-5.0442,-4.974,-4.9663,-4.9394,-4.8702,-4.8663,-4.8663,-4.8663,-4.8663,-4.8663,-4.8663,-4.8663,-4.8663,-4.8663,-4.8663,-4.9071,-4.9823,-4.9868,-5.0342,-6.055,-6.0781,-6.0781,-6.0781,-5.828,-5.5126,-5.25,0.0,0.0,-4.0131,-3.87,-3.8084,-3.8007,-3.9431,0.0,0.0,0.0,-5.1164,0.0,0.0,0.0,0.0,0.0,0.0,0.0,0.0,0.0,0.0,0.0,0.0,-6.5897,-6.5897,-6.5897,-6.5897,-6.5897,-6.5051,-6.332,-6.3308,-6.2474,-6.0781,-6.0781,-6.0781,-6.0781,-6.0781,-6.0781,-6.0781,-6.0781,0.0,0.0,-6.0781,-6.0781,-6.0781,-6.0781,-6.0781,-6.0781,-6.0781,-6.0781,-6.0781,-6.0781,-6.0781,-6.0781,-6.0781,-6.0781,-6.0781,-6.0781,-6.0204,-5.9473,-5.9396,-5.8242,-5.6983,-5.6907,-5.6291,-5.5703,-5.5703,-5.5703,-5.5703,-5.5703,-5.5626,-5.5588,-5.5588,-5.4934,-5.4357,-5.428,-5.3587,-5.2779,-5.1923,-5.1769,-5.1548,-5.0789,-5.0712,-5.0712,-5.0712,-5.0712,-5.0673,-5.0596,-5.0596,-5.0558,-5.0481,-5.0481,-5.0481,-5.0481,-5.0481,-5.0481,-5.0481,-5.0481,-5.0481,-5.0481,-5.0481,-5.0529,-5.0596,-5.0728,-5.0833,-5.9511,-6.0396,-6.0781,-6.0781,-5.7857,-5.4318,-5.1741,0.0,-4.197,-3.9123,-3.743,-3.6815,-3.7815,-3.8546,-4.0239,0.0,0.0,0.0,0.0,0.0,0.0,0.0,0.0,0.0,0.0,0.0,0.0,0.0,0.0,0.0,-6.5897,-6.5897,-6.5897,-6.5897,-6.5897,-6.5051,-6.332,-6.3308,-6.2474,-6.0781,-6.0781,-6.0781,-6.0781,-6.0781,-6.0781,-6.0781,-6.0781,0.0,0.0,-6.0781,-6.0781,-6.0781,-6.0781,-6.0781,-6.0781,-6.0781,-6.0781,-6.0781,-6.0781,-6.0781,-6.0781,-6.0781,-6.0781,-6.0781,-6.0781,-6.055,-6.0165,-5.9665,-5.9011,-5.828,-5.7253,-5.6368,-5.5703,-5.5703,-5.5703,-5.5703,-5.5703,-5.5703,-5.5703,-5.5703,-5.5434,-5.5049,-5.4587,-5.4203,-5.3703,-5.2818,-5.2692,-5.2395,-5.1548,-5.1433,-5.1241,-5.075,-5.0712,-5.0712,-5.0712,-5.0712,-5.0712,-5.0712,-5.0712,-5.0712,-5.0712,-5.0712,-5.0712,-5.0712,-5.0712,-5.0712,-5.0712,-5.0712,-5.0712,-5.0712,-5.0729,-5.0811,-5.8127,-5.9396,-6.0127,-6.0358,-5.7242,-5.3433,0.0,-4.6086,-4.147,-3.8892,-3.7238,-3.6699,-3.8123,-3.8392,-3.9354,0.0,0.0,-4.4855,0.0,0.0,0.0,0.0,0.0,0.0,0.0,0.0,0.0,0.0,0.0,0.0,0.0,-6.5897,-6.5897,-6.5897,-6.5628,-6.4782,-6.3308,-6.3051,-6.2204,-6.0781,-6.0781,-6.0781,-6.0781,-6.0781,-6.0781,-6.0781,0.0,0.0,0.0,-6.0781,-6.0781,-6.0781,-6.0781,-6.0781,-6.0781,-6.0781,-6.0781,-6.0781,-6.0781,-6.0781,-6.0781,-6.0781,-6.0781,-6.0781,-6.0781,-6.0781,-6.0666,-6.005,-5.9511,-5.8819,-5.7368,-5.6368,-5.5703,-5.5703,-5.5703,-5.5703,-5.5703,-5.5703,-5.5703,-5.5703,-5.5703,-5.5511,-5.4934,-5.4857,-5.4587,-5.3703,-5.3587,-5.328,-5.2385,-5.2269,-5.2087,-5.151,-5.1433,-5.1241,-5.075,-5.0712,-5.0712,-5.0712,-5.0712,-5.0712,-5.0712,-5.0712,-5.0712,-5.0712,-5.0712,-5.0712,-5.0712,-5.0712,-5.0712,-5.0712,-5.0712,-5.0767,-5.6577,-5.7654,-5.8511,-5.9319,-5.6357,-5.2549,0.0,-4.6124,-4.2354,-3.9823,-3.8584,-3.8238,-3.913,-3.9284,-3.9854,-4.1546,0.0,0.0,0.0,0.0,0.0,0.0,0.0,0.0,0.0,0.0,0.0,0.0,0.0,0.0,0.0,-6.5897,-6.5897,-6.5897,-6.5051,-6.4205,-6.3308,-6.2512,-6.1678,-6.0781,-6.0781,-6.0781,-6.0781,-6.0781,-6.0781,0.0,0.0,0.0,0.0,-6.0781,-6.0781,-6.0781,-6.0781,-6.0781,-6.0781,-6.0781,-6.0781,-6.0781,-6.0781,-6.0781,-6.0781,-6.0781,-6.0781,-6.0781,-6.0781,-6.0781,-6.0781,-6.0781,-5.9588,-5.8127,-5.7253,-5.6368,-5.5703,-5.5703,-5.5703,-5.5703,-5.5703,-5.5703,-5.5703,-5.5703,-5.5703,-5.5703,-5.5703,-5.5703,-5.5395,-5.4626,-5.4472,-5.4164,-5.3318,-5.3203,-5.3164,-5.3164,-5.3164,-5.251,-5.0827,-5.0712,-5.0712,-5.0712,-5.0712,-5.0712,-5.0712,-5.0712,-5.0712,-5.0712,-5.0712,-5.0712,-5.0712,-5.0712,-5.0712,-5.0712,-5.0712,-5.0712,-5.2241,-5.3741,-5.4741,-5.4385,-5.2433,-5.0087,-4.8125,-4.4855,-4.1662,-3.97,-3.8623,-3.8277,-3.913,-3.9284,-4.0439,-4.3855,-4.4825,0.0,0.0,0.0,0.0,0.0,0.0,0.0,0.0,0.0,0.0,0.0,0.0,0.0,0.0,-6.532,-6.5013,-6.5013,-6.4743,-6.3935,-6.2474,-6.2216,-6.1678,-6.0781,-6.0781,-6.0781,-6.0781,-6.0781,0.0,0.0,0.0,0.0,0.0,-6.0781,-6.0781,-6.0781,-6.0781,-6.0781,-6.0781,-6.0781,-6.0781,-6.0781,-6.0781,-6.0781,-6.0781,-6.0781,-6.0781,-6.0781,-6.0781,-6.0781,-6.0781,-6.0781,-5.9973,-5.8934,-5.8088,-5.7242,-5.6445,-5.5818,-5.5703,-5.5703,-5.5703,-5.5703,-5.5703,-5.5703,-5.5703,-5.5703,-5.5703,-5.5703,-5.5588,-5.5357,-5.5318,-5.5011,-5.4203,-5.4087,-5.3857,-5.328,-5.3203,-5.301,-5.2433,-5.2395,-5.2395,-5.2395,-5.2395,-5.2125,-5.1548,-5.151,-5.151,-5.151,-5.0971,-5.1241,-5.2395,-5.1818,-5.1818,-5.2395,-5.2395,-5.2395,-4.8817,-5.0702,-5.1779,-5.1885,-5.0164,-4.8086,-4.674,-4.3778,-4.0931,-3.9592,-3.8623,-3.8161,-3.87,-3.9092,-4.0169,-4.2786,-4.4017,0.0,0.0,0.0,0.0,0.0,0.0,0.0,0.0,0.0,0.0,0.0,0.0,0.0,0.0,-6.4589,-6.3974,-6.3666,-6.3666,-6.3166,-6.2101,-6.1793,-6.1331,-6.0781,-6.0781,-6.0781,-6.0781,-6.0781,0.0,0.0,0.0,0.0,0.0,-6.0781,-6.0781,-6.0781,-6.0781,-6.0781,-6.0781,-6.0781,-6.0781,-6.0781,-6.0781,-6.0781,-6.0781,-6.0781,-6.0781,-6.0781,-6.0781,-6.0781,-6.0781,-6.0781,-6.0165,-5.9319,-5.8511,-5.7665,-5.6791,-5.5895,-5.5703,-5.5703,-5.5703,-5.5703,-5.5703,-5.5703,-5.5703,-5.5703,-5.5703,-5.5703,-5.5703,-5.5703,-5.5703,-5.5511,-5.5011,-5.4934,-5.4741,-5.4203,-5.4126,-5.4126,-5.4126,-5.3549,-5.3203,-5.3203,-5.3203,-5.2972,-5.2423,-5.2385,-5.2385,-5.2385,-5.1895,-5.2164,-5.3203,-5.2654,-5.2654,-5.3203,-5.3203,-5.3203,0.0,-4.8125,-4.9125,-5.0615,-4.8692,-4.624,-4.5364,-4.2709,0.0,-3.9361,-3.8546,-3.8046,-3.8161,-3.8777,-3.9438,-3.9785,-4.1816,0.0,0.0,0.0,0.0,0.0,0.0,0.0,0.0,0.0,0.0,0.0,0.0,0.0,0.0,-6.3705,-6.2858,-6.2139,-6.2062,-6.2024,-6.2024,-6.1204,-6.0781,-6.0781,-6.0781,-6.0781,-6.0781,-6.0781,0.0,0.0,0.0,0.0,0.0,-6.0781,-6.0781,-6.0781,-6.0781,-6.0781,-6.0781,-6.0781,-6.0781,-6.0781,-6.0781,-6.0781,-6.0781,-6.0781,-6.0781,-6.0781,-6.0781,-6.0781,-6.0781,-6.0781,-6.0204,-5.9396,-5.8588,-5.778,-5.6945,-5.6011,-5.578,-5.578,-5.5703,-5.5703,-5.5703,-5.5703,-5.5703,-5.5703,-5.5703,-5.5703,-5.5703,-5.5703,-5.5703,-5.5703,-5.5703,-5.5703,-5.5703,-5.5703,-5.5703,-5.5703,-5.5703,-5.428,-5.3395,-5.3395,-5.3395,-5.3356,-5.328,-5.328,-5.328,-5.328,-5.3356,-5.3356,-5.328,-5.3356,-5.3395,-5.3395,-5.3395,-5.3395,-4.0623,0.0,-4.2555,-4.2316,-4.2124,-4.1785,0.0,-4.0169,-3.9361,-3.8469,-3.8123,-3.8392,-3.9669,-3.9592,-4.0585,-4.447,-4.5624,-4.7115,0.0,0.0,0.0,0.0,0.0,0.0,0.0,0.0,0.0,0.0,0.0,0.0,0.0,-6.282,-6.2293,-6.2101,-6.1447,-6.1089,-6.1089,-6.0896,-6.0781,-6.0781,-6.0781,-6.0781,-6.0781,-6.0781,0.0,0.0,0.0,0.0,-6.0781,-6.0781,-6.0781,-6.0781,-6.0781,-6.0781,-6.0781,-6.0781,-6.0781,-6.0781,-6.0781,-6.0781,-6.0781,-6.0781,-6.0781,-6.0781,-6.0781,-6.0781,-6.0781,-6.0781,-6.0666,-6.0281,-5.9435,-5.9088,-5.855,-5.706,-5.6676,-5.6522,-5.5818,-5.5703,-5.5703,-5.5703,-5.5703,-5.5703,-5.5703,-5.5703,-5.5703,-5.5703,-5.5703,-5.5703,-5.5703,-5.5703,-5.5703,-5.5703,-5.5703,-5.5703,-5.5703,-5.5318,-5.5126,-5.5126,-5.5126,-5.4857,-5.4203,-5.4203,-5.4203,-5.4203,-5.478,-5.4818,-5.4203,-5.4818,-5.5126,-5.5126,-5.5126,-5.5126,-3.7315,-3.9277,-4.1085,-4.1046,-4.1085,-4.0969,-4.0546,-3.9238,-3.7969,-3.7507,-3.7392,-3.7815,-3.9123,-3.9631,-4.1016,0.0,-4.6163,0.0,0.0,0.0,0.0,0.0,0.0,0.0,0.0,0.0,0.0,0.0,0.0,0.0,0.0,-6.1973,-6.1512,-6.1512,-6.105,-6.0781,-6.0781,-6.0781,-6.0781,-6.0781,-6.0781,-6.0781,-6.0781,-6.0781,-6.0781,0.0,0.0,0.0,-6.0781,-6.0781,-6.0781,-6.0781,-6.0781,-6.0781,-6.0781,-6.0781,-6.0781,-6.0781,-6.0781,-6.0781,-6.0781,-6.0781,-6.0781,-6.0781,-6.0781,-6.0781,-6.0781,-6.0781,-6.0781,-6.0589,-5.9742,-5.9511,-5.9165,-5.7896,-5.7588,-5.7473,-5.6973,-5.6588,-5.6291,-5.6291,-5.5972,-5.5703,-5.5703,-5.5703,-5.5703,-5.5703,-5.5703,-5.5703,-5.5703,-5.5703,-5.5703,-5.5703,-5.5703,-5.5703,-5.5703,-5.5703,-5.5703,-5.5703,-5.5703,-5.5511,-5.5049,-5.5049,-5.5049,-5.5049,-5.5472,-5.5472,-5.5049,-5.5472,-5.5703,-5.5703,-5.5703,-5.5703,-3.5808,-3.8769,-4.1846,-4.2085,-4.1777,-4.1393,-4.1231,0.0,0.0,0.0,0.0,0.0,0.0,-3.9931,0.0,0.0,0.0,0.0,0.0,0.0,0.0,0.0,0.0,0.0,0.0,0.0,0.0,0.0,0.0,0.0,0.0,-6.1204,-6.0781,-6.0781,-6.0781,-6.0781,-6.0781,-6.0781,-6.0781,-6.0781,-6.0781,-6.0781,-6.0781,-6.0781,-6.0781,0.0,0.0,0.0,-6.0781,-6.0781,-6.0781,-6.0781,-6.0781,-6.0781,-6.0781,-6.0781,-6.0781,-6.0781,-6.0781,-6.0781,-6.0781,-6.0781,-6.0781,-6.0781,-6.0781,-6.0781,-6.0781,-6.0781,-6.0781,-6.0627,-5.9896,-5.9704,-5.9473,-5.8665,-5.8473,-5.8434,-5.8319,-5.7703,-5.7176,-5.7022,-5.6406,-5.5857,-5.5703,-5.5703,-5.5703,-5.5703,-5.5703,-5.5703,-5.5703,-5.5703,-5.5703,-5.5703,-5.5703,-5.5703,-5.5703,-5.5703,-5.5703,-5.5703,-5.5703,-5.5703,-5.5703,-5.5703,-5.5703,-5.5703,-5.5703,-5.5703,-5.5703,-5.5703,-5.5703,-5.5703,-5.5703,-5.5703,-3.7238,-3.9662,-4.1154,-3.8385,-3.87,-3.9469,-3.8738,-3.82,0.0,0.0,0.0,0.0,0.0,-4.2585,-4.4739,0.0,0.0,0.0,0.0,0.0,0.0,0.0,0.0,0.0,0.0,0.0,0.0,0.0,0.0,0.0,0.0,0.0,-6.0781,-6.0781,-6.0781,-6.0781,-6.0781,-6.0781,-6.0781,-6.0781,-6.0781,-6.0781,-6.0781,-6.0781,-6.0781,0.0,0.0,-6.0781,-6.0781,-6.0781,-6.0781,-6.0781,-6.0781,-6.0781,-6.0781,-6.0781,-6.0781,-6.0781,-6.0781,-6.0781,-6.0781,-6.0781,-6.0781,-6.0781,-6.0781,-6.0781,-6.0781,-6.0781,-6.0781,-6.0781,-6.0627,-6.0589,-6.0396,-5.9511,-5.9319,-5.9127,-5.8434,-5.8204,-5.7896,-5.7137,-5.6907,-5.656,-5.5818,-5.5703,-5.5703,-5.5703,-5.5703,-5.5703,-5.5703,-5.5703,-5.5703,-5.5703,-5.5703,-5.5703,-5.5703,-5.5703,-5.5703,-5.5703,-5.5703,-5.5703,-5.5703,-5.5703,-5.5703,-5.5703,-5.5703,-5.5703,-5.5703,-5.5703,-5.5703,-5.5703,-5.5703,-5.5703,-3.6021,-3.8188,-3.9853,-3.8274,-3.9975,-4.1777,-4.0931,-4.0046,-3.9361,0.0,0.0,0.0,0.0,0.0,0.0,0.0,0.0,0.0,0.0,0.0,0.0,0.0,0.0,0.0,0.0,0.0,0.0,0.0,0.0,0.0,0.0,0.0,-6.0781,-6.0781,-6.0781,-6.0781,-6.0781,-6.0781,-6.0781,-6.0781,-6.0781,-6.0781,-6.0781,-6.0781,-6.0781,-6.0781,0.0,-6.0781,-6.0781,-6.0781,-6.0781,-6.0781,-6.0781,-6.0781,-6.0781,-6.0781,-6.0781,-6.0781,-6.0781,-6.0781,-6.0781,-6.0781,-6.0781,-6.0781,-6.0781,-6.0781,-6.0781,-6.0781,-6.0781,-6.0781,-6.0781,-6.0781,-6.0704,-6.0281,-6.0204,-6.0089,-5.9742,-5.9281,-5.8819,-5.8434,-5.8011,-5.7434,-5.656,-5.6406,-5.6252,-5.578,-5.5703,-5.5703,-5.5703,-5.5703,-5.5703,-5.5703,-5.5703,-5.5703,-5.5703,-5.5703,-5.5703,-5.5703,-5.5703,-5.5703,-5.5703,-5.5703,-5.5703,-5.5703,-5.5703,-5.5703,-5.5703,-5.5703,-5.5703,-5.5703,-5.5703,-5.5703,-3.5392,-3.7136,-3.8918,-3.9356,-4.1642,-4.3701,-4.3701,-4.247,-4.1554,-4.217,0.0,0.0,0.0,0.0,0.0,0.0,0.0,0.0,0.0,0.0,0.0,0.0,0.0,0.0,0.0,0.0,0.0,0.0,0.0,0.0,0.0,0.0,-6.0781,-6.0781,-6.0781,-6.0781,-6.0781,-6.0781,-6.0781,-6.0781,-6.0781,-6.0781,-6.0781,-6.0781,-6.0781,-6.0781,-6.0781,-6.0781,-6.0781,-6.0781,-6.0781,-6.0781,-6.0781,-6.0781,-6.0781,-6.0781,-6.0781,-6.0781,-6.0781,-6.0781,-6.0781,-6.0781,-6.0781,-6.0781,-6.0781,-6.0781,-6.0781,-6.0781,-6.0781,-6.0781,-6.0781,-6.0781,-6.0781,-6.0781,-6.0781,-6.0781,-6.0781,-6.0281,-5.9742,-5.955,-5.9011,-5.8319,-5.7434,-5.7291,-5.7088,-5.6395,-5.6319,-5.6319,-5.6319,-5.6319,-5.6319,-5.6319,-5.6319,-5.6242,-5.6011,-5.6011,-5.5934,-5.5703,-5.5703,-5.5703,-5.5703,-5.5703,-5.5703,-5.5703,-5.5703,-5.5703,-5.5703,-5.5703,-5.5703,-5.5703,-5.5703,-5.5703,-3.7527,-3.8326,-3.8963,-4.0768,-4.1595,-4.2585,-4.4902,-4.471,-4.4701,-4.7086,-4.824,0.0,0.0,0.0,0.0,0.0,0.0,0.0,0.0,0.0,0.0,0.0,0.0,0.0,0.0,0.0,0.0,0.0,0.0,0.0,0.0,0.0,0.0,-6.0781,-6.0781,-6.0781,-6.0781,-6.0781,-6.0781,-6.0781,-6.0781,-6.0781,-6.0781,-6.0781,-6.0781,-6.0781,-6.0781,-6.0781,-6.0781,-6.0781,-6.0781,-6.0781,-6.0781,-6.0781,-6.0781,-6.0781,-6.0781,-6.0781,-6.0781,-6.0781,-6.0781,-6.0781,-6.0781,-6.0781,-6.0781,-6.0781,-6.0781,-6.0781,-6.0781,-6.0781,-6.0781,-6.0781,-6.0781,-6.0781,-6.0781,-6.0781,-6.0781,-6.0742,-6.0473,-5.9665,-5.9435,-5.9165,-5.8357,-5.8204,-5.8204,-5.8127,-5.8127,-5.8127,-5.8127,-5.8127,-5.8127,-5.8127,-5.8127,-5.778,-5.6983,-5.6907,-5.656,-5.5742,-5.5703,-5.5703,-5.5703,-5.5703,-5.5703,-5.5703,-5.5703,-5.5703,-5.5703,-5.5703,-5.5703,-5.5703,-5.5703,-5.5703,-3.5875,-3.7364,-3.878,-4.004,-4.2269,-4.4547,-4.6086,-4.6971,-4.8048,-5.0038,-5.1164,0.0,0.0,0.0,0.0,0.0,0.0,0.0,0.0,0.0,0.0,0.0,0.0,0.0,0.0,0.0,0.0,0.0,0.0,0.0,0.0,0.0,0.0,-6.0781,-6.0781,-6.0781,-6.0781,-6.0781,-6.0781,-6.0781,-6.0781,-6.0781,-6.0781,-6.0781,-6.0781,-6.0781,-6.0781,-6.0781,-6.0781,-6.0781,-6.0781,-6.0781,-6.0781,-6.0781,-6.0781,-6.0781,-6.0781,-6.0781,-6.0781,-6.0781,-6.0781,-6.0781,-6.0781,-6.0781,-6.0781,-6.0781,-6.0781,-6.0781,-6.0781,-6.0781,-6.0781,-6.0781,-6.0781,-6.0781,-6.0781,-6.0781,-6.0781,-6.0781,-6.0704,-6.0358,-6.0319,-6.005,-5.9204,-5.905,-5.8896,-5.8396,-5.8319,-5.8319,-5.8319,-5.8319,-5.8319,-5.8319,-5.8319,-5.8165,-5.7857,-5.7819,-5.7665,-5.7357,-5.628,-5.5703,-5.5703,-5.5703,-5.5703,-5.5703,-5.5703,-5.5703,-5.5703,-5.5703,-5.5703,-5.5703,-5.5703,-5.5703,-3.548,-3.7006,-3.8856,-4.0295,-4.3051,-4.5927,-4.7683,-4.9163,-5.0818,-5.3049,-5.3549,-5.3933,-5.5088,0.0,0.0,0.0,0.0,0.0,0.0,0.0,0.0,0.0,0.0,0.0,0.0,0.0,0.0,0.0,0.0,0.0,0.0,0.0,0.0,0.0,-6.0781,-6.0781,-6.0781,-6.0781,-6.0781,-6.0781,-6.0781,-6.0781,-6.0781,-6.0781,-6.0781,-6.0781,-6.0781,-6.0781,-6.0781,-6.0781,-6.0781,-6.0781,-6.0781,-6.0781,-6.0781,-6.0781,-6.0781,-6.0781,-6.0781,-6.0781,-6.0781,-6.0781,-6.0781,-6.0781,-6.0781,-6.0781,-6.0781,-6.0781,-6.0781,-6.0781,-6.0781,-6.0781,-6.0781,-6.0781,-6.0781,-6.0781,-6.0781,-6.0781,-6.0781,-6.0781,-6.0781,-6.0589,-6.0012,-5.9896,-5.9704,-5.9165,-5.9088,-5.9088,-5.9088,-5.9088,-5.9088,-5.9088,-5.9088,-5.8973,-5.8704,-5.8665,-5.8588,-5.8319,-5.7165,-5.6395,-5.6126,-5.5857,-5.5703,-5.5703,-5.5703,-5.5703,-5.5703,-5.5703,-5.5703,-5.5703,-5.5703,-5.5703,-3.6982,-3.7633,-3.9169,-4.1998,-4.3948,-4.615,-4.9894,-5.1356,-5.2933,-5.6329,-5.5703,-5.5049,-5.6714,0.0,0.0,0.0,0.0,0.0,0.0,0.0,0.0,0.0,0.0,0.0,0.0,0.0,0.0,0.0,0.0,0.0,0.0,0.0,0.0,0.0,-6.0781,-6.0781,-6.0781,-6.0781,-6.0781,-6.0781,-6.0781,-6.0781,-6.0781,-6.0781,-6.0781,-6.0781,-6.0781,-6.0781,-6.0781,-6.0781,-6.0781,-6.0781,-6.0781,-6.0781,-6.0781,-6.0781,-6.0781,-6.0781,-6.0781,-6.0781,-6.0781,-6.0781,-6.0781,-6.0781,-6.0781,-6.0781,-6.0781,-6.0781,-6.0781,-6.0781,-6.0781,-6.0781,-6.0781,-6.0781,-6.0781,-6.0781,-6.0781,-6.0781,-6.0781,-6.0781,-6.0781,-6.0781,-6.0781,-6.0781,-6.0781,-6.0781,-6.0781,-6.0781,-6.0781,-6.0781,-6.0781,-6.0781,-6.0781,-6.0435,-5.9588,-5.9511,-5.9165,-5.8357,-5.8319,-5.7934,-5.706,-5.6165,-5.5703,-5.5703,-5.5703,-5.5703,-5.5703,-5.5703,-5.5703,-5.5703,-5.5703,-5.5703,-3.5762,-3.7266,-3.9739,-4.2552,0.0,0.0,0.0,-5.401,0.0,0.0,-5.8781,-5.8165,-5.8665,0.0,0.0,0.0,0.0,0.0,0.0,0.0,0.0,0.0,0.0,0.0,0.0,0.0,0.0,0.0,0.0,0.0,0.0,0.0,0.0,0.0,-6.0781,-6.0781,-6.0781,-6.0781,-6.0781,-6.0781,-6.0781,-6.0781,-6.0781,-6.0781,-6.0781,-6.0781,-6.0781,-6.0781,-6.0781,-6.0781,-6.0781,-6.0781,-6.0781,-6.0781,-6.0781,-6.0781,-6.0781,-6.0781,-6.0781,-6.0781,-6.0781,-6.0781,-6.0781,-6.0781,-6.0781,-6.0781,-6.0781,-6.0781,-6.0781,-6.0781,-6.0781,-6.0781,-6.0781,-6.0781,-6.0781,-6.0781,-6.0781,-6.0781,-6.0781,-6.0781,-6.0781,-6.0781,-6.0781,-6.0781,-6.0781,-6.0781,-6.0781,-6.0781,-6.0781,-6.0781,-6.0781,-6.0781,-6.0781,-6.0704,-6.0435,-6.0396,-6.0319,-6.005,-5.9473,-5.8781,-5.7934,-5.7665,-5.7242,-5.6637,-5.6599,-5.6329,-5.5703,-5.5703,-5.5703,-5.5703,-5.5703,-5.5703,-3.711,-3.8968,0.0,-4.4862,-4.7905,-5.1135,-5.5111,0.0,0.0,0.0,0.0,-5.9127,-5.9435,0.0,0.0,0.0,0.0,0.0,0.0,0.0,0.0,0.0,0.0,0.0,0.0,0.0,0.0,0.0,0.0,0.0,0.0,0.0,0.0,0.0,-6.0781,-6.0781,-6.0781,-6.0781,-6.0781,-6.0781,-6.0781,-6.0781,-6.0781,-6.0781,-6.0781,-6.0781,-6.0781,-6.0781,-6.0781,-6.0781,-6.0781,-6.0781,-6.0781,-6.0781,-6.0781,-6.0781,-6.0781,-6.0781,-6.0781,-6.0781,-6.0781,-6.0781,-6.0781,-6.0781,-6.0781,-6.0781,-6.0781,-6.0781,-6.0781,-6.0781,-6.0781,-6.0781,-6.0781,-6.0781,-6.0781,-6.0781,-6.0781,-6.0781,-6.0781,-6.0781,-6.0781,-6.0781,-6.0781,-6.0781,-6.0781,-6.0781,-6.0781,-6.0781,-6.0781,-6.0781,-6.0781,-6.0781,-6.0781,-6.0781,-6.0781,-6.0781,-6.0781,-6.0781,-6.0319,-5.9781,-5.9319,-5.8665,-5.805,-5.7511,-5.7511,-5.7242,-5.6742,-5.6742,-5.6549,-5.6214,-5.6214,-5.6011,-3.9564,-4.1523,-4.4133,-4.7919,-4.9768,0.0,-5.6913,-5.87,-5.9557,-6.0541,0.0,0.0,0.0,0.0,0.0,0.0,0.0,0.0,0.0,0.0,0.0,0.0,0.0,0.0,0.0,0.0,0.0,0.0,0.0,0.0,0.0,0.0,0.0,0.0,-6.0781,-6.0781,-6.0781,-6.0781,-6.0781,0.0,-6.0781,-6.0781,-6.0781,-6.0781,-6.0781,-6.0781,-6.0781,-6.0781,-6.0781,-6.0781,-6.0781,-6.0781,-6.0781,-6.0781,-6.0781,-6.0781,-6.0781,-6.0781,-6.0781,-6.0781,-6.0781,-6.0781,-6.0781,-6.0781,-6.0781,-6.0781,-6.0781,-6.0781,-6.0781,-6.0781,-6.0781,-6.0781,-6.0781,-6.0781,-6.0781,-6.0781,-6.0781,-6.0781,-6.0781,-6.0781,-6.0781,-6.0781,-6.0781,-6.0781,-6.0781,-6.0781,-6.0781,-6.0781,-6.0781,-6.0781,-6.0781,-6.0781,-6.0781,-6.0781,-6.0781,-6.0781,-6.0781,-6.0781,-6.0781,-6.0781,-6.0781,-5.9358,-5.8511,-5.8396,-5.8396,-5.8357,-5.8319,-5.8319,-5.7896,-5.7137,-5.7137,-5.6714,-3.6431,-3.9254,0.0,0.0,-5.1813,-5.5257,-5.6072,-5.6914,-5.803,-5.9869,0.0,0.0,0.0,0.0,0.0,0.0,0.0,0.0,0.0,0.0,0.0,0.0,0.0,0.0,0.0,0.0,0.0,0.0,0.0,0.0,0.0,0.0,0.0,-6.0781,-6.0781,-6.0781,-6.0781,-6.0781,-6.0781,0.0,-6.0781,-6.0781,-6.0781,-6.0781,-6.0781,-6.0781,-6.0781,-6.0781,-6.0781,-6.0781,-6.0781,-6.0781,-6.0781,-6.0781,-6.0781,-6.0781,-6.0781,-6.0781,-6.0781,-6.0781,-6.0781,-6.0781,-6.0781,-6.0781,-6.0781,-6.0781,-6.0781,-6.0781,-6.0781,-6.0781,-6.0781,-6.0781,-6.0781,-6.0781,-6.0781,-6.0781,-6.0781,-6.0781,-6.0781,-6.0781,-6.0781,-6.0781,-6.0781,-6.0781,-6.0781,-6.0781,-6.0781,-6.0781,-6.0781,-6.0781,-6.0781,-6.0781,-6.0781,-6.0781,-6.0781,-6.0781,-6.0781,-6.0781,-6.0781,-6.0781,-6.0781,-6.0435,-5.9935,-5.9281,-5.9242,-5.8934,-5.8319,-5.8319,-5.8204,-5.8011,-5.8011,-5.7934,-3.7037,0.0,0.0,-4.8652,0.0,-5.5724,-5.5686,-5.6026,-5.6706,0.0,0.0,0.0,0.0,0.0,0.0,0.0,0.0,0.0,0.0,0.0,0.0,0.0,0.0,0.0,0.0,0.0,0.0,0.0,0.0,0.0,0.0,-6.0165,-6.0012,-5.9627,-5.9588,-5.9781,-6.0165,-6.0165,-6.0396,-6.0781,-6.0781,-6.0781,-6.0781,-6.0781,-6.0781,-6.0781,-6.0781,-6.0781,-6.0781,-6.0781,-6.0781,-6.0781,-6.0781,-6.0781,-6.0781,-6.0781,-6.0781,-6.0781,-6.0781,-6.0781,-6.0781,-6.0781,-6.0781,-6.0781,-6.0781,-6.0781,-6.0781,-6.0781,-6.0781,-6.0781,-6.0781,-6.0781,-6.0781,-6.0781,-6.0781,-6.0781,-6.0781,-6.0781,-6.0781,-6.0781,-6.0781,-6.0781,-6.0781,-6.0781,-6.0781,-6.0781,-6.0781,-6.0781,-6.0781,-6.0781,-6.0781,-6.0781,-6.0781,-6.0781,-6.0781,-6.0781,-6.0781,-6.0781,-6.0781,-6.0781,-6.0781,-6.0781,-6.0589,-6.0127,-6.0127,-5.9935,-5.9511,-5.9511,-5.9281,-5.8858,-5.8858,-5.8665,-3.7331,0.0,-4.462,-4.9801,-5.2846,0.0,-5.5142,-5.5225,0.0,0.0,0.0,0.0,0.0,0.0,0.0,0.0,0.0,0.0,0.0,0.0,0.0,0.0,0.0,0.0,0.0,0.0,0.0,0.0,0.0,0.0,-5.9319,-5.9281,-5.8973,-5.8319,-5.8319,-5.8627,-5.9281,-5.9281,-5.9665,-6.0358,-6.0358,-6.0435,-6.0589,-6.0589,-6.0666,-6.0781,-6.0781,-6.0781,-6.0781,-6.0781,-6.0781,-6.0781,-6.0781,-6.0781,-6.0781,-6.0781,-6.0781,-6.0781,-6.0781,-6.0781,-6.0781,-6.0781,-6.0781,-6.0781,-6.0781,-6.0781,-6.0781,-6.0781,-6.0781,-6.0781,-6.0781,-6.0781,-6.0781,-6.0781,-6.0781,-6.0781,-6.0781,-6.0781,-6.0781,-6.0781,-6.0781,-6.0781,-6.0781,-6.0781,-6.0781,-6.0781,-6.0781,-6.0781,-6.0781,-6.0781,-6.0781,-6.0781,-6.0781,-6.0781,-6.0781,-6.0781,-6.0781,-6.0781,-6.0781,-6.0781,-6.0781,-6.0781,-6.0781,-6.0781,-6.0781,-6.0781,-6.0781,-6.0781,-6.0435,-5.9704,-5.9704,-5.9358,0.0,0.0,-4.4101,0.0,-5.138,-5.3051,0.0,0.0,0.0,0.0,0.0,0.0,0.0,0.0,0.0,0.0,0.0,0.0,0.0,0.0,0.0,0.0,0.0,0.0,0.0,0.0,0.0,0.0,0.0,0.0,-5.8473,-5.8473,-5.8396,-5.8319,-5.8319,-5.8357,-5.8473,-5.8473,-5.8511,-5.8627,-5.8627,-5.9011,-5.9665,-5.9665,-6.0089,-6.0781,-6.0781,-6.0781,-6.0781,-6.0781,-6.0781,-6.0781,-6.0781,-6.0781,-6.0781,-6.0781,-6.0781,-6.0781,-6.0781,-6.0781,-6.0781,-6.0781,-6.0781,-6.0781,-6.0781,-6.0781,-6.0781,-6.0781,-6.0781,-6.0781,-6.0781,-6.0781,-6.0781,-6.0781,-6.0781,-6.0781,-6.0781,-6.0781,-6.0781,-6.0781,-6.0781,-6.0781,-6.0781,-6.0781,-6.0781,-6.0781,-6.0781,-6.0781,-6.0781,-6.0781,-6.0781,-6.0781,-6.0781,-6.0781,-6.0781,-6.0781,-6.0781,-6.0781,-6.0781,-6.0781,-6.0781,-6.0781,-6.0781,-6.0781,-6.0781,-6.0781,-6.0781,-6.0781,-6.0742,-6.0627,-6.0627,-6.055,-3.4064,-3.8685,-4.3578,0.0,-4.9895,-5.108,0.0,0.0,0.0,0.0,0.0,0.0,0.0,0.0,0.0,0.0,0.0,0.0,0.0,0.0,0.0,0.0,0.0,0.0,0.0,0.0,0.0,0.0,0.0,-5.8088,-5.7588,-5.755,-5.7357,-5.6857,-5.6857,-5.7088,-5.755,-5.755,-5.7819,-5.8319,-5.8028,-5.8232,-5.8846,-5.9063,-5.9779,-6.0781,-6.0781,-6.0781,-6.0781,-6.0781,-6.0781,-6.0781,-6.0781,-6.0781,-6.0781,-6.0781,-6.0781,-6.0781,-6.0781,-6.0781,-6.0781,-6.0781,-6.0781,-6.0781,-6.0781,-6.0781,-6.0781,-6.0781,-6.0781,-6.0781,-6.0781,-6.0781,-6.0781,-6.0781,-6.061,-6.0482,-6.0746,-6.0781,-6.0781,-6.0781,-6.0781,-6.0781,-6.0781,-6.0781,-6.0781,-6.0781,-6.0781,-6.0781,-6.0781,-6.0781,-6.0781,-6.0781,-6.0781,-6.0781,-6.0781,-6.0781,-6.0781,-6.0781,-6.0781,-6.0781,-6.0781,-6.0781,-6.0781,-6.0781,-6.0781,-6.0781,-6.0781,-6.0781,-6.0781,-6.0781,-6.0781,-6.0781,0.0,0.0,-4.1222,-4.5663,-4.7719,0.0,0.0,0.0,0.0,0.0,0.0,0.0,0.0,0.0,0.0,0.0,0.0,0.0,0.0,0.0,0.0,0.0,0.0,0.0,0.0,0.0,0.0,0.0,0.0,-5.7046,-5.6407,-5.6441,-5.6218,-5.5554,-5.5671,-5.6011,-5.6676,-5.6676,-5.6939,-5.7474,-5.711,-5.7199,-5.7659,-5.7943,-5.8734,-5.9869,-6.0529,-6.0781,-6.0781,-6.0781,-6.0781,-6.0781,-6.0781,-6.0781,-6.0781,-6.0781,-6.0781,-6.0781,-6.0781,-6.0734,-6.0634,-6.0757,-6.0734,-6.0622,-6.0622,-6.0622,-6.061,-6.0482,-6.0456,-6.0456,-6.0456,-6.0456,-6.0456,-6.0456,-6.0175,-6.0074,-6.0508,-6.0734,-6.0781,-6.0781,-6.0781,-6.0781,-6.0781,-6.0781,-6.0781,-6.0781,-6.0781,-6.0781,-6.0781,-6.0781,-6.0781,-6.0781,-6.0781,-6.0781,-6.0781,-6.0781,-6.0781,-6.0781,-6.0781,-6.0781,-6.0781,-6.0781,-6.0781,-6.0781,-6.0781,-6.0781,-6.0781,-6.0781,-6.0781,-6.0781,-6.0781,-6.0781,0.0,-3.2963,0.0,-4.1222,0.0,0.0,0.0,0.0,0.0,0.0,0.0,0.0,0.0,0.0,0.0,0.0,0.0,0.0,0.0,0.0,0.0,0.0,0.0,0.0,0.0,0.0,0.0,0.0,0.0,-5.4661,-5.4623,-5.4995,-5.5172,-5.5134,-5.5481,-5.5703,-5.578,-5.578,-5.5608,-5.5248,-5.5235,-5.5437,-5.5826,-5.5848,-5.6355,-5.7343,-5.9766,-6.0781,-6.0781,-6.0781,-6.0781,-6.0781,-6.0781,-6.0781,-6.0781,-6.0781,-6.0781,-6.0781,-6.0781,-6.0508,-6.0203,-6.0647,-6.0495,-6.0146,-6.0146,-6.0146,-6.0021,-5.9592,-5.9458,-5.9458,-5.9458,-5.9458,-5.9458,-5.9458,-5.9441,-5.9559,-6.0059,-6.0482,-6.0781,-6.0781,-6.0781,-6.0781,-6.0781,-6.0781,-6.0781,-6.0781,-6.0781,-6.0781,-6.0781,-6.0781,-6.0781,-6.0781,-6.0781,-6.0781,-6.0781,-6.0781,-6.0781,-6.0781,-6.0781,-6.0781,-6.0781,-6.0781,-6.0781,-6.0781,-6.0781,-6.0781,-6.0781,-6.0781,-6.0781,-6.0781,-6.0781,-6.0781,0.0,0.0,0.0,0.0,0.0,0.0,0.0,0.0,0.0,0.0,0.0,0.0,0.0,0.0,0.0,0.0,0.0,0.0,0.0,0.0,0.0,0.0,0.0,0.0,0.0,0.0,0.0,0.0,0.0,0.0,-5.4484,-5.4625,-5.4701,-5.4701,-5.4848,-5.4919,-5.4919,-5.4919,-5.4848,-5.4701,-5.4398,-5.4522,-5.4937,-5.5197,-5.5607,-5.6247,-5.7734,-5.8638,-5.9117,-5.9117,-5.946,-5.9901,-5.9901,-5.9901,-5.9901,-5.9901,-5.9901,-5.9901,-5.9901,-5.9808,-5.9696,-5.9855,-5.9792,-5.9642,-5.9642,-5.9642,-5.9609,-5.9441,-5.9389,-5.9389,-5.9389,-5.9389,-5.9319,-5.9009,-5.9176,-5.9354,-5.923,-5.9559,-5.9901,-5.9901,-6.0146,-6.0351,-6.0351,-6.061,-6.0781,-6.0781,-6.0781,-6.0781,-6.0781,-6.0781,-6.0781,-6.0781,-6.0781,-6.0781,-6.0781,-6.0781,-6.0781,-6.0781,-6.0781,-6.0781,-6.0781,-6.0781,-6.0781,-6.0781,-6.0781,-6.0781,-6.0781,-6.0781,-6.0781,-6.0781,-6.0781,-6.0781,-2.7714,0.0,0.0,0.0,0.0,0.0,0.0,0.0,0.0,0.0,0.0,0.0,0.0,0.0,0.0,0.0,0.0,0.0,0.0,0.0,0.0,0.0,0.0,0.0,0.0,0.0,0.0,0.0,0.0,0.0,-5.4068,-5.417,-5.4338,-5.4522,-5.4484,-5.4484,-5.4484,-5.4484,-5.4404,-5.4255,-5.3941,-5.3869,-5.405,-5.4353,-5.4615,-5.489,-5.5469,-5.6509,-5.78,-5.8102,-5.8501,-5.9029,-5.9276,-5.9389,-5.9389,-5.9389,-5.9389,-5.9389,-5.9389,-5.9284,-5.9176,-5.9337,-5.9284,-5.9158,-5.9158,-5.9158,-5.9121,-5.899,-5.8932,-5.8932,-5.8932,-5.8932,-5.8855,-5.8528,-5.8713,-5.8835,-5.8528,-5.8971,-5.9389,-5.9389,-5.9642,-5.987,-5.987,-6.0231,-6.0585,-6.0585,-6.0722,-6.0781,-6.0781,-6.0781,-6.0781,-6.0781,-6.0781,-6.0781,-6.0781,-6.0781,-6.0781,-6.0781,-6.0781,-6.0781,-6.0781,-6.0781,-6.0781,-6.0781,-6.0781,-6.0781,-6.0781,-6.0781,-6.0781,-6.0781,-6.0781,-6.0781,0.0,0.0,0.0,0.0,0.0,0.0,0.0,0.0,0.0,0.0,0.0,0.0,0.0,0.0,0.0,0.0,0.0,0.0,0.0,0.0,0.0,0.0,0.0,0.0,0.0,0.0,0.0,0.0,0.0,-5.3151,-5.3151,-5.3491,-5.394,-5.4398,-5.4452,-5.4452,-5.4452,-5.4452,-5.4221,-5.3758,-5.3758,-5.3585,-5.3203,-5.3203,-5.3203,-5.3203,-5.3203,-5.4592,-5.6953,-5.7767,-5.8127,-5.824,-5.9015,-5.9354,-5.9354,-5.9354,-5.9354,-5.9354,-5.9354,-5.9047,-5.8736,-5.9194,-5.9065,-5.8693,-5.8693,-5.8693,-5.857,-5.8142,-5.7997,-5.7997,-5.7997,-5.7997,-5.7997,-5.7997,-5.7997,-5.7997,-5.7997,-5.8733,-5.9354,-5.9354,-5.9372,-5.9372,-5.9372,-5.9776,-6.0089,-6.0089,-6.0482,-6.0769,-6.0769,-6.0781,-6.0781,-6.0781,-6.0781,-6.0781,-6.0781,-6.0781,-6.0781,-6.0781,-6.0781,-6.0781,-6.0781,-6.0781,-6.0781,-6.0781,-6.0781,-6.0781,-6.0781,-6.0781,-6.0781,-6.0781,-6.0781,-6.0781,-2.6796,0.0,0.0,0.0,0.0,0.0,0.0,0.0,0.0,0.0,0.0,0.0,0.0,0.0,0.0,0.0,0.0,0.0,0.0,0.0,0.0,0.0,0.0,0.0,0.0,0.0,0.0,0.0,-5.1353,-5.1463,-5.1463,-5.1567,-5.1947,-5.2675,-5.2694,-5.2971,-5.3563,-5.3563,-5.3484,-5.3359,-5.3359,-5.3334,-5.3203,-5.3203,-5.3203,-5.3203,-5.3203,-5.3596,-5.4306,-5.5101,-5.6138,-5.7191,-5.7413,-5.7857,-5.8375,-5.8375,-5.8375,-5.8375,-5.8375,-5.8304,-5.8194,-5.8369,-5.8304,-5.8172,-5.8172,-5.8172,-5.8186,-5.8042,-5.7997,-5.7997,-5.7997,-5.7997,-5.7997,-5.7997,-5.7997,-5.7997,-5.7997,-5.8194,-5.8375,-5.8375,-5.8673,-5.8894,-5.8894,-5.9266,-5.9576,-5.9576,-5.9977,-6.0297,-6.0297,-6.0597,-6.0781,-6.0781,-6.0781,-6.0781,-6.0781,-6.0781,-6.0781,-6.0781,-6.0781,-6.0781,-6.0781,-6.0781,-6.0781,-6.0781,-6.0781,-6.0781,-6.0781,-6.0781,-6.0781,-6.0781,-6.0781,-6.0781,-2.884,-3.021,0.0,0.0,0.0,0.0,0.0,0.0,0.0,0.0,0.0,0.0,0.0,0.0,0.0,0.0,0.0,0.0,0.0,0.0,0.0,0.0,0.0,0.0,0.0,0.0,0.0,-5.0288,-5.0618,-5.0802,-5.0802,-5.0802,-5.1022,-5.1463,-5.183,-5.2234,-5.2711,-5.3041,-5.3203,-5.3203,-5.3203,-5.3203,-5.3203,-5.3203,-5.3203,-5.3203,-5.3203,-5.3203,-5.3261,-5.3702,-5.4656,-5.5868,-5.6565,-5.7079,-5.7556,-5.7886,-5.7997,-5.7997,-5.7997,-5.7997,-5.7997,-5.7997,-5.7997,-5.7997,-5.7997,-5.7997,-5.7997,-5.7997,-5.7997,-5.7997,-5.7997,-5.7997,-5.7997,-5.7997,-5.7997,-5.7997,-5.7997,-5.7997,-5.7997,-5.7997,-5.8216,-5.8397,-5.8397,-5.8796,-5.9102,-5.9102,-5.9492,-5.9823,-5.9823,-6.0203,-6.0508,-6.0508,-6.0671,-6.0781,-6.0781,-6.0781,-6.0781,-6.0781,-6.0781,-6.0781,-6.0781,-6.0781,-6.0781,-6.0781,-6.0781,-6.0781,-6.0781,-6.0781,-6.0781,-6.0781,-6.0781,-6.0781,-3.1678,-3.2522,-3.4284,0.0,0.0,0.0,-3.7588,-3.6633,0.0,0.0,0.0,0.0,0.0,0.0,0.0,0.0,0.0,0.0,0.0,0.0,0.0,0.0,0.0,0.0,0.0,-4.8857,-4.9353,-4.9463,-5.0105,-5.0508,-5.0508,-5.0508,-5.0582,-5.0655,-5.1353,-5.1756,-5.1867,-5.2674,-5.3078,-5.3078,-5.3188,-5.3203,-5.3203,-5.3203,-5.3203,-5.3203,-5.3203,-5.3203,-5.3203,-5.3203,-5.3665,-5.4546,-5.6088,-5.6712,-5.6895,-5.7703,-5.7997,-5.7997,-5.7997,-5.7997,-5.7997,-5.7997,-5.7997,-5.7997,-5.7997,-5.7997,-5.7997,-5.7997,-5.7997,-5.7997,-5.7997,-5.7997,-5.7997,-5.7997,-5.7997,-5.7997,-5.7997,-5.7997,-5.7997,-5.7997,-5.7997,-5.7997,-5.7997,-5.8332,-5.8632,-5.8632,-5.9028,-5.9319,-5.9319,-5.9744,-6.0006,-6.0006,-6.0456,-6.0734,-6.0734,-6.0769,-6.0781,-6.0781,-6.0781,-6.0781,-6.0781,-6.0781,-6.0781,-6.0781,-6.0781,-6.0781,-6.0781,-6.0781,-6.0781,-6.0781,-6.0781,-6.0781,0.0,0.0,0.0,0.0,0.0,0.0,0.0,-3.2082,0.0,0.0,0.0,0.0,0.0,0.0,0.0,0.0,0.0,0.0,0.0,0.0,0.0,0.0,0.0,0.0,0.0,-4.748,-4.7846,-4.8489,-4.871,-4.8783,-4.8783,-4.8783,-4.9114,-4.9831,-4.9978,-5.0362,-5.1022,-5.183,-5.2234,-5.2234,-5.2894,-5.3203,-5.3203,-5.3203,-5.3203,-5.3203,-5.3203,-5.3203,-5.3203,-5.3203,-5.3665,-5.4509,-5.5464,-5.6235,-5.6895,-5.7703,-5.7997,-5.7997,-5.7997,-5.7997,-5.7997,-5.7997,-5.7997,-5.7997,-5.7997,-5.7997,-5.7997,-5.7997,-5.7997,-5.7997,-5.7997,-5.7997,-5.7997,-5.7997,-5.7997,-5.7997,-5.7997,-5.7997,-5.7997,-5.7997,-5.7997,-5.7997,-5.7997,-5.8051,-5.8142,-5.8142,-5.8528,-5.8835,-5.8835,-5.923,-5.9526,-5.9526,-5.9946,-6.0255,-6.0255,-6.0597,-6.0781,-6.0781,-6.0781,-6.0781,-6.0781,-6.0781,-6.0781,-6.0781,-6.0781,-6.0781,-6.0781,-6.0781,-6.0781,-6.0781,-6.0781,-6.0781,0.0,0.0,0.0,-3.6743,0.0,0.0,0.0,0.0,0.0,0.0,0.0,0.0,0.0,0.0,0.0,0.0,0.0,0.0,0.0,0.0,0.0,0.0,0.0,0.0,0.0,-4.6507,-4.6819,-4.7626,-4.77,-4.7883,-4.8269,-4.8306,-4.8489,-4.893,-4.939,-4.9794,-5.0178,-5.0986,-5.161,-5.1977,-5.2417,-5.2821,-5.3203,-5.3203,-5.3203,-5.3203,-5.3203,-5.3203,-5.3203,-5.3203,-5.3445,-5.3922,-5.5133,-5.5831,-5.6345,-5.7556,-5.7997,-5.7997,-5.7997,-5.7997,-5.7997,-5.7997,-5.7997,-5.7997,-5.7997,-5.7997,-5.7997,-5.7997,-5.7997,-5.7997,-5.7997,-5.7997,-5.7997,-5.7997,-5.7997,-5.7997,-5.7997,-5.7997,-5.7997,-5.7997,-5.7997,-5.7997,-5.7997,-5.7997,-5.7997,-5.7997,-5.8172,-5.8332,-5.8332,-5.8756,-5.9065,-5.9065,-5.9458,-5.976,-5.976,-6.0175,-6.0456,-6.0456,-6.0659,-6.0781,-6.0781,-6.0781,-6.0781,-6.0781,-6.0781,-6.0781,-6.0781,-6.0781,-6.0781,-6.0781,-6.0781,-6.0781,0.0,0.0,0.0,0.0,0.0,-3.7477,0.0,0.0,0.0,0.0,0.0,0.0,0.0,0.0,0.0,0.0,0.0,0.0,0.0,0.0,0.0,0.0,0.0,0.0,0.0,-4.5296,-4.5663,-4.6782,-4.6452,-4.6709,-4.8012,-4.8086,-4.8159,-4.8306,-4.8967,-4.9353,-4.9353,-5.0141,-5.0875,-5.1536,-5.183,-5.2344,-5.2968,-5.3151,-5.3203,-5.3203,-5.3203,-5.3203,-5.3203,-5.3203,-5.3203,-5.3371,-5.495,-5.5596,-5.5816,-5.7409,-5.7997,-5.7997,-5.7997,-5.7997,-5.7997,-5.7997,-5.7997,-5.7997,-5.7997,-5.7997,-5.7997,-5.7997,-5.7997,-5.7997,-5.7997,-5.7997,-5.7997,-5.7997,-5.7997,-5.7997,-5.7997,-5.7997,-5.7997,-5.7997,-5.7997,-5.7997,-5.7997,-5.7997,-5.7997,-5.7997,-5.7997,-5.7997,-5.7997,-5.8348,-5.8549,-5.8549,-5.899,-5.9266,-5.9266,-5.9712,-5.9991,-6.0103,-6.0469,-6.0722,-6.0781,-6.0781,-6.0781,-6.0781,-6.0781,-6.0781,-6.0781,-6.0781,-6.0781,-6.0781,-6.0781,-6.0781,0.0,0.0,0.0,0.0,-4.1295,0.0,0.0,0.0,0.0,0.0,0.0,0.0,0.0,0.0,0.0,0.0,0.0,0.0,0.0,0.0,0.0,0.0,0.0,0.0,0.0,0.0,-4.3644,-4.5883,-4.4048,-4.4121,-4.7076,-4.7223,-4.7553,-4.8269,-4.8416,-4.8453,-4.8453,-4.9297,-4.9794,-4.9904,-5.1336,-5.205,-5.216,-5.2858,-5.3203,-5.3203,-5.3203,-5.3203,-5.3203,-5.3203,-5.3203,-5.3371,-5.495,-5.5596,-5.5816,-5.7409,-5.7997,-5.7997,-5.7997,-5.7997,-5.7997,-5.7997,-5.7997,-5.7997,-5.7997,-5.7997,-5.7997,-5.7997,-5.7997,-5.7997,-5.7997,-5.7997,-5.7997,-5.7997,-5.7997,-5.7997,-5.7997,-5.7997,-5.7997,-5.7997,-5.7997,-5.7997,-5.7997,-5.7997,-5.7997,-5.7997,-5.7997,-5.7997,-5.7997,-5.8065,-5.8074,-5.8074,-5.8524,-5.8776,-5.8776,-5.9194,-5.968,-6.0089,-6.0146,-6.0365,-6.0769,-6.0781,-6.0781,-6.0781,-6.0781,-6.0781,-6.0781,-6.0781,-6.0781,-6.0781,-6.0781,-6.0781,0.0,0.0,0.0,0.0,0.0,0.0,-3.5862,0.0,-3.4284,0.0,0.0,0.0,0.0,0.0,0.0,0.0,0.0,0.0,0.0,0.0,0.0,0.0,0.0,0.0,0.0,0.0,0.0,0.0,0.0,-4.2783,-4.5572,-4.6599,-4.7259,-4.759,-4.8086,-4.8306,-4.8306,-4.8673,-4.9077,-4.961,-5.0271,-5.1116,-5.2013,-5.2344,-5.2747,-5.3203,-5.3203,-5.3203,-5.3203,-5.3203,-5.3203,-5.3314,-5.4473,-5.517,-5.5743,-5.6895,-5.7593,-5.7997,-5.7997,-5.7997,-5.7997,-5.7997,-5.7997,-5.7997,-5.7997,-5.7997,-5.7997,-5.7997,-5.7997,-5.7997,-5.7997,-5.7997,-5.7997,-5.7997,-5.7997,-5.7997,-5.7997,-5.7997,-5.7997,-5.7997,-5.7997,-5.7997,-5.7997,-5.7997,-5.7997,-5.7997,-5.7997,-5.7997,-5.7997,-5.7997,-5.7997,-5.7997,-5.8186,-5.8304,-5.8304,-5.8696,-5.9103,-5.9266,-5.9808,-6.0175,-6.0378,-6.0378,-6.0283,-5.9977,-6.0269,-6.0378,-6.0378,-6.0659,-6.0781,-6.0781,-6.0781,-6.0781,-4.6581,0.0,0.0,0.0,0.0,0.0,0.0,0.0,0.0,0.0,0.0,0.0,0.0,0.0,0.0,0.0,0.0,0.0,0.0,0.0,0.0,0.0,0.0,0.0,0.0,0.0,0.0,0.0,0.0,0.0,-4.4195,-4.548,-4.6415,-4.7076,-4.7663,-4.8067,-4.8306,-4.8306,-4.8636,-4.9243,-4.95,-5.0345,-5.1683,-5.1903,-5.2454,-5.3203,-5.3203,-5.3203,-5.3203,-5.3203,-5.3203,-5.324,-5.3849,-5.4693,-5.5684,-5.6492,-5.7299,-5.7997,-5.7997,-5.7997,-5.7997,-5.7997,-5.7997,-5.7997,-5.7997,-5.7997,-5.7997,-5.7997,-5.7997,-5.7997,-5.7997,-5.7997,-5.7997,-5.7997,-5.7997,-5.7997,-5.7997,-5.7997,-5.7997,-5.7997,-5.7997,-5.7997,-5.7997,-5.7997,-5.7997,-5.7997,-5.7997,-5.7997,-5.7997,-5.7997,-5.7997,-5.7997,-5.7997,-5.7997,-5.7997,-5.8326,-5.8549,-5.8713,-5.9458,-5.9901,-5.9901,-5.9901,-5.976,-5.9407,-5.9706,-5.9901,-5.9901,-6.0365,-6.061,-6.0622,-6.0746,-6.0781,0.0,0.0,0.0,-4.1589,0.0,0.0,0.0,0.0,-3.7199,0.0,0.0,0.0,0.0,0.0,0.0,-3.4137,0.0,0.0,0.0,0.0,0.0,0.0,0.0,0.0,0.0,0.0,0.0,0.0,0.0,0.0,-4.3258,-4.3588,-4.4672,-4.7039,-4.7113,-4.7516,-4.8306,-4.8306,-4.8306,-4.8343,-4.9187,-5.0031,-5.0875,-5.1646,-5.2454,-5.3203,-5.3203,-5.3203,-5.3203,-5.3203,-5.3203,-5.3203,-5.3203,-5.4216,-5.5684,-5.6492,-5.7299,-5.7997,-5.7997,-5.7997,-5.7997,-5.7997,-5.7997,-5.7997,-5.7997,-5.7997,-5.7997,-5.7997,-5.7997,-5.7997,-5.7997,-5.7997,-5.7997,-5.7997,-5.7997,-5.7997,-5.7997,-5.7997,-5.7997,-5.7997,-5.7997,-5.7997,-5.7997,-5.7997,-5.7997,-5.7997,-5.7997,-5.7997,-5.7997,-5.7997,-5.7997,-5.7997,-5.7997,-5.7997,-5.7997,-5.802,-5.8194,-5.8673,-5.9139,-5.9407,-5.9407,-5.9407,-5.9407,-5.9389,-5.9407,-5.9407,-5.9424,-5.9885,-6.0132,-6.0132,-6.0597,-6.0781,0.0,0.0,-4.9884,-4.4452,0.0,0.0,0.0,0.0,0.0,0.0,0.0,0.0,0.0,0.0,-3.6868,-3.4894,-3.438,0.0,0.0,0.0,0.0,0.0,0.0,0.0,0.0,0.0,0.0,0.0,0.0,0.0,0.0,-4.3424,-4.4929,-4.625,-4.6819,-4.748,-4.8306,-4.8306,-4.8306,-4.8306,-4.86,-4.9444,-5.0802,-5.1096,-5.194,-5.3203,-5.3203,-5.3203,-5.3203,-5.3203,-5.3203,-5.3203,-5.3203,-5.4179,-5.5633,-5.5904,-5.6859,-5.7997,-5.7997,-5.7997,-5.7997,-5.7997,-5.7997,-5.7997,-5.7997,-5.7997,-5.7997,-5.7997,-5.7997,-5.7997,-5.7997,-5.7997,-5.7997,-5.7997,-5.7997,-5.7997,-5.7997,-5.7997,-5.7997,-5.7997,-5.7997,-5.7997,-5.7997,-5.7997,-5.7997,-5.7997,-5.7997,-5.7997,-5.7997,-5.7997,-5.7997,-5.7997,-5.7997,-5.7997,-5.7997,-5.7997,-5.8172,-5.8673,-5.8855,-5.8951,-5.8951,-5.8951,-5.8776,-5.8482,-5.8776,-5.8951,-5.8951,-5.9407,-5.9625,-5.9625,-5.9808,-6.0189,-5.0692,-5.0949,0.0,-4.6214,-4.4745,0.0,-3.8982,0.0,0.0,0.0,0.0,0.0,0.0,0.0,0.0,-3.6582,-3.4908,0.0,0.0,0.0,0.0,0.0,0.0,0.0,0.0,0.0,-3.3463,-3.4894,0.0,0.0,0.0,0.0,-4.4195,-4.5847,-4.6397,-4.7186,-4.8306,-4.8306,-4.8306,-4.8306,-4.8306,-4.9187,-5.0802,-5.0802,-5.1683,-5.3203,-5.3203,-5.3203,-5.3203,-5.3203,-5.3203,-5.3203,-5.3203,-5.4179,-5.5596,-5.5596,-5.6602,-5.7997,-5.7997,-5.7997,-5.7997,-5.7997,-5.7997,-5.7997,-5.7997,-5.7997,-5.7997,-5.7997,-5.7997,-5.7997,-5.7997,-5.7997,-5.7997,-5.7997,-5.7997,-5.7997,-5.7997,-5.7997,-5.7997,-5.7997,-5.7997,-5.7997,-5.7997,-5.7997,-5.7997,-5.7997,-5.7997,-5.7997,-5.7997,-5.7997,-5.7997,-5.7997,-5.7997,-5.7997,-5.7997,-5.7997,-5.8142,-5.8439,-5.8461,-5.8461,-5.8461,-5.8461,-5.8326,-5.7997,-5.8304,-5.8461,-5.8461,-5.8932,-5.9139,-5.9139,-5.9139,-5.9559]},{"header":{"parameterUnit":"m.s-1","parameterCategory":1,"la1":30.6,"la2":29.2853,"lo1":-89.7004,"lo2":-87.6739,"dy":0.0162,"dx":0.0183,"nx":112,"ny":82,"refTime":"2025-05-16T12:00:00:Z","depth":0,"parameterNumber":3,"parameterNumberName":"V-component_of_WINDS"},"data":[0.0,0.0,0.0,0.0,0.0,0.0,0.0,0.0,0.0,0.0,0.0,0.0,0.0,0.0,0.0,0.0,0.0,0.0,0.0,0.0,0.0,0.0,0.0,0.0,0.0,0.0,0.0,0.0,0.0,0.0,0.0,0.0,0.0,0.0,0.0,0.0,0.0,0.0,0.0,0.0,0.0,0.0,0.0,0.0,0.0,0.0,0.0,0.0,0.0,0.0,0.0,0.0,0.0,0.0,0.0,0.0,0.0,0.0,0.0,0.0,0.0,0.0,0.0,0.0,0.0,0.0,0.0,0.0,0.0,0.0,0.0,0.0,0.0,0.0,0.0,0.0,0.0,0.0,0.0,0.0,0.0,0.0,0.0,0.0,0.0,0.0,0.0,0.0,0.0,0.0,0.0,0.0,0.0,0.0,0.0,0.0,0.0,0.0,0.0,0.0,0.0,0.0,0.0,0.0,0.0,0.0,0.0,0.0,0.0,0.0,0.0,0.0,0.0,0.0,0.0,0.0,0.0,0.0,0.0,0.0,0.0,0.0,0.0,0.0,0.0,0.0,0.0,0.0,0.0,0.0,0.0,0.0,0.0,0.0,0.0,0.0,0.0,0.0,0.0,0.0,0.0,0.0,0.0,0.0,0.0,0.0,0.0,0.0,0.0,0.0,0.0,0.0,0.0,0.0,0.0,0.0,0.0,0.0,0.0,0.0,0.0,0.0,0.0,0.0,0.0,0.0,0.0,0.0,0.0,0.0,0.0,0.0,0.0,0.0,0.0,0.0,0.0,0.0,0.0,0.0,0.0,0.0,0.0,0.0,0.0,0.0,0.0,0.0,0.0,0.0,0.0,0.0,0.0,0.0,0.0,0.0,0.0,0.0,0.0,0.0,0.0,0.0,0.0,0.0,0.0,0.0,0.0,0.0,0.0,0.0,0.0,0.0,0.0,0.0,0.0,0.0,0.0,0.0,0.0,0.0,0.0,0.0,0.0,0.0,0.0,0.0,0.0,0.0,0.0,0.0,0.0,0.0,0.0,0.0,0.0,0.0,0.0,0.0,0.0,0.0,0.0,0.0,0.0,0.0,0.0,0.0,0.0,0.0,0.0,0.0,0.0,0.0,0.0,0.0,0.0,0.0,0.0,0.0,0.0,0.0,0.0,0.0,0.0,0.0,0.0,0.0,0.0,0.0,0.0,0.0,0.0,0.0,0.0,0.0,0.0,0.0,0.0,0.0,0.0,0.0,0.0,0.0,0.0,0.0,0.0,0.0,0.0,0.0,0.0,0.0,0.0,0.0,0.0,0.0,0.0,0.0,0.0,0.0,0.0,0.0,0.0,0.0,0.0,0.0,0.0,0.0,0.0,0.0,0.0,0.0,0.0,0.0,0.0,0.0,0.0,0.0,0.0,0.0,0.0,0.0,0.0,0.0,0.0,0.0,0.0,0.0,0.0,0.0,0.0,0.0,0.0,0.0,0.0,0.0,0.0,0.0,0.0,0.0,0.0,0.0,0.0,0.0,0.0,0.0,0.0,0.0,0.0,0.0,0.0,0.0,0.0,0.0,0.0,0.0,0.0,0.0,0.0,0.0,0.0,0.0,0.0,0.0,0.0,0.0,0.0,0.0,0.0,0.0,0.0,0.0,0.0,0.0,0.0,0.0,0.0,0.0,0.0,0.0,0.0,0.0,0.0,0.0,0.0,0.0,0.0,0.0,0.0,0.0,0.0,0.0,0.0,0.0,0.0,0.0,0.0,0.0,0.0,0.0,0.0,0.0,0.0,0.0,0.0,0.0,0.0,0.0,0.0,0.0,0.0,0.0,0.0,0.0,0.0,0.0,0.0,0.0,0.0,0.0,0.0,0.0,0.0,0.0,0.0,0.0,0.0,0.0,0.0,0.0,0.0,0.0,0.0,0.0,0.0,0.0,0.0,0.0,0.0,0.0,0.0,0.0,0.0,0.0,0.0,0.0,0.0,0.0,0.0,0.0,0.0,0.0,0.0,0.0,0.0,0.0,0.0,0.0,0.0,0.0,0.0,0.0,0.0,0.0,0.0,0.0,0.0,0.0,0.0,0.0,0.0,0.0,0.0,0.0,0.0,0.0,0.0,0.0,0.0,0.0,0.0,0.0,0.0,0.0,0.0,0.0,0.0,0.0,0.0,0.0,0.0,0.0,0.0,0.0,0.0,0.0,0.0,0.0,0.0,0.0,0.0,0.0,0.0,0.0,0.0,0.0,0.0,0.0,0.0,0.0,0.0,0.0,0.0,0.0,0.0,0.0,0.0,0.0,0.0,0.0,0.0,0.0,0.0,0.0,0.0,0.0,0.0,0.0,0.0,0.0,0.0,0.0,0.0,0.0,0.0,0.0,0.0,0.0,0.0,0.0,0.0,0.0,0.0,0.0,0.0,0.0,0.0,0.0,0.0,0.0,0.0,0.0,0.0,0.0,0.0,0.0,0.0,0.0,0.0,0.0,0.0,0.0,0.0,0.0,0.0,0.0,0.0,0.0,0.0,0.0,0.0,0.0,0.0,0.0,0.0,0.0,0.0,0.0,0.0,0.0,0.0,0.0,0.0,0.0,0.0,0.0,0.0,0.0,0.0,0.0,0.0,0.0,0.0,0.0,0.0,0.0,0.0,0.0,0.0,0.0,0.0,0.0,0.0,0.0,0.0,0.0,0.0,0.0,0.0,0.0,0.0,0.0,0.0,0.0,0.0,0.0,0.0,0.0,0.0,0.0,0.0,0.0,0.0,0.0,0.0,0.0,0.0,0.0,0.0,0.0,0.0,0.0,0.0,0.0,0.0,0.0,0.0,0.0,0.0,0.0,0.0,0.0,0.0,0.0,0.0,0.0,0.0,0.0,0.0,0.0,0.0,0.0,0.0,0.0,0.0,0.0,0.0,0.0,0.0,0.0,0.0,0.0,0.0,0.0,0.0,0.0,0.0,0.0,0.0,0.0,0.0,0.0,0.0,0.0,0.0,0.0,0.0,0.0,0.0,0.0,0.0,0.0,0.0,0.0,0.0,0.0,0.0,0.0,0.0,0.0,0.0,0.0,0.0,0.0,0.0,0.0,0.0,0.0,0.0,0.0,0.0,0.0,0.0,0.0,0.0,0.0,0.0,0.0,0.0,0.0,0.0,0.0,0.0,0.0,0.0,0.0,0.0,0.0,0.0,0.0,0.0,0.0,0.0,0.0,0.0,0.0,0.0,0.0,0.0,0.0,0.0,0.0,0.0,0.0,0.0,0.0,0.0,0.0,0.0,0.0,0.0,0.0,0.0,0.0,0.0,0.0,0.0,0.0,0.0,0.0,0.0,0.0,0.0,0.0,0.0,0.0,0.0,0.0,0.0,0.0,0.0,0.0,0.0,0.0,0.0,0.0,0.0,0.0,0.0,0.0,0.0,0.0,0.0,0.0,0.0,0.0,0.0,0.0,0.0,0.0,0.0,0.0,0.0,0.0,0.0,0.0,0.0,0.0,0.0,0.0,0.0,0.0,0.0,0.0,0.0,0.0,0.0,0.0,0.0,0.0,0.0,0.0,0.0,0.0,0.0,0.0,0.0,0.0,0.0,0.0,0.0,0.0,0.0,0.0,0.0,0.0,0.0,0.0,0.0,0.0,0.0,0.0,0.0,0.0,0.0,0.0,0.0,0.0,0.0,0.0,0.0,0.0,0.0,0.0,0.0,0.0,0.0,0.0,0.0,0.0,0.0,0.0,0.0,0.0,0.0,0.0,0.0,0.0,0.0,0.0,0.0,0.0,0.0,0.0,0.0,0.0,0.0,0.0,0.0,0.0,0.0,0.0,0.0,0.0,0.0,0.0,0.0,0.0,0.0,0.0,0.0,0.0,0.0,0.0,0.0,0.0,0.0,0.0,0.0,0.0,0.0,0.0,0.0,0.0,0.0,0.0,0.0,0.0,0.0,0.0,0.0,0.0,0.0,0.0,0.0,0.0,0.0,0.0,0.0,0.0,0.0,0.0,0.0,0.0,0.0,0.0,0.0,0.0,0.0,0.0,0.0,0.0,0.0,0.0,0.0,0.0,0.0,0.0,0.0,0.0,0.0,0.0,0.0,0.0,0.0,0.0,0.0,0.0,0.0,0.0,0.0,0.0,0.0,0.0,0.0,0.0,0.0,0.0,0.0,0.0,0.0,0.0,0.0,0.0,0.0,0.0,0.0,0.0,0.0,0.0,0.0,0.0,0.0,0.0,0.0,0.0,0.0,0.0,0.0,0.0,0.0,0.0,0.0,0.0,0.0,0.0,0.0,0.0,0.0,0.0,0.0,0.0,0.0,0.0,0.0,0.0,0.0,0.0,0.0,0.0,0.0,0.0,0.0,0.0,0.0,0.0,0.0,0.0,0.0,0.0,0.0,0.0,0.0,0.0,0.0,0.0,0.0,0.0,0.0,0.0,0.0,0.0,0.0,0.0,0.0,0.0,0.0,0.0,0.0,0.0,0.0,0.0,0.0,0.0,0.0,0.0,0.0,0.0,0.0,0.0,0.0,0.0,0.0,0.0,0.0,0.0,0.0,0.0,0.0,0.0,0.0,0.0,0.0,0.0,0.0,0.0,0.0,0.0,0.0,0.0,0.0,0.0,0.0,0.0,0.0,0.0,0.0,0.0,0.0,0.0,0.0,0.0,0.0,0.0,0.0,0.0,0.0,0.0,0.0,0.0,0.0,0.0,0.0,0.0,0.0,0.0,0.0,0.0,0.0,0.0,0.0,0.0,0.0,0.0,0.0,0.0,0.0,0.0,0.0,0.0,0.0,0.0,0.0,0.0,0.0,0.0,0.0,0.0,0.0,0.0,0.0,0.0,0.0,0.0,0.0,0.0,0.0,0.0,0.0,0.0,0.0,0.0,0.0,0.0,0.0,0.0,0.0,0.0,0.0,0.0,0.0,0.0,0.0,0.0,0.0,0.0,0.0,0.0,0.0,0.0,0.0,0.0,0.0,0.0,0.0,0.0,0.0,0.0,0.0,0.0,0.0,0.0,0.0,0.0,0.0,0.0,0.0,0.0,0.0,0.0,0.0,0.0,0.0,0.0,0.0,0.0,0.0,0.0,0.0,0.0,0.0,0.0,0.0,0.0,0.0,0.0,0.0,0.0,0.0,0.0,0.0,0.0,0.0,0.0,0.0,0.0,0.0,0.0,0.0,0.0,0.0,0.0,0.0,0.0,0.0,0.0,0.0,0.0,0.0,0.0,0.0,0.0,0.0,0.0,0.0,0.0,0.0,0.0,0.0,0.0,0.0,0.0,0.0,0.0,0.0,0.0,0.0,0.0,0.0,0.0,0.0,0.0,0.0,0.0,0.0,0.0,0.0,0.0,0.0,0.0,0.0,0.0,0.0,0.0,0.0,0.0,0.0,0.0,0.0,0.0,0.0,0.0,0.0,0.0,0.0,0.0,0.0,0.0,0.0,0.0,0.0,0.0,0.0,0.0,0.0,0.0,0.0,0.0,0.0,0.0,0.0,0.0,0.0,0.0,0.0,0.0,0.0,0.0,0.0,0.0,0.0,0.0,0.0,0.0,0.0,0.0,0.0,0.0,0.0,0.0,0.0,0.0,0.0,0.0,0.0,0.0,0.0,0.0,0.0,0.0,0.0,0.0,0.0,0.0,0.0,0.0,0.0,0.0,0.0,0.0,0.0,0.0,0.0,0.0,0.0,0.0,0.0,0.0,0.0,0.0,0.0,0.0,0.0,0.0,0.0,0.0,0.0,0.0,0.0,0.0,0.0,0.0,0.0,0.0,0.0,0.0,0.0,0.0,0.0,0.0,0.0,0.0,0.0,0.0,0.0,0.0,0.0,0.0,0.0,0.0,0.0,0.0,0.0,0.0,0.0,0.0,0.0,0.0,0.0,0.0,0.0,0.0,0.0,0.0,0.0,0.0,0.0,0.0,0.0,0.0,0.0,0.0,0.0,0.0,0.0,0.0,0.0,0.0,0.0,0.0,0.0,0.0,0.0,0.0,0.0,0.0,0.0,0.0,0.0,0.0,0.0,0.0,0.0,0.0,0.0,0.0,0.0,0.0,0.0,0.0,0.0,0.0,0.0,0.0,0.0,0.0,0.0,0.0,0.0,0.0,0.0,0.0,0.0,0.0,0.0,0.0,0.0,0.0,0.0,0.0,0.0,0.0,0.0,0.0,0.0,0.0,0.0,0.0,0.0,0.0,0.0,0.0,0.0,0.0,0.0,0.0,0.0,0.0,0.0,0.0,0.0,0.0,0.0,0.0,0.0,0.0,0.0,0.0,0.0,0.0,0.0,0.0,0.0,0.0,0.0,0.0,0.0,0.0,0.0,0.0,0.0,0.0,0.0,0.0,0.0,0.0,0.0,0.0,0.0,0.0,0.0,0.0,0.0,0.0,0.0,0.0,0.0,0.0,0.0,0.0,0.0,0.0,0.0,0.0,0.0,0.0,0.0,0.0,0.0,0.0,0.0,0.0,0.0,0.0,0.0,0.0,0.0,0.0,0.0,0.0,0.0,0.0,0.0,0.0,0.0,0.0,0.0,0.0,0.0,0.0,0.0,0.0,0.0,0.0,0.0,0.0,0.0,0.0,0.0,0.0,0.0,0.0,0.0,0.0,0.0,0.0,0.0,0.0,0.0,0.0,0.0,0.0,0.0,0.0,0.0,0.0,0.0,0.0,0.0,0.0,0.0,0.0,0.0,0.0,0.0,0.0,0.0,0.0,0.0,0.0,0.0,0.0,0.0,0.0,0.0,0.0,0.0,0.0,0.0,0.0,0.0,0.0,0.0,0.0,0.0,0.0,0.0,0.0,0.0,0.0,0.0,0.0,0.0,0.0,0.0,0.0,0.0,0.0,0.0,0.0,0.0,0.0,0.0,0.0,0.0,0.0,0.0,0.0,0.0,0.0,0.0,0.0,0.0,0.0,0.0,0.0,0.0,0.0,0.0,0.0,0.0,0.0,0.0,0.0,0.0,0.0,0.0,0.0,0.0,0.0,0.0,0.0,0.0,0.0,0.0,0.0,0.0,0.0,0.0,0.0,0.5152,0.4237,0.0,0.0,0.0,0.0,0.0,0.0,0.0,0.0,0.0,0.0,0.0,0.0,0.0,0.2133,0.1375,0.1376,0.0944,0.0,0.0,0.0,0.0,0.0,0.0,0.0,0.0,0.0,0.0,0.0,0.0,0.0,0.0,0.0,0.0,0.0,0.0,0.0,0.0,0.0,0.0,0.0,0.0,0.0,0.0,0.0,0.0,0.0,0.0,0.0,0.0,0.0,0.0,0.0,0.0,0.0,0.0,0.0,0.0,0.0,0.0,0.0,0.0,0.0,0.0,0.0,0.0,0.0,0.0,0.0,0.0,0.0,0.0,0.0,0.0,0.0,0.0,0.0,0.0,0.0,0.0,0.0,0.0,0.0,0.0,0.0,0.0,0.0,0.0,0.0,0.0,0.0,0.0,0.0,0.0,0.0,0.0,0.0,0.0,0.0,0.0,0.0,0.0,0.0,0.0,0.0,0.0,0.0,0.0,0.0,0.0,0.5515,0.5738,0.5422,0.5815,0.5837,0.0,0.0,0.0,0.0,0.0,0.0,0.0,0.0,0.0,0.394,0.3112,0.2486,0.2117,0.118,0.0462,0.0,0.0,0.0,0.0,0.0,0.0,0.0,0.0,0.0,0.0,0.0,0.0,0.0,0.0,0.0,0.0,0.0,0.0,0.0,0.0,0.0,0.0,0.0,0.0,0.0,0.0,0.0,0.0,0.0,0.0,0.0,0.0,0.0,0.0,0.0,0.0,0.0,0.0,0.0,0.0,0.0,0.0,0.0,0.0,0.0,0.0,0.0,0.0,0.0,0.0,0.0,0.0,0.0,0.0,0.0,0.0,0.0,0.0,0.0,0.0,0.0,0.0,0.0,0.0,0.0,0.0,0.0,0.0,0.0,0.0,0.0,0.0,0.0,0.0,0.0,0.0,0.0,0.0,0.0,0.0,0.0,0.0,0.0,0.0,0.0,0.0,0.0,0.0,0.0,0.0,0.0,0.0,0.5983,0.6291,0.6255,0.6595,0.6646,0.0,0.0,0.0,0.0,0.0,0.0,0.561,0.5081,0.4874,0.5033,0.3853,0.3248,0.323,0.1993,0.1356,0.1371,0.1387,0.1148,0.071,0.071,0.0452,0.0,0.0,0.0,0.0,0.0,0.0,0.0,0.0,0.0,0.0,0.0,0.0,0.0,0.0,0.0,0.0,0.0,0.0,0.0,0.0,0.0,0.0,0.0,0.0,0.0,0.0,0.0,0.0,0.0,0.0,0.0,0.0,0.0,0.0,0.0,0.0,0.0,0.0,0.0,0.0,0.0,0.0,0.0,0.0,0.0,0.0,0.0,0.0,0.0,0.0,0.0,0.0,0.0,0.0,0.0,0.0,0.0,0.0,0.0,0.0,0.0,0.0,0.0,0.0,0.0,0.0,0.0,0.0,0.0,0.0,0.0,0.0,0.0,0.0,0.0,0.0,0.0,0.0,0.0,0.0,0.0,0.0,0.0,0.0,0.0,0.0,0.0,0.0,0.5753,0.6867,0.0,0.0,0.0,0.0,0.6027,0.5209,0.487,0.5131,0.5085,0.5159,0.5364,0.5287,0.5247,0.5251,0.5143,0.5124,0.5127,0.5131,0.4237,0.2573,0.2573,0.1609,0.0,0.0,0.0,0.0,0.0,0.0,0.0,0.0,0.0,0.0,0.0,0.0,0.0,0.0,0.0,0.0,0.0,0.0,0.0,0.0,0.0,0.0,0.0,0.0,0.0,0.0,0.0,0.0,0.0,0.0,0.0,0.0,0.0,0.0,0.0,0.0,0.0,0.0,0.0,0.0,0.0,0.0,0.0,0.0,0.0,0.0,0.0,0.0,0.0,0.0,0.0,0.0,0.0,0.0,0.0,0.0,0.0,0.0,0.0,0.0,0.0,0.0,0.0,0.0,0.0,0.0,0.0,0.0,0.0,0.0,0.0,0.0,0.0,0.0,0.0,0.0,0.0,0.0,0.0,0.0,0.0,0.0,0.0,0.0,0.0,0.0,0.0,0.0,0.7189,0.7894,0.0,0.7478,0.7579,0.7743,0.788,0.7768,0.7817,0.8119,0.8179,0.8334,0.8522,0.7478,0.6395,0.5232,0.4196,0.3107,0.1919,0.1919,0.1588,0.0993,0.0993,0.0596,0.0,0.0,0.0,0.0,0.0,0.0,0.0,0.0,0.0,0.0,0.0,0.0,0.0,0.0,0.0,0.0,0.0,0.0,0.0,0.0,0.0,0.0,0.0,0.0,0.0,0.0,0.0,0.0,0.0,0.0,0.0,0.0,0.0,0.0,0.0,0.0,0.0,0.0,0.0,0.0,0.0,0.0,0.0,0.0,0.0,0.0,0.0,0.0,0.0,0.0,0.0,0.0,0.0,0.0,0.0,0.0,0.0,0.0,0.0,0.0,0.0,0.0,0.0,0.0,0.0,0.0,0.0,0.0,0.0,0.0,0.0,0.0,0.0,0.0,0.0,0.0,0.0,0.0,0.0,0.0,0.0,0.0,0.0,0.0,0.0,0.0,0.0,0.7957,0.8251,0.8737,0.8954,0.8798,0.8967,0.915,0.9242,0.9496,0.9734,1.0032,1.0141,1.027,1.0426,0.9335,0.8191,0.6999,0.5335,0.3887,0.2684,0.2081,0.1478,0.0941,0.0941,0.0606,0.0,0.0,0.0,0.0,0.0,0.0,0.0,0.0,0.0,0.0,0.0,0.0,0.0,0.0,0.0,0.0,0.0,0.0,0.0,0.0,0.0,0.0,0.0,0.0,0.0,0.0,0.0,0.0,0.0,0.0,0.0,0.0,0.0,0.0,0.0,0.0,0.0,0.0,0.0,0.0,0.0,0.0,0.0,0.0,0.0,0.0,0.0,0.0,0.0,0.0,0.0,0.0,0.0,0.0,0.0,0.0,0.0,0.0,0.0,0.0,0.0,0.0,0.0,0.0,0.0,0.0,0.0,0.0,0.0,0.0,0.0,0.0,0.0,0.0,0.0,0.0,0.0,0.0,0.0,0.0,0.0,0.0,0.0,0.0,0.0,0.7597,0.8018,0.8465,0.8851,0.9354,0.9571,0.9422,0.9666,0.9897,0.999,1.0066,1.0258,1.048,1.05,1.0568,1.0717,1.0717,1.0651,1.0651,0.8906,0.7964,0.7897,0.6231,0.4492,0.2752,0.2752,0.1814,0.0067,0.0067,0.0067,0.0,0.0,0.0,0.0,0.0,0.0,0.0,0.0,0.0,0.0,0.0,0.0,0.0,0.0,0.0,0.0,0.0,0.0,0.0,0.0,0.0,0.0,0.0,0.0,0.0,0.0,0.0,0.0,0.0,0.0,0.0,0.0,0.0,0.0,0.0,0.0,0.0,0.0,0.0,0.0,0.0,0.0,0.0,0.0,0.0,0.0,0.0,0.0,0.0,0.0,0.0,0.0,0.0,0.0,0.0,0.0,0.0,0.0,0.0,0.0,0.0,0.0,0.0,0.0,0.0,0.0,0.0,0.0,0.0,0.0,0.0,0.0,0.0,0.0,0.0,0.0,0.0,0.0,0.0,0.0,0.0,0.7909,0.8065,0.8655,0.9164,0.9395,0.9822,1.008,1.0039,1.0107,1.0215,1.0358,1.0371,1.0453,1.0649,1.0656,1.0677,1.0717,1.0717,1.0047,0.8767,0.823,0.7365,0.6097,0.5629,0.5162,0.4626,0.4626,0.3689,0.1947,0.1947,0.121,0.0,0.0,0.0,0.0,0.0,0.0,0.0,0.0,0.0,0.0,0.0,0.0,0.0,0.0,0.0,0.0,0.0,0.0,0.0,0.0,0.0,0.0,0.0,0.0,0.0,0.0,0.0,0.0,0.0,0.0,0.0,0.0,0.0,0.0,0.0,0.0,0.0,0.0,0.0,0.0,0.0,0.0,0.0,0.0,0.0,0.0,0.0,0.0,0.0,0.0,0.0,0.0,0.0,0.0,0.0,0.0,0.0,0.0,0.0,0.0,0.0,0.0,0.0,0.0,0.0,0.0,0.0,0.0,0.0,0.0,0.0,0.0,0.0,0.0,0.0,0.0,0.0,0.0,0.0,0.0,0.8228,0.8676,0.8893,0.9239,0.9598,0.9937,1.0209,1.0392,1.046,1.0466,1.05,1.0582,1.0588,1.0629,1.0717,1.0717,1.0717,1.0717,1.0717,1.018,0.9172,0.8368,0.7498,0.6498,0.5763,0.5429,0.5429,0.5429,0.4827,0.0,0.3823,0.3222,0.2283,0.2283,0.2283,0.0,0.0,0.0,0.0,0.0,0.0,0.0,0.0,0.0,0.0,0.0,0.0,0.0,0.0,0.0,0.0,0.0,0.0,0.0,0.0,0.0,0.0,0.0,0.0,0.0,0.0,0.0,0.0,0.0,0.0,0.0,0.0,0.0,0.0,0.0,0.0,0.0,0.0,0.0,0.0,0.0,0.0,0.0,0.0,0.0,0.0,0.0,0.0,0.0,0.0,0.0,0.0,0.0,0.0,0.0,0.0,0.0,0.0,0.0,0.0,0.0,0.0,0.0,0.0,0.0,0.0,0.0,0.0,0.0,0.0,0.0,0.0,0.0,0.0,0.0,0.0,0.0,0.8967,0.9523,0.9849,0.9788,0.9903,1.0432,1.0507,1.0568,1.0704,1.0717,1.0717,1.0717,1.0717,1.0717,1.0717,0.0,0.0,0.0,0.0,1.0717,1.0717,0.9105,0.8296,0.8296,0.6765,0.603,0.603,0.603,0.5897,0.5696,0.5696,0.5563,0.5429,0.5429,0.5429,0.5088,0.1656,0.0198,0.0,0.0,0.0,0.0,0.0,0.0,0.0,0.0,0.0,0.0,0.0,0.0,0.0,0.0,0.0,0.0,0.0,0.0,0.0,0.0,0.0,0.0,0.0,0.0,0.0,0.0,0.0,0.0,0.0,0.0,0.0,0.0,0.0,0.0,0.0,0.0,0.0,0.0,0.0,0.0,0.0,0.0,0.0,0.0,0.0,0.0,0.0,0.0,0.0,0.0,0.0,0.0,0.0,0.0,0.0,0.0,0.0,0.0,0.0,0.0,0.0,0.0,0.0,0.0,0.0,0.0,0.0,0.0,0.0,0.0,0.0,0.0,0.0,0.9022,0.9395,0.9754,1.029,1.0337,1.0365,1.048,1.0602,1.0683,1.0717,1.0717,1.0717,1.0717,1.0717,1.0717,1.0717,1.0717,0.0,1.0717,1.0717,1.0717,1.0717,1.0319,1.018,1.018,0.0,0.0,0.9649,0.9649,0.8906,0.7498,0.7498,0.6698,0.5429,0.5429,0.5429,0.5162,0.3011,0.1263,0.0,0.0,0.0,0.0,0.0,0.0,0.0,0.0,0.0,0.0,0.0,0.0,0.0,0.0,0.0,0.0,0.0,0.0,0.0,0.0,0.0,0.0,0.0,0.0,0.0,0.0,0.0,0.0,0.0,0.0,0.0,0.0,0.0,0.0,0.0,0.0,0.0,0.0,0.0,0.0,0.0,0.0,0.0,0.0,0.0,0.0,0.0,0.0,0.0,0.0,0.0,0.0,0.0,0.0,0.0,0.0,0.0,0.0,0.0,0.0,0.0,0.0,0.0,0.0,0.0,0.0,0.0,0.0,0.0,0.7461,0.8147,0.0,0.8845,0.9657,0.9842,1.0073,1.0439,1.0561,1.0609,1.0609,1.067,1.0717,1.0717,1.0717,1.0717,1.0717,1.0717,1.0717,1.0717,1.0717,1.0717,1.0717,1.0717,1.0717,1.0717,1.0717,1.0717,1.0717,1.0717,1.0717,1.0717,1.0717,1.018,0.9371,0.9371,0.8839,0.8035,0.8035,0.7503,0.6631,0.5693,0.3739,0.1263,0.033,0.0,0.0,0.0,0.0,0.0,0.0,0.0,0.0,0.0,0.0,0.0,0.0,0.0,0.0,0.0,0.0,0.0,0.0,0.0,0.0,0.0,0.0,0.0,0.0,0.0,0.0,0.0,0.0,0.0,0.0,0.0,0.0,0.0,0.0,0.0,0.0,0.0,0.0,0.0,0.0,0.0,0.0,0.0,0.0,0.0,0.0,0.0,0.0,0.0,0.0,0.0,0.0,0.0,0.0,0.0,0.0,0.0,0.0,0.0,0.0,0.0,0.0,0.0,0.0,0.7136,0.7584,0.7909,0.8309,0.8898,0.9211,0.9562,1.0108,1.0243,1.0371,1.0514,1.0643,1.0717,1.0717,1.0717,1.0717,1.0717,1.0717,1.0717,1.0717,1.0717,1.0717,1.0717,1.0717,1.0717,1.0717,1.0717,1.0717,1.0717,1.0717,1.0717,1.0717,1.0717,1.0717,1.0717,1.0717,1.0717,1.0717,1.0717,1.0717,1.0717,1.0717,0.9842,0.8501,0.8163,0.6227,0.3483,0.1725,0.1055,0.105,0.1026,0.1014,0.0944,0.0622,0.0495,0.0432,0.0123,0.0,0.0,0.0,0.0,0.0,0.0,0.0,0.0,0.0,0.0,0.0,0.0,0.0,0.0,0.0,0.0,0.0,0.0,0.0,0.0,0.0,0.0202,0.0404,0.0404,0.0605,0.0656,0.0404,0.0404,0.0404,0.0404,0.0149,0.0099,0.0395,0.0146,0.0,0.0,0.0,0.0,0.0,0.0,0.0,0.0,0.0,0.0,0.0,0.0,0.0,0.6464,0.645,0.6539,0.6876,0.6984,0.724,0.0,0.0,0.8221,0.8669,0.9001,0.9273,0.9496,0.9761,1.0059,1.0392,1.046,1.0521,1.067,1.0711,1.0717,1.0717,1.0717,1.0717,1.0717,1.0717,1.0717,1.0717,1.0717,1.0717,1.0717,1.0717,1.0717,1.0717,1.0717,1.0717,1.0717,1.0717,1.0717,1.0717,1.0717,1.0717,1.0717,1.0717,1.0717,1.0717,1.0717,1.0717,1.0717,1.0717,1.0585,1.0246,0.8634,0.7764,0.7227,0.5419,0.4778,0.4788,0.4776,0.4689,0.427,0.2886,0.2301,0.1971,0.0432,0.0,0.0,0.0,0.0,0.0,0.0,0.0,0.0,0.0,0.0,0.0,0.0,0.0,0.0,0.0,0.0,0.0,0.0,0.0,0.0,0.0,0.1008,0.1762,0.1762,0.2814,0.3115,0.1912,0.1762,0.1762,0.1762,0.0704,0.0503,0.1706,0.0653,0.0,0.0,0.0,0.0,0.0,0.0,0.0,0.0,0.0,0.0,0.0,0.0,0.0,0.7394,0.7387,0.7448,0.0,0.7929,0.8167,0.8608,0.8818,0.8994,0.9273,0.9564,0.9842,1.008,1.0222,1.0378,0.0,1.0622,1.0649,1.0711,1.0717,1.0683,1.0595,1.0663,1.0717,1.0717,1.0717,1.0717,1.0717,1.0717,1.0717,1.0717,1.0717,1.0717,1.0717,1.0717,1.0717,1.0717,1.0717,1.0717,1.0717,1.0717,1.0717,1.0717,1.0717,1.0717,1.0717,1.0717,1.0717,1.0717,1.0717,1.0717,1.0651,0.9842,0.9576,0.9238,0.6431,0.5408,0.5377,0.5398,0.5339,0.5141,0.4359,0.4068,0.3854,0.3083,0.2831,0.2831,0.2831,0.2879,0.2612,0.1676,0.1473,0.1218,0.0228,0.0677,0.1064,0.0168,0.0672,0.1287,0.1287,0.128,0.1546,0.2459,0.2512,0.2454,0.2461,0.2178,0.2264,0.3065,0.3667,0.3767,0.3215,0.3165,0.3165,0.3165,0.2663,0.2563,0.3115,0.1912,0.1159,0.1159,0.0401,0.0,0.0,0.0,0.0,0.0,0.0,0.0,0.0,0.0,0.0,0.7961,0.8049,0.0,0.8459,0.8703,0.8927,0.9049,0.9334,0.9598,0.9707,0.9937,1.0168,1.0337,1.0439,1.0527,1.0636,1.069,1.0717,1.0717,1.0717,1.0677,1.0568,1.0656,1.0717,1.0717,1.0717,1.0717,1.0717,1.0717,1.0717,1.0717,1.0717,1.0717,1.0717,1.0717,1.0717,1.0717,1.0717,1.0717,1.0717,1.0717,1.0717,1.0717,1.0717,1.0717,1.0717,1.0717,1.0717,1.0717,1.0717,1.0717,1.0717,1.0717,1.0717,1.0386,0.7836,0.6836,0.6889,0.6885,0.6841,0.6732,0.6077,0.5875,0.5702,0.5146,0.4933,0.4916,0.4916,0.4916,0.4655,0.3439,0.316,0.2821,0.1614,0.2101,0.2584,0.1457,0.2069,0.285,0.285,0.285,0.3172,0.4289,0.4381,0.4415,0.4777,0.3904,0.3537,0.4422,0.4568,0.4568,0.4568,0.4218,0.4168,0.4518,0.4218,0.4168,0.4518,0.3316,0.2563,0.2563,0.1259,0.0555,0.0555,0.0202,0.0,0.0,0.0,0.0,0.0,0.0,0.0,0.7988,0.0,0.8574,0.9071,0.9303,0.9476,0.9849,0.9957,0.997,0.997,1.0161,1.0229,1.0024,1.0297,1.0493,1.05,1.0622,1.0717,1.0717,1.0717,1.0717,1.0711,1.0717,1.0717,0.0,1.0717,1.0717,1.0717,1.0717,1.0717,1.0717,1.0717,1.0717,1.0717,1.0717,1.0717,1.0717,1.0717,1.0717,1.0717,1.0717,1.0717,1.0717,1.0717,1.0717,1.0717,1.0717,1.0717,1.0717,1.0717,1.0717,1.0717,1.0717,1.0717,1.0717,1.0585,1.0518,1.0518,1.0512,1.0484,1.0097,0.8443,0.7704,0.7219,0.5585,0.5033,0.4916,0.4916,0.4916,0.4899,0.4824,0.4804,0.4763,0.4613,0.4576,0.4555,0.4375,0.4414,0.4414,0.4414,0.4414,0.447,0.4467,0.4515,0.4951,0.6246,0.6275,0.6093,0.5942,0.5927,0.5927,0.5927,0.4768,0.4518,0.5827,0.4768,0.4568,0.5877,0.4668,0.3917,0.3917,0.2663,0.1962,0.1962,0.0656,0.0,0.0,0.0,0.0,0.0,0.0,0.0,0.8431,0.0,0.9164,0.951,0.9713,0.989,1.0148,1.0276,1.0317,1.0222,1.0243,1.0236,1.0017,1.0065,1.0229,1.0337,1.0473,1.0602,1.0704,1.0717,1.0683,1.0582,1.0656,0.0,0.0,0.0,0.0,1.0717,1.0717,1.0717,1.0717,1.0717,1.0717,1.0717,1.0717,1.0717,1.0717,1.0717,1.0717,1.0717,1.0717,1.0717,1.0717,1.0717,1.0717,1.0717,1.0717,1.0717,1.0717,1.0717,1.0717,1.0717,1.0717,1.0717,1.0717,1.0717,1.0717,1.0717,1.0717,1.0683,1.0557,0.9863,0.9511,0.9286,0.8563,0.8262,0.816,0.816,0.816,0.7906,0.6831,0.6529,0.6286,0.5094,0.552,0.5882,0.4828,0.5346,0.5977,0.5977,0.5977,0.6255,0.726,0.7325,0.7427,0.7765,0.7709,0.754,0.7353,0.7335,0.7335,0.7335,0.693,0.683,0.7285,0.693,0.683,0.7285,0.6077,0.5322,0.5322,0.3168,0.2012,0.2012,0.0706,0.0,0.0,0.0,0.0,0.0,0.0,0.0,0.892,0.9279,0.9625,0.9971,1.0134,1.0249,1.0399,1.0466,1.0432,1.0243,1.0114,0.9978,0.9768,0.9727,0.9815,1.0073,1.0236,1.0426,1.0683,1.0717,1.0683,1.0582,1.0663,1.0683,0.0,0.0,0.0,1.0717,1.0717,1.0744,1.0799,1.0799,1.0826,1.0873,1.0826,1.0799,1.0799,1.0751,1.0717,1.0717,1.0717,1.0717,1.0717,1.0717,1.0717,1.0717,1.0717,1.0717,1.0717,1.0717,1.0717,1.0717,1.0717,1.0717,1.0717,1.0717,1.0717,1.0717,1.0717,1.0717,1.0704,1.0609,1.0473,1.0331,1.0175,1.0025,0.989,0.9836,0.9822,0.9572,0.8526,0.8285,0.7976,0.6851,0.7269,0.7599,0.6536,0.6976,0.7589,0.7493,0.7482,0.7765,0.8712,0.8804,0.8743,0.8587,0.8486,0.835,0.8147,0.8022,0.7988,0.7988,0.7988,0.7988,0.7988,0.7988,0.7988,0.7988,0.7185,0.6731,0.6731,0.4622,0.3419,0.3419,0.1662,0.0706,0.0706,0.0252,0.0,0.0,0.0,0.0,0.9469,0.9741,0.9958,1.0392,1.0507,1.0541,1.0677,1.0588,1.0392,1.0031,0.9795,0.949,0.0,0.0,0.935,0.9727,0.9883,1.0152,1.0656,1.0717,1.0717,0.0,0.0,0.0,0.0,0.0,0.0,1.0731,0.0,1.0799,1.0873,1.0887,1.1023,1.1158,1.1029,1.0887,1.088,1.0799,1.0717,1.0717,1.0717,1.0717,1.0717,1.0717,1.0717,1.0717,1.0717,1.0717,1.0717,1.0717,1.0717,1.0717,1.0717,1.0717,1.0717,1.0717,1.0717,1.0717,1.0717,1.0717,1.0717,1.0717,1.0616,1.0466,1.0324,1.0175,0.9957,0.9863,0.9822,0.9822,0.9822,0.9822,0.9788,0.9652,0.9612,0.953,0.9296,0.9221,0.9166,0.8974,0.8892,0.8885,0.8885,0.8885,0.8838,0.8743,0.8716,0.8608,0.8368,0.8147,0.8002,0.8002,0.7995,0.7988,0.7988,0.7988,0.7988,0.7988,0.7988,0.7988,0.7988,0.6731,0.5977,0.5977,0.3419,0.2063,0.2012,0.0706,0.005,0.0,0.0,0.0,0.9802,1.0127,1.0378,1.0602,1.0663,1.0643,1.0568,1.0439,1.0215,0.9808,0.9483,0.92,0.0,0.0,0.0,0.9456,0.9903,0.0,1.067,1.0717,0.0,1.0717,0.0,1.0779,1.0731,1.0759,0.0,0.0,1.0826,1.084,1.088,1.105,1.1124,1.1227,1.1124,1.1056,1.088,1.0799,1.0717,1.0717,1.0717,1.0717,1.0717,1.0717,1.0717,1.0717,1.0717,1.0717,1.0717,1.0717,1.0717,1.0717,1.0717,1.0717,1.0717,1.0717,1.0717,1.0717,1.0717,1.0717,1.0717,1.0717,1.0616,1.0466,1.0324,1.0175,0.9957,0.9863,0.9822,0.9822,0.9822,0.9822,0.9815,0.9774,0.9686,0.9591,0.951,0.9313,0.92,0.9159,0.9015,0.8885,0.8885,0.8885,0.8871,0.8831,0.8784,0.8642,0.8452,0.8303,0.8214,0.8214,0.8106,0.7988,0.7988,0.7988,0.7988,0.7988,0.7988,0.7988,0.7988,0.6731,0.5977,0.5977,0.4368,0.3015,0.2012,0.1662,0.0958,0.0,0.0,0.0,1.0141,1.0412,1.0616,1.0697,1.067,1.0561,1.0344,1.0134,0.9842,0.932,0.8974,0.0,0.818,0.8404,0.0,0.0,0.0,0.0,1.0649,1.0717,1.0744,0.0,1.0826,0.0,1.0914,1.0995,1.1043,0.0,1.0914,1.0934,1.1138,1.1219,1.1294,1.1362,1.1301,1.1158,1.088,1.086,1.0785,1.0717,1.0717,1.0717,1.0717,1.0717,1.0717,1.0717,0.0,1.0717,1.0717,1.0717,1.0717,1.0717,1.0717,1.0717,1.0717,1.0717,1.0717,1.0717,1.0717,1.0717,1.0717,1.0717,1.0663,1.0561,1.0419,1.027,1.012,0.9903,0.9876,0.9822,0.9822,0.9822,0.9822,0.9822,0.9761,0.9686,0.9625,0.9476,0.9313,0.9234,0.9035,0.8885,0.8885,0.8885,0.8885,0.8885,0.8811,0.8777,0.8696,0.8492,0.8364,0.8364,0.8289,0.8208,0.8147,0.814,0.8113,0.7995,0.7988,0.7988,0.7988,0.7285,0.688,0.688,0.5572,0.4518,0.377,0.3165,0.2172,0.0868,0.0868,0.0564,1.0446,1.0616,1.0717,1.0717,1.0588,1.0385,1.0024,0.9761,0.9347,0.8743,0.0,0.8072,0.7617,0.7828,0.8211,0.879,0.0,0.989,1.0616,1.0717,1.0778,1.086,1.0894,1.1023,1.1151,1.1248,1.1261,1.1261,1.1077,1.1118,1.1375,1.1409,1.1484,1.1613,1.147,1.126,1.0914,1.0887,1.0806,1.0717,1.0717,1.0717,1.0717,1.0717,1.0717,1.0717,0.0,0.0,1.0717,1.0717,1.0717,1.0717,1.0717,1.0717,1.0717,1.0717,1.0717,1.0717,1.0717,1.0717,1.0717,1.0717,1.0717,1.069,1.0534,1.0392,1.0249,1.0031,0.9876,0.9822,0.9822,0.9822,0.9822,0.9822,0.9822,0.9788,0.9666,0.9625,0.9523,0.9296,0.9069,0.8967,0.8967,0.8898,0.8885,0.8885,0.8885,0.8885,0.8885,0.8689,0.8513,0.8513,0.8492,0.8431,0.8361,0.8347,0.8241,0.8056,0.8049,0.8049,0.8049,0.8049,0.8049,0.8049,0.6933,0.6223,0.6073,0.4905,0.3624,0.2336,0.2129,0.1415,1.0629,1.0697,1.0717,1.0717,1.0514,1.0236,0.993,0.9384,0.0,0.0,0.8011,0.7753,0.726,0.7773,0.8384,0.8804,0.9415,1.0005,0.0,0.0,1.0778,0.0,0.0,0.0,0.0,0.0,0.0,0.0,0.0,1.1335,1.1389,1.1511,1.1592,1.1619,1.147,1.1307,1.1124,1.1009,1.0806,1.0717,1.0717,1.0717,1.0717,1.0717,1.0717,1.0717,1.0717,0.0,1.0717,1.0717,1.0717,1.0717,1.0717,1.0717,1.0717,1.0717,1.0717,1.0717,1.0717,1.0717,1.0717,1.0717,1.0717,1.069,1.0534,1.0392,1.0249,1.0031,0.9876,0.9822,0.9822,0.9822,0.9822,0.9822,0.9822,0.9815,0.9788,0.9693,0.9557,0.9374,0.9275,0.9173,0.9173,0.9015,0.8885,0.8885,0.8885,0.8885,0.8885,0.8784,0.8669,0.8669,0.856,0.8472,0.8445,0.8445,0.8431,0.8404,0.8404,0.8404,0.8404,0.8404,0.8404,0.8404,0.8196,0.7513,0.6406,0.6198,0.5365,0.4014,0.275,0.2067,1.0677,1.0717,1.0717,1.0717,1.0439,1.0039,0.9578,0.0,0.0,0.0,0.7409,0.7265,0.6966,0.74,0.0,0.8346,0.8906,0.0,0.0,0.0,0.0,0.0,0.0,0.0,0.0,0.0,0.0,0.0,0.0,1.1511,1.1511,1.1579,1.1619,1.1619,1.1545,1.1396,1.1234,1.1097,1.0948,1.0717,1.0717,1.0717,1.0717,1.0717,1.0717,1.0717,1.0717,0.0,1.0717,1.0717,1.0717,1.0717,1.0717,1.0717,1.0717,1.0717,1.0717,1.0717,1.0717,1.0717,1.0717,1.0717,1.0717,1.0704,1.0629,1.0507,1.0358,1.0209,1.0059,0.9862,0.9842,0.9822,0.9822,0.9822,0.9822,0.9822,0.9822,0.9707,0.9591,0.9517,0.9374,0.9303,0.9221,0.9096,0.9022,0.8892,0.8885,0.8885,0.8885,0.8817,0.8832,0.8832,0.8764,0.8689,0.8608,0.8601,0.8567,0.8486,0.8479,0.8479,0.8479,0.8479,0.8479,0.8479,0.8479,0.8164,0.7527,0.7527,0.687,0.5536,0.4786,0.3622,1.0677,1.0717,1.0717,1.0717,1.0358,0.9849,0.9344,0.8695,0.0,0.0,0.6937,0.6844,0.6722,0.0,0.7489,0.0,0.8438,0.9022,0.0,0.0,0.0,0.0,0.0,0.0,0.0,0.0,0.0,0.0,0.0,0.0,1.1619,1.1619,1.1619,1.1619,1.1619,1.147,1.1165,1.1234,1.1016,1.0717,1.0717,1.0717,1.0717,1.0717,1.0717,1.0717,1.0717,0.0,0.0,1.0717,1.0717,1.0717,1.0717,1.0717,1.0717,1.0717,1.0717,1.0717,1.0717,1.0717,1.0717,1.0717,1.0717,1.0717,1.0717,1.0616,1.0466,1.0358,1.0195,0.9957,0.9842,0.9842,0.9822,0.9822,0.9822,0.9822,0.9822,0.9734,0.9652,0.9652,0.953,0.9395,0.933,0.9282,0.915,0.9008,0.8988,0.8974,0.8885,0.8885,0.8885,0.8885,0.8885,0.8838,0.8771,0.8757,0.871,0.8587,0.8581,0.8581,0.8581,0.8581,0.8581,0.8581,0.8581,0.8581,0.8581,0.8581,0.8047,0.7002,0.6676,0.5347,1.0677,1.0717,1.0717,1.0717,1.0276,0.972,0.9316,0.0,0.0,0.7031,0.6824,0.6715,0.6702,0.6953,0.0,0.0,0.0,0.9022,0.0,0.0,0.0,0.0,0.0,0.0,0.0,0.0,0.0,0.0,0.0,0.0,1.1619,1.1619,1.1619,1.1619,1.1619,1.147,1.1165,1.1234,1.1016,1.0717,1.0717,1.0717,1.0717,1.0717,1.0717,1.0717,1.0717,0.0,0.0,1.0717,1.0717,1.0717,1.0717,1.0717,1.0717,1.0717,1.0717,1.0717,1.0717,1.0717,1.0717,1.0717,1.0717,1.0717,1.0717,1.0616,1.0487,1.0473,1.027,0.9984,0.997,0.9862,0.9822,0.9822,0.9822,0.9822,0.9822,0.9808,0.9802,0.9802,0.9686,0.9585,0.9571,0.9449,0.9306,0.9214,0.9187,0.9089,0.8898,0.8885,0.8885,0.8885,0.8885,0.8878,0.8865,0.8865,0.8858,0.8844,0.8844,0.8844,0.8844,0.8844,0.8844,0.8844,0.8844,0.8844,0.8844,0.8844,0.8796,0.8637,0.7299,0.6523,1.0493,1.0649,1.0717,1.0717,1.0202,0.9578,0.9123,0.0,0.74,0.6898,0.66,0.6491,0.6668,0.6797,0.7095,0.0,0.0,0.0,0.0,0.0,0.0,0.0,0.0,0.0,0.0,0.0,0.0,0.0,0.0,0.0,1.1619,1.1619,1.1619,1.1619,1.1619,1.147,1.1165,1.1234,1.1016,1.0717,1.0717,1.0717,1.0717,1.0717,1.0717,1.0717,1.0717,0.0,0.0,1.0717,1.0717,1.0717,1.0717,1.0717,1.0717,1.0717,1.0717,1.0717,1.0717,1.0717,1.0717,1.0717,1.0717,1.0717,1.0717,1.0677,1.0609,1.0521,1.0405,1.0276,1.0031,0.9876,0.9822,0.9822,0.9822,0.9822,0.9822,0.9822,0.9822,0.9822,0.9774,0.9707,0.9625,0.9557,0.9469,0.9313,0.935,0.9239,0.9089,0.9069,0.9035,0.8892,0.8885,0.8885,0.8885,0.8885,0.8885,0.8885,0.8885,0.8885,0.8885,0.8885,0.8885,0.8885,0.8885,0.8885,0.8885,0.8885,0.8885,0.8885,0.8318,0.7537,1.0249,1.0473,1.0602,1.0643,1.0093,0.9422,0.0,0.8126,0.7312,0.6858,0.6566,0.6471,0.6722,0.677,0.6939,0.0,0.0,0.7909,0.0,0.0,0.0,0.0,0.0,0.0,0.0,0.0,0.0,0.0,0.0,0.0,0.0,1.1619,1.1619,1.1619,1.1572,1.1423,1.1234,1.1118,1.0968,1.0717,1.0717,1.0717,1.0717,1.0717,1.0717,1.0717,0.0,0.0,0.0,1.0717,1.0717,1.0717,1.0717,1.0717,1.0717,1.0717,1.0717,1.0717,1.0717,1.0717,1.0717,1.0717,1.0717,1.0717,1.0717,1.0717,1.0697,1.0588,1.0493,1.0371,1.0051,0.9876,0.9822,0.9822,0.9822,0.9822,0.9822,0.9822,0.9822,0.9822,0.9822,0.9788,0.9686,0.9673,0.9625,0.9469,0.9449,0.9395,0.9296,0.9275,0.9184,0.9083,0.9069,0.9035,0.8892,0.8885,0.8885,0.8885,0.8885,0.8885,0.8885,0.8885,0.8885,0.8885,0.8885,0.8885,0.8885,0.8885,0.8885,0.8885,0.8885,0.8325,1.004,1.0231,1.0317,1.046,0.9937,0.9266,0.0,0.8133,0.7468,0.6977,0.6803,0.6742,0.6856,0.6883,0.7027,0.7326,0.0,0.0,0.0,0.0,0.0,0.0,0.0,0.0,0.0,0.0,0.0,0.0,0.0,0.0,0.0,1.1619,1.1619,1.1619,1.147,1.1321,1.1234,1.1023,1.0806,1.0717,1.0717,1.0717,1.0717,1.0717,1.0717,0.0,0.0,0.0,0.0,1.0717,1.0717,1.0717,1.0717,1.0717,1.0717,1.0717,1.0717,1.0717,1.0717,1.0717,1.0717,1.0717,1.0717,1.0717,1.0717,1.0717,1.0717,1.0717,1.0507,1.0249,1.0031,0.9876,0.9822,0.9822,0.9822,0.9822,0.9822,0.9822,0.9822,0.9822,0.9822,0.9822,0.9822,0.9822,0.9768,0.9632,0.9605,0.9551,0.9401,0.9381,0.9374,0.9374,0.9374,0.9259,0.8905,0.8885,0.8885,0.8885,0.8885,0.8885,0.8885,0.8885,0.8885,0.8885,0.8885,0.8885,0.8885,0.8885,0.8885,0.8885,0.8885,0.8885,0.9211,0.9476,0.9652,0.9651,0.9245,0.8832,0.8486,0.7909,0.7346,0.7,0.681,0.6749,0.6856,0.6883,0.7085,0.7733,0.7853,0.0,0.0,0.0,0.0,0.0,0.0,0.0,0.0,0.0,0.0,0.0,0.0,0.0,0.0,1.1518,1.1463,1.1463,1.1416,1.1274,1.1016,1.09,1.0806,1.0717,1.0717,1.0717,1.0717,1.0717,0.0,0.0,0.0,0.0,0.0,1.0717,1.0717,1.0717,1.0717,1.0717,1.0717,1.0717,1.0717,1.0717,1.0717,1.0717,1.0717,1.0717,1.0717,1.0717,1.0717,1.0717,1.0717,1.0717,1.0575,1.0392,1.0243,1.0093,0.9889,0.9842,0.9822,0.9822,0.9822,0.9822,0.9822,0.9822,0.9822,0.9822,0.9822,0.9822,0.9802,0.9761,0.9754,0.97,0.9557,0.9537,0.9496,0.9395,0.9381,0.9347,0.9245,0.9239,0.9239,0.9239,0.9239,0.9191,0.9089,0.9083,0.9083,0.9083,0.8988,0.9035,0.9239,0.9137,0.9137,0.9239,0.9239,0.9239,0.8608,0.894,0.913,0.9207,0.8845,0.8479,0.8241,0.7719,0.7217,0.6937,0.681,0.6729,0.6824,0.6849,0.7038,0.7496,0.7712,0.0,0.0,0.0,0.0,0.0,0.0,0.0,0.0,0.0,0.0,0.0,0.0,0.0,0.0,1.1389,1.128,1.1226,1.1226,1.1138,1.088,1.0826,1.0745,1.0717,1.0717,1.0717,1.0717,1.0717,0.0,0.0,0.0,0.0,0.0,1.0717,1.0717,1.0717,1.0717,1.0717,1.0717,1.0717,1.0717,1.0717,1.0717,1.0717,1.0717,1.0717,1.0717,1.0717,1.0717,1.0717,1.0717,1.0717,1.0609,1.046,1.0317,1.0168,0.995,0.9856,0.9822,0.9822,0.9822,0.9822,0.9822,0.9822,0.9822,0.9822,0.9822,0.9822,0.9822,0.9822,0.9822,0.9788,0.97,0.9686,0.9652,0.9557,0.9544,0.9544,0.9544,0.9442,0.9381,0.9381,0.9381,0.934,0.9303,0.9296,0.9296,0.9296,0.915,0.9198,0.9381,0.9344,0.9344,0.9381,0.9381,0.9381,0.0,0.8486,0.8662,0.8982,0.8641,0.8153,0.7948,0.7483,0.0,0.6896,0.6797,0.6709,0.6729,0.6837,0.691,0.697,0.7373,0.0,0.0,0.0,0.0,0.0,0.0,0.0,0.0,0.0,0.0,0.0,0.0,0.0,0.0,1.1233,1.1084,1.0887,1.0873,1.0867,1.0867,1.0792,1.0717,1.0717,1.0717,1.0717,1.0717,1.0717,0.0,0.0,0.0,0.0,0.0,1.0717,1.0717,1.0717,1.0717,1.0717,1.0717,1.0717,1.0717,1.0717,1.0717,1.0717,1.0717,1.0717,1.0717,1.0717,1.0717,1.0717,1.0717,1.0717,1.0616,1.0473,1.0331,1.0188,0.9977,0.9876,0.9836,0.9836,0.9822,0.9822,0.9822,0.9822,0.9822,0.9822,0.9822,0.9822,0.9822,0.9822,0.9822,0.9822,0.9822,0.9822,0.9822,0.9822,0.9822,0.9822,0.9822,0.9571,0.9415,0.9415,0.9415,0.9408,0.9395,0.9395,0.9395,0.9395,0.9408,0.9408,0.9395,0.9408,0.9415,0.9415,0.9415,0.9415,0.7163,0.0,0.7456,0.7461,0.7428,0.7321,0.0,0.7038,0.6896,0.6783,0.6722,0.677,0.695,0.6937,0.7156,0.7841,0.8045,0.8361,0.0,0.0,0.0,0.0,0.0,0.0,0.0,0.0,0.0,0.0,0.0,0.0,0.0,1.1077,1.0914,1.088,1.0766,1.0772,1.0772,1.0738,1.0717,1.0717,1.0717,1.0717,1.0717,1.0717,0.0,0.0,0.0,0.0,1.0717,1.0717,1.0717,1.0717,1.0717,1.0717,1.0717,1.0717,1.0717,1.0717,1.0717,1.0717,1.0717,1.0717,1.0717,1.0717,1.0717,1.0717,1.0717,1.0717,1.0697,1.0629,1.048,1.0419,1.0324,0.9997,0.993,0.9903,0.9842,0.9822,0.9822,0.9822,0.9822,0.9822,0.9822,0.9822,0.9822,0.9822,0.9822,0.9822,0.9822,0.9822,0.9822,0.9822,0.9822,0.9822,0.9822,0.9754,0.972,0.972,0.972,0.9673,0.9557,0.9557,0.9557,0.9557,0.9659,0.9666,0.9557,0.9666,0.972,0.972,0.972,0.972,0.658,0.6926,0.7244,0.7238,0.7244,0.7224,0.7149,0.6919,0.6695,0.6614,0.6593,0.6668,0.6898,0.6943,0.7186,0.0,0.814,0.0,0.0,0.0,0.0,0.0,0.0,0.0,0.0,0.0,0.0,0.0,0.0,0.0,0.0,1.0928,1.0846,1.0846,1.0765,1.0717,1.0717,1.0717,1.0717,1.0717,1.0717,1.0717,1.0717,1.0717,1.0717,0.0,0.0,0.0,1.0717,1.0717,1.0717,1.0717,1.0717,1.0717,1.0717,1.0717,1.0717,1.0717,1.0717,1.0717,1.0717,1.0717,1.0717,1.0717,1.0717,1.0717,1.0717,1.0717,1.0717,1.0683,1.0534,1.0493,1.0432,1.0209,1.0154,1.0134,1.0046,0.9978,0.9862,0.9862,0.9869,0.9822,0.9822,0.9822,0.9822,0.9822,0.9822,0.9822,0.9822,0.9822,0.9822,0.9822,0.9822,0.9822,0.9822,0.9822,0.9822,0.9822,0.9822,0.9788,0.9707,0.9707,0.9707,0.9707,0.9781,0.9781,0.9707,0.9781,0.9822,0.9822,0.9822,0.9822,0.6354,0.688,0.7426,0.7421,0.7366,0.7299,0.7316,0.0,0.0,0.0,0.0,0.0,0.0,0.7041,0.0,0.0,0.0,0.0,0.0,0.0,0.0,0.0,0.0,0.0,0.0,0.0,0.0,0.0,0.0,0.0,0.0,1.0792,1.0717,1.0717,1.0717,1.0717,1.0717,1.0717,1.0717,1.0717,1.0717,1.0717,1.0717,1.0717,1.0717,0.0,0.0,0.0,1.0717,1.0717,1.0717,1.0717,1.0717,1.0717,1.0717,1.0717,1.0717,1.0717,1.0717,1.0717,1.0717,1.0717,1.0717,1.0717,1.0717,1.0717,1.0717,1.0717,1.0717,1.069,1.0561,1.0527,1.0487,1.0344,1.031,1.0304,1.0283,1.0175,1.0017,0.999,0.9883,0.9849,0.9822,0.9822,0.9822,0.9822,0.9822,0.9822,0.9822,0.9822,0.9822,0.9822,0.9822,0.9822,0.9822,0.9822,0.9822,0.9822,0.9822,0.9822,0.9822,0.9822,0.9822,0.9822,0.9822,0.9822,0.9822,0.9822,0.9822,0.9822,0.9822,0.9822,0.6566,0.6993,0.7303,0.6811,0.6824,0.6959,0.6831,0.6736,0.0,0.0,0.0,0.0,0.0,0.7509,0.7889,0.0,0.0,0.0,0.0,0.0,0.0,0.0,0.0,0.0,0.0,0.0,0.0,0.0,0.0,0.0,0.0,0.0,1.0717,1.0717,1.0717,1.0717,1.0717,1.0717,1.0717,1.0717,1.0717,1.0717,1.0717,1.0717,1.0717,0.0,0.0,1.0717,1.0717,1.0717,1.0717,1.0717,1.0717,1.0717,1.0717,1.0717,1.0717,1.0717,1.0717,1.0717,1.0717,1.0717,1.0717,1.0717,1.0717,1.0717,1.0717,1.0717,1.0717,1.0717,1.069,1.0683,1.0649,1.0493,1.046,1.0426,1.0304,1.0263,1.0209,1.0011,0.997,0.9909,0.9842,0.9822,0.9822,0.9822,0.9822,0.9822,0.9822,0.9822,0.9822,0.9822,0.9822,0.9822,0.9822,0.9822,0.9822,0.9822,0.9822,0.9822,0.9822,0.9822,0.9822,0.9822,0.9822,0.9822,0.9822,0.9822,0.9822,0.9822,0.9822,0.9822,0.8068,0.803,0.7882,0.7613,0.7454,0.7366,0.7217,0.7061,0.6896,0.0,0.0,0.0,0.0,0.0,0.0,0.0,0.0,0.0,0.0,0.0,0.0,0.0,0.0,0.0,0.0,0.0,0.0,0.0,0.0,0.0,0.0,0.0,1.0717,1.0717,1.0717,1.0717,1.0717,1.0717,1.0717,1.0717,1.0717,1.0717,1.0717,1.0717,1.0717,1.0717,0.0,1.0717,1.0717,1.0717,1.0717,1.0717,1.0717,1.0717,1.0717,1.0717,1.0717,1.0717,1.0717,1.0717,1.0717,1.0717,1.0717,1.0717,1.0717,1.0717,1.0717,1.0717,1.0717,1.0717,1.0717,1.0717,1.0704,1.0629,1.0616,1.0595,1.0534,1.0453,1.0371,1.0304,1.0229,1.0127,0.9909,0.9883,0.9856,0.9836,0.9822,0.9822,0.9822,0.9822,0.9822,0.9822,0.9822,0.9822,0.9822,0.9822,0.9822,0.9822,0.9822,0.9822,0.9822,0.9822,0.9822,0.9822,0.9822,0.9822,0.9822,0.9822,0.9822,0.9822,0.9822,0.9822,0.9483,0.913,0.8717,0.8545,0.8094,0.7706,0.7706,0.7489,0.728,0.7388,0.0,0.0,0.0,0.0,0.0,0.0,0.0,0.0,0.0,0.0,0.0,0.0,0.0,0.0,0.0,0.0,0.0,0.0,0.0,0.0,0.0,0.0,1.0717,1.0717,1.0717,1.0717,1.0717,1.0717,1.0717,1.0717,1.0717,1.0717,1.0717,1.0717,1.0717,1.0717,1.0717,1.0717,1.0717,1.0717,1.0717,1.0717,1.0717,1.0717,1.0717,1.0717,1.0717,1.0717,1.0717,1.0717,1.0717,1.0717,1.0717,1.0717,1.0717,1.0717,1.0717,1.0717,1.0717,1.0717,1.0717,1.0717,1.0717,1.0717,1.0717,1.0717,1.0717,1.0629,1.0534,1.05,1.0405,1.0283,1.0127,1.0038,1.0066,0.9944,0.993,0.993,0.993,0.993,0.993,0.993,0.993,0.9917,0.9876,0.9876,0.9863,0.9822,0.9822,0.9822,0.9822,0.9822,0.9822,0.9822,0.9822,0.9822,0.9822,0.9822,0.9822,0.9822,0.9822,0.9822,0.9968,1.0001,0.9715,0.9038,0.8132,0.7509,0.7867,0.7833,0.7882,0.8303,0.8506,0.0,0.0,0.0,0.0,0.0,0.0,0.0,0.0,0.0,0.0,0.0,0.0,0.0,0.0,0.0,0.0,0.0,0.0,0.0,0.0,0.0,0.0,1.0717,1.0717,1.0717,1.0717,1.0717,1.0717,1.0717,1.0717,1.0717,1.0717,1.0717,1.0717,1.0717,1.0717,1.0717,1.0717,1.0717,1.0717,1.0717,1.0717,1.0717,1.0717,1.0717,1.0717,1.0717,1.0717,1.0717,1.0717,1.0717,1.0717,1.0717,1.0717,1.0717,1.0717,1.0717,1.0717,1.0717,1.0717,1.0717,1.0717,1.0717,1.0717,1.0717,1.0717,1.0711,1.0663,1.0521,1.048,1.0432,1.029,1.0263,1.0263,1.0249,1.0249,1.0249,1.0249,1.0249,1.0249,1.0249,1.0249,1.0188,0.9984,0.997,0.9909,0.9829,0.9822,0.9822,0.9822,0.9822,0.9822,0.9822,0.9822,0.9822,0.9822,0.9822,0.9822,0.9822,0.9822,0.9822,1.17,1.0846,0.9804,0.9752,0.8744,0.7855,0.8126,0.8282,0.8472,0.8879,0.9022,0.0,0.0,0.0,0.0,0.0,0.0,0.0,0.0,0.0,0.0,0.0,0.0,0.0,0.0,0.0,0.0,0.0,0.0,0.0,0.0,0.0,0.0,1.0717,1.0717,1.0717,1.0717,1.0717,1.0717,1.0717,1.0717,1.0717,1.0717,1.0717,1.0717,1.0717,1.0717,1.0717,1.0717,1.0717,1.0717,1.0717,1.0717,1.0717,1.0717,1.0717,1.0717,1.0717,1.0717,1.0717,1.0717,1.0717,1.0717,1.0717,1.0717,1.0717,1.0717,1.0717,1.0717,1.0717,1.0717,1.0717,1.0717,1.0717,1.0717,1.0717,1.0717,1.0717,1.0704,1.0643,1.0636,1.0588,1.0439,1.0412,1.0385,1.0297,1.0283,1.0283,1.0283,1.0283,1.0283,1.0283,1.0283,1.0256,1.0202,1.0195,1.0168,1.0114,0.9924,0.9822,0.9822,0.9822,0.9822,0.9822,0.9822,0.9822,0.9822,0.9822,0.9822,0.9822,0.9822,0.9822,1.226,1.1093,0.9823,0.986,0.92,0.8564,0.8515,0.8669,0.896,0.9354,0.9442,0.951,0.9713,0.0,0.0,0.0,0.0,0.0,0.0,0.0,0.0,0.0,0.0,0.0,0.0,0.0,0.0,0.0,0.0,0.0,0.0,0.0,0.0,0.0,1.0717,1.0717,1.0717,1.0717,1.0717,1.0717,1.0717,1.0717,1.0717,1.0717,1.0717,1.0717,1.0717,1.0717,1.0717,1.0717,1.0717,1.0717,1.0717,1.0717,1.0717,1.0717,1.0717,1.0717,1.0717,1.0717,1.0717,1.0717,1.0717,1.0717,1.0717,1.0717,1.0717,1.0717,1.0717,1.0717,1.0717,1.0717,1.0717,1.0717,1.0717,1.0717,1.0717,1.0717,1.0717,1.0717,1.0717,1.0683,1.0582,1.0561,1.0527,1.0432,1.0419,1.0419,1.0419,1.0419,1.0419,1.0419,1.0419,1.0399,1.0351,1.0344,1.0331,1.0283,1.008,0.9944,0.9897,0.9849,0.9822,0.9822,0.9822,0.9822,0.9822,0.9822,0.9822,0.9822,0.9822,0.9822,1.1307,1.0614,0.9857,0.9263,0.9492,0.9652,0.9022,0.9055,0.9334,0.9869,0.9822,0.9707,0.9936,0.0,0.0,0.0,0.0,0.0,0.0,0.0,0.0,0.0,0.0,0.0,0.0,0.0,0.0,0.0,0.0,0.0,0.0,0.0,0.0,0.0,1.0717,1.0717,1.0717,1.0717,1.0717,1.0717,1.0717,1.0717,1.0717,1.0717,1.0717,1.0717,1.0717,1.0717,1.0717,1.0717,1.0717,1.0717,1.0717,1.0717,1.0717,1.0717,1.0717,1.0717,1.0717,1.0717,1.0717,1.0717,1.0717,1.0717,1.0717,1.0717,1.0717,1.0717,1.0717,1.0717,1.0717,1.0717,1.0717,1.0717,1.0717,1.0717,1.0717,1.0717,1.0717,1.0717,1.0717,1.0717,1.0717,1.0717,1.0717,1.0717,1.0717,1.0717,1.0717,1.0717,1.0717,1.0717,1.0717,1.0656,1.0507,1.0493,1.0432,1.029,1.0283,1.0215,0.9997,0.9903,0.9822,0.9822,0.9822,0.9822,0.9822,0.9822,0.9822,0.9822,0.9822,0.9822,1.2401,1.1839,1.1207,1.0659,0.0,0.0,0.0,0.9523,0.0,0.0,1.0365,1.0256,1.0344,0.0,0.0,0.0,0.0,0.0,0.0,0.0,0.0,0.0,0.0,0.0,0.0,0.0,0.0,0.0,0.0,0.0,0.0,0.0,0.0,0.0,1.0717,1.0717,1.0717,1.0717,1.0717,1.0717,1.0717,1.0717,1.0717,1.0717,1.0717,1.0717,1.0717,1.0717,1.0717,1.0717,1.0717,1.0717,1.0717,1.0717,1.0717,1.0717,1.0717,1.0717,1.0717,1.0717,1.0717,1.0717,1.0717,1.0717,1.0717,1.0717,1.0717,1.0717,1.0717,1.0717,1.0717,1.0717,1.0717,1.0717,1.0717,1.0717,1.0717,1.0717,1.0717,1.0717,1.0717,1.0717,1.0717,1.0717,1.0717,1.0717,1.0717,1.0717,1.0717,1.0717,1.0717,1.0717,1.0717,1.0704,1.0656,1.0649,1.0636,1.0588,1.0487,1.0365,1.0215,1.0168,1.0093,0.9923,0.9916,0.9869,0.9822,0.9822,0.9822,0.9822,0.9822,0.9822,1.2687,1.2287,0.0,1.1082,1.095,1.0811,1.0028,0.0,0.0,0.0,0.0,1.0426,1.048,0.0,0.0,0.0,0.0,0.0,0.0,0.0,0.0,0.0,0.0,0.0,0.0,0.0,0.0,0.0,0.0,0.0,0.0,0.0,0.0,0.0,1.0717,1.0717,1.0717,1.0717,1.0717,1.0717,1.0717,1.0717,1.0717,1.0717,1.0717,1.0717,1.0717,1.0717,1.0717,1.0717,1.0717,1.0717,1.0717,1.0717,1.0717,1.0717,1.0717,1.0717,1.0717,1.0717,1.0717,1.0717,1.0717,1.0717,1.0717,1.0717,1.0717,1.0717,1.0717,1.0717,1.0717,1.0717,1.0717,1.0717,1.0717,1.0717,1.0717,1.0717,1.0717,1.0717,1.0717,1.0717,1.0717,1.0717,1.0717,1.0717,1.0717,1.0717,1.0717,1.0717,1.0717,1.0717,1.0717,1.0717,1.0717,1.0717,1.0717,1.0717,1.0636,1.0541,1.046,1.0344,1.0236,1.0141,1.0141,1.0093,1.0005,1.0005,0.9971,0.9849,0.9849,0.9876,1.2475,1.2349,1.1877,1.1063,1.1033,0.0,1.0805,1.0813,1.0904,1.0948,0.0,0.0,0.0,0.0,0.0,0.0,0.0,0.0,0.0,0.0,0.0,0.0,0.0,0.0,0.0,0.0,0.0,0.0,0.0,0.0,0.0,0.0,0.0,0.0,1.0717,1.0717,1.0717,1.0717,1.0717,0.0,1.0717,1.0717,1.0717,1.0717,1.0717,1.0717,1.0717,1.0717,1.0717,1.0717,1.0717,1.0717,1.0717,1.0717,1.0717,1.0717,1.0717,1.0717,1.0717,1.0717,1.0717,1.0717,1.0717,1.0717,1.0717,1.0717,1.0717,1.0717,1.0717,1.0717,1.0717,1.0717,1.0717,1.0717,1.0717,1.0717,1.0717,1.0717,1.0717,1.0717,1.0717,1.0717,1.0717,1.0717,1.0717,1.0717,1.0717,1.0717,1.0717,1.0717,1.0717,1.0717,1.0717,1.0717,1.0717,1.0717,1.0717,1.0717,1.0717,1.0717,1.0717,1.0466,1.0317,1.0297,1.0297,1.029,1.0283,1.0283,1.0209,1.0011,1.0011,0.9936,1.2856,1.366,0.0,0.0,1.2081,1.244,1.3591,1.3927,1.3798,1.2931,0.0,0.0,0.0,0.0,0.0,0.0,0.0,0.0,0.0,0.0,0.0,0.0,0.0,0.0,0.0,0.0,0.0,0.0,0.0,0.0,0.0,0.0,0.0,1.0717,1.0717,1.0717,1.0717,1.0717,1.0717,0.0,1.0717,1.0717,1.0717,1.0717,1.0717,1.0717,1.0717,1.0717,1.0717,1.0717,1.0717,1.0717,1.0717,1.0717,1.0717,1.0717,1.0717,1.0717,1.0717,1.0717,1.0717,1.0717,1.0717,1.0717,1.0717,1.0717,1.0717,1.0717,1.0717,1.0717,1.0717,1.0717,1.0717,1.0717,1.0717,1.0717,1.0717,1.0717,1.0717,1.0717,1.0717,1.0717,1.0717,1.0717,1.0717,1.0717,1.0717,1.0717,1.0717,1.0717,1.0717,1.0717,1.0717,1.0717,1.0717,1.0717,1.0717,1.0717,1.0717,1.0717,1.0717,1.0656,1.0568,1.0453,1.0446,1.0392,1.0283,1.0283,1.0263,1.0229,1.0229,1.0215,1.348,0.0,0.0,1.4412,0.0,1.4801,1.4791,1.6197,1.7067,0.0,0.0,0.0,0.0,0.0,0.0,0.0,0.0,0.0,0.0,0.0,0.0,0.0,0.0,0.0,0.0,0.0,0.0,0.0,0.0,0.0,0.0,1.0609,1.0582,1.0514,1.0507,1.0541,1.0609,1.0609,1.0649,1.0717,1.0717,1.0717,1.0717,1.0717,1.0717,1.0717,1.0717,1.0717,1.0717,1.0717,1.0717,1.0717,1.0717,1.0717,1.0717,1.0717,1.0717,1.0717,1.0717,1.0717,1.0717,1.0717,1.0717,1.0717,1.0717,1.0717,1.0717,1.0717,1.0717,1.0717,1.0717,1.0717,1.0717,1.0717,1.0717,1.0717,1.0717,1.0717,1.0717,1.0717,1.0717,1.0717,1.0717,1.0717,1.0717,1.0717,1.0717,1.0717,1.0717,1.0717,1.0717,1.0717,1.0717,1.0717,1.0717,1.0717,1.0717,1.0717,1.0717,1.0717,1.0717,1.0717,1.0683,1.0602,1.0602,1.0568,1.0493,1.0493,1.0453,1.0378,1.0378,1.0344,1.3587,0.0,1.5473,1.6241,1.6853,0.0,1.5877,1.7877,0.0,0.0,0.0,0.0,0.0,0.0,0.0,0.0,0.0,0.0,0.0,0.0,0.0,0.0,0.0,0.0,0.0,0.0,0.0,0.0,0.0,0.0,1.046,1.0453,1.0399,1.0283,1.0283,1.0337,1.0453,1.0453,1.0521,1.0643,1.0643,1.0656,1.0683,1.0683,1.0697,1.0717,1.0717,1.0717,1.0717,1.0717,1.0717,1.0717,1.0717,1.0717,1.0717,1.0717,1.0717,1.0717,1.0717,1.0717,1.0717,1.0717,1.0717,1.0717,1.0717,1.0717,1.0717,1.0717,1.0717,1.0717,1.0717,1.0717,1.0717,1.0717,1.0717,1.0717,1.0717,1.0717,1.0717,1.0717,1.0717,1.0717,1.0717,1.0717,1.0717,1.0717,1.0717,1.0717,1.0717,1.0717,1.0717,1.0717,1.0717,1.0717,1.0717,1.0717,1.0717,1.0717,1.0717,1.0717,1.0717,1.0717,1.0717,1.0717,1.0717,1.0717,1.0717,1.0717,1.0656,1.0527,1.0527,1.0466,0.0,0.0,1.4064,0.0,1.7191,1.6982,0.0,0.0,0.0,0.0,0.0,0.0,0.0,0.0,0.0,0.0,0.0,0.0,0.0,0.0,0.0,0.0,0.0,0.0,0.0,0.0,0.0,0.0,0.0,0.0,1.031,1.031,1.0297,1.0283,1.0283,1.029,1.031,1.031,1.0317,1.0337,1.0337,1.0405,1.0521,1.0521,1.0595,1.0717,1.0717,1.0717,1.0717,1.0717,1.0717,1.0717,1.0717,1.0717,1.0717,1.0717,1.0717,1.0717,1.0717,1.0717,1.0717,1.0717,1.0717,1.0717,1.0717,1.0717,1.0717,1.0717,1.0717,1.0717,1.0717,1.0717,1.0717,1.0717,1.0717,1.0717,1.0717,1.0717,1.0717,1.0717,1.0717,1.0717,1.0717,1.0717,1.0717,1.0717,1.0717,1.0717,1.0717,1.0717,1.0717,1.0717,1.0717,1.0717,1.0717,1.0717,1.0717,1.0717,1.0717,1.0717,1.0717,1.0717,1.0717,1.0717,1.0717,1.0717,1.0717,1.0717,1.0711,1.069,1.069,1.0677,1.2398,1.351,1.4899,0.0,1.7546,1.7588,0.0,0.0,0.0,0.0,0.0,0.0,0.0,0.0,0.0,0.0,0.0,0.0,0.0,0.0,0.0,0.0,0.0,0.0,0.0,0.0,0.0,0.0,0.0,1.0243,1.0154,1.0148,1.0114,1.0025,1.0025,1.0066,1.0148,1.0148,1.0195,1.0283,1.1214,1.1187,1.0442,1.1414,1.1417,1.0717,1.0717,1.0717,1.0717,1.0717,1.0717,1.0717,1.0717,1.0717,1.0717,1.0717,1.0717,1.0717,1.0717,1.0717,1.0717,1.0717,1.0717,1.0717,1.0717,1.0717,1.0717,1.0717,1.0717,1.0717,1.0717,1.0717,1.0717,1.0717,1.1439,1.1894,1.0916,1.0717,1.0717,1.0717,1.0717,1.0717,1.0717,1.0717,1.0717,1.0717,1.0717,1.0717,1.0717,1.0717,1.0717,1.0717,1.0717,1.0717,1.0717,1.0717,1.0717,1.0717,1.0717,1.0717,1.0717,1.0717,1.0717,1.0717,1.0717,1.0717,1.0717,1.0717,1.0717,1.0717,1.0717,1.0717,0.0,0.0,1.5003,1.662,1.7368,0.0,0.0,0.0,0.0,0.0,0.0,0.0,0.0,0.0,0.0,0.0,0.0,0.0,0.0,0.0,0.0,0.0,0.0,0.0,0.0,0.0,0.0,0.0,0.0,1.1347,1.1156,1.0779,1.0483,1.0422,1.0004,0.9876,0.993,0.993,1.0232,1.0782,1.2009,1.2158,1.1469,1.2779,1.282,1.1773,1.1014,1.0717,1.0717,1.0717,1.0717,1.0717,1.0717,1.0717,1.0717,1.0717,1.0717,1.0717,1.0717,1.0982,1.1306,1.085,1.0982,1.1372,1.1372,1.1372,1.1439,1.1894,1.2025,1.2025,1.2025,1.2025,1.2025,1.2025,1.2997,1.3456,1.1762,1.0982,1.0717,1.0717,1.0717,1.0717,1.0717,1.0717,1.0717,1.0717,1.0717,1.0717,1.0717,1.0717,1.0717,1.0717,1.0717,1.0717,1.0717,1.0717,1.0717,1.0717,1.0717,1.0717,1.0717,1.0717,1.0717,1.0717,1.0717,1.0717,1.0717,1.0717,1.0717,1.0717,1.0717,1.0717,0.0,1.1997,0.0,1.5003,0.0,0.0,0.0,0.0,0.0,0.0,0.0,0.0,0.0,0.0,0.0,0.0,0.0,0.0,0.0,0.0,0.0,0.0,0.0,0.0,0.0,0.0,0.0,0.0,0.0,1.4391,1.4381,1.2886,1.2105,1.2097,1.0596,0.9822,0.9836,0.9836,1.0558,1.2122,1.2182,1.3054,1.4568,1.4638,1.4706,1.463,1.1888,1.0717,1.0717,1.0717,1.0717,1.0717,1.0717,1.0717,1.0717,1.0717,1.0717,1.0717,1.0717,1.1762,1.2865,1.124,1.1828,1.3128,1.3128,1.3128,1.3513,1.5135,1.5654,1.5654,1.5654,1.5654,1.5654,1.5654,1.5719,1.5265,1.3521,1.1894,1.0717,1.0717,1.0717,1.0717,1.0717,1.0717,1.0717,1.0717,1.0717,1.0717,1.0717,1.0717,1.0717,1.0717,1.0717,1.0717,1.0717,1.0717,1.0717,1.0717,1.0717,1.0717,1.0717,1.0717,1.0717,1.0717,1.0717,1.0717,1.0717,1.0717,1.0717,1.0717,1.0717,1.0717,0.0,0.0,0.0,0.0,0.0,0.0,0.0,0.0,0.0,0.0,0.0,0.0,0.0,0.0,0.0,0.0,0.0,0.0,0.0,0.0,0.0,0.0,0.0,0.0,0.0,0.0,0.0,0.0,0.0,0.0,1.4599,1.4063,1.3765,1.3765,1.3168,1.2868,1.2868,1.2868,1.3168,1.3765,1.4767,1.5056,1.472,1.5828,1.5814,1.4809,1.3861,1.3605,1.3784,1.3784,1.3864,1.4036,1.4036,1.4036,1.4036,1.4036,1.4036,1.4036,1.4036,1.4428,1.4884,1.4232,1.4493,1.4939,1.4939,1.4939,1.507,1.5719,1.5913,1.5913,1.5913,1.5913,1.6172,1.7269,1.6689,1.6043,1.6496,1.5265,1.4036,1.4036,1.3128,1.2347,1.2347,1.1439,1.0717,1.0717,1.0717,1.0717,1.0717,1.0717,1.0717,1.0717,1.0717,1.0717,1.0717,1.0717,1.0717,1.0717,1.0717,1.0717,1.0717,1.0717,1.0717,1.0717,1.0717,1.0717,1.0717,1.0717,1.0717,1.0717,1.0717,1.0717,1.0087,0.0,0.0,0.0,0.0,0.0,0.0,0.0,0.0,0.0,0.0,0.0,0.0,0.0,0.0,0.0,0.0,0.0,0.0,0.0,0.0,0.0,0.0,0.0,0.0,0.0,0.0,0.0,0.0,0.0,1.6208,1.5725,1.5133,1.4609,1.4599,1.4599,1.4599,1.4599,1.4896,1.5429,1.6492,1.6727,1.6267,1.7399,1.7351,1.6324,1.6431,1.607,1.5352,1.5433,1.5607,1.5748,1.5883,1.5913,1.5913,1.5913,1.5913,1.5913,1.5913,1.6302,1.6689,1.6108,1.6302,1.6754,1.6754,1.6754,1.6883,1.7474,1.7667,1.7667,1.7667,1.7667,1.7923,1.9088,1.8512,1.7988,1.9088,1.7538,1.5913,1.5913,1.4939,1.4166,1.4166,1.2734,1.1571,1.1571,1.1049,1.0717,1.0717,1.0717,1.0717,1.0717,1.0717,1.0717,1.0717,1.0717,1.0717,1.0717,1.0717,1.0717,1.0717,1.0717,1.0717,1.0717,1.0717,1.0717,1.0717,1.0717,1.0717,1.0717,1.0717,1.0717,0.0,0.0,0.0,0.0,0.0,0.0,0.0,0.0,0.0,0.0,0.0,0.0,0.0,0.0,0.0,0.0,0.0,0.0,0.0,0.0,0.0,0.0,0.0,0.0,0.0,0.0,0.0,0.0,0.0,1.9345,1.9345,1.7898,1.6362,1.4767,1.4718,1.4718,1.4718,1.4718,1.5548,1.7079,1.7079,1.7864,1.943,1.943,1.943,1.943,1.943,1.7804,1.5194,1.5479,1.5643,1.5674,1.5951,1.6043,1.6043,1.6043,1.6043,1.6043,1.6043,1.7141,1.8308,1.6625,1.7216,1.8576,1.8576,1.8576,1.896,2.0589,2.1109,2.1109,2.1109,2.1109,2.1109,2.1109,2.1109,2.1109,2.1109,1.8448,1.6043,1.6043,1.5978,1.5978,1.5978,1.4558,1.339,1.339,1.1894,1.0784,1.0784,1.0717,1.0717,1.0717,1.0717,1.0717,1.0717,1.0717,1.0717,1.0717,1.0717,1.0717,1.0717,1.0717,1.0717,1.0717,1.0717,1.0717,1.0717,1.0717,1.0717,1.0717,1.0717,1.0717,0.9753,0.0,0.0,0.0,0.0,0.0,0.0,0.0,0.0,0.0,0.0,0.0,0.0,0.0,0.0,0.0,0.0,0.0,0.0,0.0,0.0,0.0,0.0,0.0,0.0,0.0,0.0,0.0,1.8691,1.8731,1.8731,1.8324,1.795,1.7753,1.7695,1.7852,1.8052,1.8052,1.8286,1.8765,1.8765,1.8952,1.943,1.943,1.943,1.943,1.943,1.8914,1.8171,1.8503,1.8852,1.9275,1.9349,1.9499,1.9674,1.9674,1.9674,1.9674,1.9674,2.0005,2.0322,1.9814,2.0005,2.0386,2.0386,2.0386,2.0462,2.0982,2.1109,2.1109,2.1109,2.1109,2.1109,2.1109,2.1109,2.1109,2.1109,2.0322,1.9674,1.9674,1.864,1.7795,1.7795,1.6366,1.52,1.52,1.3709,1.261,1.261,1.1505,1.0717,1.0717,1.0717,1.0717,1.0717,1.0717,1.0717,1.0717,1.0717,1.0717,1.0717,1.0717,1.0717,1.0717,1.0717,1.0717,1.0717,1.0717,1.0717,1.0717,1.0717,1.0717,1.0533,1.0995,0.0,0.0,0.0,0.0,0.0,0.0,0.0,0.0,0.0,0.0,0.0,0.0,0.0,0.0,0.0,0.0,0.0,0.0,0.0,0.0,0.0,0.0,0.0,0.0,0.0,1.8303,1.8424,1.849,1.849,1.849,1.8571,1.8731,1.8865,1.9011,1.9185,1.9305,1.943,1.943,1.943,1.943,1.943,1.943,1.943,1.943,1.943,1.943,1.9386,1.9546,1.9893,2.0334,2.0588,2.0775,2.0949,2.1069,2.1109,2.1109,2.1109,2.1109,2.1109,2.1109,2.1109,2.1109,2.1109,2.1109,2.1109,2.1109,2.1109,2.1109,2.1109,2.1109,2.1109,2.1109,2.1109,2.1109,2.1109,2.1109,2.1109,2.1109,2.0259,1.961,1.961,1.8116,1.6947,1.6947,1.5524,1.4362,1.4362,1.2865,1.1762,1.1762,1.1108,1.0717,1.0717,1.0717,1.0717,1.0717,1.0717,1.0717,1.0717,1.0717,1.0717,1.0717,1.0717,1.0717,1.0717,1.0717,1.0717,1.0717,1.0717,1.0717,1.153,1.1837,1.2478,0.0,0.0,0.0,1.3681,1.3333,0.0,0.0,0.0,0.0,0.0,0.0,0.0,0.0,0.0,0.0,0.0,0.0,0.0,0.0,0.0,0.0,0.0,1.7782,1.7902,1.7942,1.8237,1.8384,1.8384,1.8384,1.841,1.8437,1.8691,1.8838,1.8878,1.9172,1.9319,1.9319,1.9359,1.943,1.943,1.943,1.943,1.943,1.943,1.943,1.943,1.943,1.9533,1.9853,2.0414,2.0641,2.0708,2.1002,2.1109,2.1109,2.1109,2.1109,2.1109,2.1109,2.1109,2.1109,2.1109,2.1109,2.1109,2.1109,2.1109,2.1109,2.1109,2.1109,2.1109,2.1109,2.1109,2.1109,2.1109,2.1109,2.1109,2.1109,2.1109,2.1109,2.1109,1.9801,1.8768,1.8768,1.7345,1.6172,1.6172,1.4688,1.3578,1.3578,1.2025,1.0982,1.0982,1.0784,1.0717,1.0717,1.0717,1.0717,1.0717,1.0717,1.0717,1.0717,1.0717,1.0717,1.0717,1.0717,1.0717,1.0717,1.0717,1.0717,0.0,0.0,0.0,0.0,0.0,0.0,0.0,1.1677,0.0,0.0,0.0,0.0,0.0,0.0,0.0,0.0,0.0,0.0,0.0,0.0,0.0,0.0,0.0,0.0,0.0,1.734,1.7474,1.7649,1.7729,1.7756,1.7756,1.7756,1.7876,1.8075,1.8129,1.833,1.8571,1.8865,1.9011,1.9011,1.9252,1.943,1.943,1.943,1.943,1.943,1.943,1.943,1.943,1.943,1.9533,1.984,2.0187,2.0468,2.0708,2.1002,2.1109,2.1109,2.1109,2.1109,2.1109,2.1109,2.1109,2.1109,2.1109,2.1109,2.1109,2.1109,2.1109,2.1109,2.1109,2.1109,2.1109,2.1109,2.1109,2.1109,2.1109,2.1109,2.1109,2.1109,2.1109,2.1109,2.1109,2.0843,2.0589,2.0589,1.9088,1.7988,1.7988,1.6496,1.5394,1.5394,1.384,1.2808,1.2808,1.1505,1.0717,1.0717,1.0717,1.0717,1.0717,1.0717,1.0717,1.0717,1.0717,1.0717,1.0717,1.0717,1.0717,1.0717,1.0717,1.0717,0.0,0.0,0.0,1.3373,0.0,0.0,0.0,0.0,0.0,0.0,0.0,0.0,0.0,0.0,0.0,0.0,0.0,0.0,0.0,0.0,0.0,0.0,0.0,0.0,0.0,1.6927,1.7099,1.7393,1.742,1.7487,1.7569,1.7582,1.7649,1.7809,1.7916,1.8062,1.8263,1.8557,1.8784,1.8918,1.9078,1.9225,1.943,1.943,1.943,1.943,1.943,1.943,1.943,1.943,1.9452,1.9626,2.0067,2.0321,2.0508,2.0949,2.1109,2.1109,2.1109,2.1109,2.1109,2.1109,2.1109,2.1109,2.1109,2.1109,2.1109,2.1109,2.1109,2.1109,2.1109,2.1109,2.1109,2.1109,2.1109,2.1109,2.1109,2.1109,2.1109,2.1109,2.1109,2.1109,2.1109,2.1109,2.1109,2.1109,2.0386,1.9801,1.9801,1.8244,1.7216,1.7216,1.5654,1.4623,1.4623,1.2997,1.2025,1.2025,1.1174,1.0717,1.0717,1.0717,1.0717,1.0717,1.0717,1.0717,1.0717,1.0717,1.0717,1.0717,1.0717,1.0717,0.0,0.0,0.0,0.0,0.0,1.3641,0.0,0.0,0.0,0.0,0.0,0.0,0.0,0.0,0.0,0.0,0.0,0.0,0.0,0.0,0.0,0.0,0.0,0.0,0.0,1.6486,1.662,1.7085,1.6965,1.7058,1.7475,1.7502,1.7528,1.7582,1.7822,1.7902,1.7902,1.825,1.8517,1.8758,1.8865,1.9052,1.9279,1.9345,1.943,1.943,1.943,1.943,1.943,1.943,1.943,1.9426,2.0,2.0167,2.0247,2.0895,2.1109,2.1109,2.1109,2.1109,2.1109,2.1109,2.1109,2.1109,2.1109,2.1109,2.1109,2.1109,2.1109,2.1109,2.1109,2.1109,2.1109,2.1109,2.1109,2.1109,2.1109,2.1109,2.1109,2.1109,2.1109,2.1109,2.1109,2.1109,2.1109,2.1109,2.1109,2.1109,2.1109,1.9877,1.9024,1.9024,1.7474,1.6366,1.6366,1.4819,1.3643,1.3325,1.196,1.1049,1.0717,1.0717,1.0717,1.0717,1.0717,1.0717,1.0717,1.0717,1.0717,1.0717,1.0717,1.0717,0.0,0.0,0.0,0.0,1.503,0.0,0.0,0.0,0.0,0.0,0.0,0.0,0.0,0.0,0.0,0.0,0.0,0.0,0.0,0.0,0.0,0.0,0.0,0.0,0.0,0.0,1.5885,1.67,1.6032,1.6059,1.7192,1.7246,1.7367,1.7569,1.7622,1.7635,1.7635,1.7943,1.8062,1.8102,1.8621,1.8945,1.8985,1.9239,1.943,1.943,1.943,1.943,1.943,1.943,1.943,1.9426,2.0,2.0167,2.0247,2.0895,2.1109,2.1109,2.1109,2.1109,2.1109,2.1109,2.1109,2.1109,2.1109,2.1109,2.1109,2.1109,2.1109,2.1109,2.1109,2.1109,2.1109,2.1109,2.1109,2.1109,2.1109,2.1109,2.1109,2.1109,2.1109,2.1109,2.1109,2.1109,2.1109,2.1109,2.1109,2.1109,2.1109,2.0919,2.0779,2.0779,1.9228,1.818,1.818,1.6625,1.4949,1.339,1.3128,1.2281,1.0784,1.0717,1.0717,1.0717,1.0717,1.0717,1.0717,1.0717,1.0717,1.0717,1.0717,1.0717,0.0,0.0,0.0,0.0,0.0,0.0,1.3053,0.0,1.2478,0.0,0.0,0.0,0.0,0.0,0.0,0.0,0.0,0.0,0.0,0.0,0.0,0.0,0.0,0.0,0.0,0.0,0.0,0.0,0.0,1.5625,1.6643,1.7018,1.7259,1.738,1.7502,1.7582,1.7582,1.7716,1.7862,1.7995,1.8235,1.8542,1.8931,1.9052,1.9199,1.943,1.943,1.943,1.943,1.943,1.943,1.947,1.9826,2.008,2.022,2.0708,2.0962,2.1109,2.1109,2.1109,2.1109,2.1109,2.1109,2.1109,2.1109,2.1109,2.1109,2.1109,2.1109,2.1109,2.1109,2.1109,2.1109,2.1109,2.1109,2.1109,2.1109,2.1109,2.1109,2.1109,2.1109,2.1109,2.1109,2.1109,2.1109,2.1109,2.1109,2.1109,2.1109,2.1109,2.1109,2.1109,2.0462,2.0005,2.0005,1.8436,1.7087,1.6366,1.4428,1.2997,1.2215,1.2215,1.2676,1.3709,1.2742,1.2215,1.2215,1.1174,1.0717,1.0717,1.0717,1.0717,1.6954,0.0,0.0,0.0,0.0,0.0,0.0,0.0,0.0,0.0,0.0,0.0,0.0,0.0,0.0,0.0,0.0,0.0,0.0,0.0,0.0,0.0,0.0,0.0,0.0,0.0,0.0,0.0,0.0,0.0,1.6086,1.6553,1.6951,1.7192,1.7407,1.7554,1.7582,1.7582,1.7702,1.7862,1.7955,1.8262,1.8811,1.8891,1.9092,1.943,1.943,1.943,1.943,1.943,1.943,1.9444,1.9599,1.9907,2.0267,2.0561,2.0855,2.1109,2.1109,2.1109,2.1109,2.1109,2.1109,2.1109,2.1109,2.1109,2.1109,2.1109,2.1109,2.1109,2.1109,2.1109,2.1109,2.1109,2.1109,2.1109,2.1109,2.1109,2.1109,2.1109,2.1109,2.1109,2.1109,2.1109,2.1109,2.1109,2.1109,2.1109,2.1109,2.1109,2.1109,2.1109,2.1109,2.1109,2.1109,1.9941,1.9024,1.8512,1.5654,1.4036,1.4036,1.4036,1.4623,1.5848,1.4679,1.4036,1.4036,1.2281,1.1439,1.1372,1.0916,1.0717,0.0,0.0,0.0,1.5137,0.0,0.0,0.0,0.0,1.3493,0.0,0.0,0.0,0.0,0.0,0.0,1.2425,0.0,0.0,0.0,0.0,0.0,0.0,0.0,0.0,0.0,0.0,0.0,0.0,0.0,0.0,1.5691,1.5811,1.6259,1.7179,1.7206,1.7353,1.7582,1.7582,1.7582,1.7595,1.7903,1.821,1.8517,1.8798,1.9092,1.943,1.943,1.943,1.943,1.943,1.943,1.943,1.943,1.9733,2.0267,2.0561,2.0855,2.1109,2.1109,2.1109,2.1109,2.1109,2.1109,2.1109,2.1109,2.1109,2.1109,2.1109,2.1109,2.1109,2.1109,2.1109,2.1109,2.1109,2.1109,2.1109,2.1109,2.1109,2.1109,2.1109,2.1109,2.1109,2.1109,2.1109,2.1109,2.1109,2.1109,2.1109,2.1109,2.1109,2.1109,2.1109,2.1109,2.1109,2.1109,2.1046,2.0322,1.864,1.6818,1.5848,1.5848,1.5848,1.5848,1.5913,1.5848,1.5848,1.5784,1.4101,1.3193,1.3193,1.1505,1.0717,0.0,0.0,1.8156,1.6179,0.0,0.0,0.0,0.0,0.0,0.0,0.0,0.0,0.0,0.0,1.3373,1.2744,1.2556,0.0,0.0,0.0,0.0,0.0,0.0,0.0,0.0,0.0,0.0,0.0,0.0,0.0,0.0,1.5805,1.6353,1.6834,1.7099,1.734,1.7582,1.7582,1.7582,1.7582,1.7689,1.7996,1.849,1.8597,1.8905,1.943,1.943,1.943,1.943,1.943,1.943,1.943,1.943,1.972,2.018,2.0347,2.0695,2.1109,2.1109,2.1109,2.1109,2.1109,2.1109,2.1109,2.1109,2.1109,2.1109,2.1109,2.1109,2.1109,2.1109,2.1109,2.1109,2.1109,2.1109,2.1109,2.1109,2.1109,2.1109,2.1109,2.1109,2.1109,2.1109,2.1109,2.1109,2.1109,2.1109,2.1109,2.1109,2.1109,2.1109,2.1109,2.1109,2.1109,2.1109,2.1109,2.0386,1.864,1.7923,1.7602,1.7602,1.7602,1.818,1.9355,1.818,1.7602,1.7602,1.5848,1.5005,1.5005,1.4428,1.2931,1.845,1.8544,0.0,1.682,1.6286,0.0,1.4188,0.0,0.0,0.0,0.0,0.0,0.0,0.0,0.0,1.336,1.2705,0.0,0.0,0.0,0.0,0.0,0.0,0.0,0.0,0.0,1.2221,1.2744,0.0,0.0,0.0,0.0,1.6086,1.6687,1.6887,1.7233,1.7582,1.7582,1.7582,1.7582,1.7582,1.7903,1.849,1.849,1.8811,1.943,1.943,1.943,1.943,1.943,1.943,1.943,1.943,1.972,2.0167,2.0167,2.0601,2.1109,2.1109,2.1109,2.1109,2.1109,2.1109,2.1109,2.1109,2.1109,2.1109,2.1109,2.1109,2.1109,2.1109,2.1109,2.1109,2.1109,2.1109,2.1109,2.1109,2.1109,2.1109,2.1109,2.1109,2.1109,2.1109,2.1109,2.1109,2.1109,2.1109,2.1109,2.1109,2.1109,2.1109,2.1109,2.1109,2.1109,2.1109,2.1109,2.0589,1.9483,1.9419,1.9419,1.9419,1.9419,1.9941,2.1109,2.0005,1.9419,1.9419,1.7667,1.6818,1.6818,1.6818,1.5265]}]]